ftp/pub/palmer/observations_modified/2019/June/AR190622_BASE.txt

Download

Sample DateTime	Unit Id	WS Avg 2min	WD Avg 2min	WGS 10min	WGD 10min	Air Temp	Rel Humidity	Dew Point	Pyranometer	Quantum	Air Pressure	Snow Level	Rainfall	PW Current	Visibility	CBase 1	CBase 2	CBase 3	Vert Vis
2019/06/22  00:00:00  BASE  2.16384  169  4.47468  176  -4.7  95    -5.4  0     0     989.1    NA       0.0000   9999     2330  0     0    
2019/06/22  00:01:00  BASE  2.42256  165  4.47468  176  -4.7  95    -5.4  0     0     989.1    NA       0.0000   9999     2300  0     0    
2019/06/22  00:02:00  BASE  2.6754   165  4.47468  176  -4.8  95    -5.4  0     0     989.1    NA       0.0000   9999     1900  0     0    
2019/06/22  00:03:00  BASE  2.45784  153  4.05132  175  -4.8  95    -5.4  0     0     989.1    NA       0.0000   9999     2100  0     0    
2019/06/22  00:04:00  BASE  2.42844  150  4.05132  175  -4.8  96    -5.4  0     0     989.1    NA       0.0000   9999     2100  0     0    
2019/06/22  00:05:00  BASE  2.48724  155  3.81024  186  -4.8  96    -5.4  0     0     989.1    NA       0.0000   9999     2130  0     0    
2019/06/22  00:06:00  BASE  2.32848  156  3.1458   188  -4.8  96    -5.3  0     0     989.1    NA       0.0000   9999     2070  0     0    
2019/06/22  00:07:00  BASE  2.21676  158  3.1458   188  -4.8  96    -5.3  0     0     989.1    NA       0.0000   9999     2300  0     0    
2019/06/22  00:08:00  BASE  2.43432  167  3.0576   176  -4.8  96    -5.3  0     0     989.1    NA       0.0000   9999     2170  0     0    
2019/06/22  00:09:00  BASE  2.69304  172  3.0576   176  -4.8  96    -5.3  0     0     989.1    NA       0.0000   9999     2130  0     0    
2019/06/22  00:10:00  BASE  2.74008  169  3.0576   176  -4.8  96    -5.3  0     0     989.2    NA       0.0000   9999     2070  0     0    
2019/06/22  00:11:00  BASE  2.95764  169  3.48096  171  -4.8  96    -5.3  0     0     989.2    NA       0.0000   9999     1800  0     0    
2019/06/22  00:12:00  BASE  2.87532  167  3.48096  171  -4.8  96    -5.3  0     0     989.2    NA       0.0000   9999     1640  0     0    
2019/06/22  00:13:00  BASE  2.36964  162  3.48096  171  -4.8  96    -5.3  0     0     989.2    NA       0.0000   9999     1540  2300  0    
2019/06/22  00:14:00  BASE  2.2638   155  3.48096  171  -4.8  96    -5.3  0     0     989.2    NA       0.0000   9999     2330  0     0    
2019/06/22  00:15:00  BASE  2.499    152  3.48096  171  -4.8  96    -5.3  0     0     989.2    NA       0.0000   9999     2300  0     0    
2019/06/22  00:16:00  BASE  2.64012  154  3.48096  171  -4.8  96    -5.3  0     0     989.2    NA       0.0000   9999     2300  2920  0    
2019/06/22  00:17:00  BASE  2.66364  155  3.48096  171  -4.8  96    -5.3  0     0     989.2    NA       0.0000   9999     2530  0     0    
2019/06/22  00:18:00  BASE  2.55192  152  3.48096  171  -4.8  96    -5.3  0     0     989.2    NA       0.0000   9999     2360  0     0    
2019/06/22  00:19:00  BASE  2.40492  145  3.48096  171  -4.8  96    -5.3  0     0     989.2    NA       0.0000   9999     2300  0     0    
2019/06/22  00:20:00  BASE  2.4108   140  3.48096  171  -4.8  96    -5.3  0     0     989.2    NA       0.0000   9999     2070  0     0    
2019/06/22  00:21:00  BASE  2.4696   142  2.84592  157  -4.8  96    -5.3  0     0     989.2    NA       0.0000   9999     2130  0     0    
2019/06/22  00:22:00  BASE  2.44608  149  2.84592  157  -4.8  96    -5.3  0     0     989.2    NA       0.0000   9999     2170  0     0    
2019/06/22  00:23:00  BASE  2.29908  154  2.84592  157  -4.8  96    -5.3  0     0     989.2    NA       0.0000   9999     2170  0     0    
2019/06/22  00:24:00  BASE  2.24616  159  2.84592  157  -4.8  96    -5.3  0     0     989.2    NA       0.0000   9999     2070  0     0    
2019/06/22  00:25:00  BASE  2.30496  159  2.84592  157  -4.8  96    -5.4  0     0     989.2    NA       0.0000   9999     2230  0     0    
2019/06/22  00:26:00  BASE  2.51664  152  3.32808  149  -4.8  96    -5.4  0     0     989.2    NA       0.0000   9999     2230  0     0    
2019/06/22  00:27:00  BASE  2.84592  150  3.35748  150  -4.9  96    -5.3  0     0     989.2    NA       0.0000   9999     2170  0     0    
2019/06/22  00:28:00  BASE  2.75184  153  3.35748  150  -4.9  97    -5.3  0     0     989.2    NA       0.0000   9999     2130  0     0    
2019/06/22  00:29:00  BASE  2.352    154  3.35748  150  -4.8  97    -5.3  0     0     989.2    NA       0.0000   9999     2100  0     0    
2019/06/22  00:30:00  BASE  2.1168   151  3.35748  150  -4.8  97    -5.2  0     0     989.2    NA       0.0000   9999     2100  0     0    
2019/06/22  00:31:00  BASE  1.87572  146  3.35748  150  -4.8  97    -5.2  0     0     989.2    NA       0.0000   9999     1800  0     0    
2019/06/22  00:32:00  BASE  1.63464  145  3.35748  150  -4.8  97    -5.2  0     0     989.2    NA       0.0000   9999     1840  0     0    
2019/06/22  00:33:00  BASE  1.64052  152  3.35748  150  -4.8  97    -5.2  0     0     989.4    NA       0.0000   9999     1940  0     0    
2019/06/22  00:34:00  BASE  2.06388  162  3.35748  150  -4.8  97    -5.3  0     0     989.4    NA       0.0000   9999     1900  0     0    
2019/06/22  00:35:00  BASE  2.52252  164  3.35748  150  -4.8  97    -5.3  0     0     989.4    NA       0.0000   9999     1870  0     0    
2019/06/22  00:36:00  BASE  2.6166   163  3.35748  150  -4.9  97    -5.3  0     0     989.4    NA       0.0000   9999     1870  0     0    
2019/06/22  00:37:00  BASE  2.89296  166  3.51036  169  -4.9  97    -5.3  0     0     989.4    NA       0.0000   9999     1900  0     0    
2019/06/22  00:38:00  BASE  3.36336  169  3.72204  175  -4.8  97    -5.3  0     0     989.4    NA       0.0000   9999     1870  0     0    
2019/06/22  00:39:00  BASE  3.34572  173  3.72204  175  -4.8  97    -5.2  0     0     989.4    NA       0.0000   9999     1840  0     0    
2019/06/22  00:40:00  BASE  2.92824  169  3.72204  175  -4.8  97    -5.2  0     0     989.4    NA       0.0000   9999     1870  0     0    
2019/06/22  00:41:00  BASE  2.41668  164  3.72204  175  -4.8  97    -5.2  0     0     989.4    NA       0.0000   9999     1970  0     0    
2019/06/22  00:42:00  BASE  1.93452  159  3.72204  175  -4.8  97    -5.2  0     0     989.4    NA       0.0000   9999     1940  0     0    
2019/06/22  00:43:00  BASE  1.69344  151  3.72204  175  -4.8  97    -5.2  0     0     989.4    NA       0.0000   9999     2000  0     0    
2019/06/22  00:44:00  BASE  1.62876  146  3.72204  175  -4.8  97    -5.3  0     0     989.4    NA       0.0000   9999     2130  0     0    
2019/06/22  00:45:00  BASE  1.51116  147  3.72204  175  -4.8  96    -5.3  0     0     989.4    NA       0.0000   9999     2000  0     0    
2019/06/22  00:46:00  BASE  1.31124  139  3.72204  175  -4.8  96    -5.3  0     0     989.4    NA       0.0000   9999     1870  0     0    
2019/06/22  00:47:00  BASE  0.98784  118  3.72204  175  -4.8  96    -5.3  0     0     989.5    NA       0.0000   9999     1900  0     0    
2019/06/22  00:48:00  BASE  1.30536  86   3.56916  175  -4.8  96    -5.3  0     0     989.4    NA       0.0000   9999     1670  0     0    
2019/06/22  00:49:00  BASE  1.83456  59   2.90472  169  -4.8  96    -5.3  0     0     989.5    NA       0.0000   9999     2200  0     0    
2019/06/22  00:50:00  BASE  1.24656  40   2.48136  162  -4.8  96    -5.4  0     0     989.5    NA       0.0000   9999     1770  2460  0    
2019/06/22  00:51:00  BASE  0.31752  13   2.21088  55   -4.8  96    -5.4  0     0     989.5    NA       0.0000   9999     1640  0     0    
2019/06/22  00:52:00  BASE  0.08232  347  2.21088  55   -4.8  96    -5.4  0     0     989.5    NA       0.0000   9999     1640  0     0    
2019/06/22  00:53:00  BASE  0.41748  309  2.21088  55   -4.8  96    -5.4  0     0     989.5    NA       0.0000   9999     1510  0     0    
2019/06/22  00:54:00  BASE  0.35868  311  2.21088  55   -4.8  95    -5.4  0     0     989.5    NA       0.0000   9999     1570  0     0    
2019/06/22  00:55:00  BASE  0.0294   322  2.21088  55   -4.8  95    -5.5  0     0     989.5    NA       0.0000   9999     1640  0     0    
2019/06/22  00:56:00  BASE  0.51744  267  2.21088  55   -4.8  94    -5.5  0     0     989.6    NA       0.0000   9999     1610  0     0    
2019/06/22  00:57:00  BASE  1.45824  239  2.24028  253  -4.7  94    -5.6  0     0     989.6    NA       0.0000   9999     1570  0     0    
2019/06/22  00:58:00  BASE  2.32848  242  4.29828  209  -4.7  94    -5.6  0     0     989.6    NA       0.0000   9999     1570  0     0    
2019/06/22  00:59:00  BASE  3.19284  223  4.29828  210  -4.7  93    -5.6  0     0     989.6    NA       0.0000   9999     1640  2400  0    
2019/06/22  01:00:00  BASE  3.81024  198  4.68636  188  -4.6  93    -5.5  0     0     989.6    NA       0.0000   9999     2360  0     0    
2019/06/22  01:01:00  BASE  3.35748  179  4.68636  188  -4.6  93    -5.6  0     0     989.6    NA       0.0000   9999     1940  0     0    
2019/06/22  01:02:00  BASE  2.74596  171  4.68636  188  -4.6  93    -5.6  0     0     989.6    NA       0.0000   9999     2070  0     0    
2019/06/22  01:03:00  BASE  2.46372  167  4.68636  188  -4.6  93    -5.6  0     0     989.6    NA       0.0000   9999     2230  0     0    
2019/06/22  01:04:00  BASE  2.14032  161  4.68636  188  -4.6  93    -5.6  0     0     989.6    NA       0.0000   9999     2300  0     0    
2019/06/22  01:05:00  BASE  2.30496  160  4.68636  188  -4.6  93    -5.6  0     0     989.6    NA       0.0000   9999     2000  0     0    
2019/06/22  01:06:00  BASE  2.66952  163  4.68636  188  -4.7  93    -5.6  0     0     989.7    NA       0.0000   9999     1770  0     0    
2019/06/22  01:07:00  BASE  2.52252  164  4.68636  188  -4.7  93    -5.6  0     0     989.7    NA       0.0000   9999     1770  2430  0    
2019/06/22  01:08:00  BASE  2.14032  163  4.68636  188  -4.7  93    -5.6  0     0     989.7    NA       0.0000   9999     1610  2430  0    
2019/06/22  01:09:00  BASE  2.1168   178  4.68636  188  -4.7  93    -5.6  0     0     989.7    NA       0.0000   9999     2300  0     0    
2019/06/22  01:10:00  BASE  2.07564  218  3.41628  168  -4.7  93    -5.6  0     0     989.7    NA       0.0000   9999     2330  0     0    
2019/06/22  01:11:00  BASE  2.04624  256  3.41628  168  -4.7  93    -5.7  0     0     989.6    NA       0.0000   9999     2260  0     0    
2019/06/22  01:12:01  BASE  3.00468  246  5.44488  236  -4.7  93    -5.6  0     0     989.7    NA       0.0000   9999     1900  0     0    
2019/06/22  01:13:00  BASE  3.69264  233  5.44488  236  -4.7  93    -5.7  0     0     989.7    NA       0.0000   9999     2030  0     0    
2019/06/22  01:14:00  BASE  3.39276  243  5.44488  236  -4.7  92    -5.7  0     0     989.7    NA       0.0000   9999     2100  0     0    
2019/06/22  01:15:00  BASE  3.44568  243  5.44488  236  -4.7  92    -5.8  0     0     989.7    NA       0.0000   9999     2100  0     0    
2019/06/22  01:16:00  BASE  3.06936  238  5.44488  236  -4.7  91    -6.0  0     0     989.7    NA       0.0000   9999     2070  0     0    
2019/06/22  01:17:00  BASE  2.13444  231  5.44488  236  -4.7  90    -6.1  0     0     989.7    NA       0.0000   9999     2100  0     0    
2019/06/22  01:18:00  BASE  1.93452  225  5.44488  236  -4.7  89    -6.2  0     0     989.7    NA       0.0000   9999     2200  0     0    
2019/06/22  01:19:00  BASE  3.30456  219  5.44488  236  -4.7  88    -6.3  0     0     989.6    NA       0.0000   9999     2260  0     0    
2019/06/22  01:20:00  BASE  3.89844  233  5.44488  236  -4.6  87    -6.4  0     0     989.6    NA       0.0000   9999     2260  0     0    
2019/06/22  01:21:00  BASE  3.0576   244  5.44488  236  -4.6  86    -6.5  0     0     989.7    NA       0.0000   9999     2230  0     0    
2019/06/22  01:22:00  BASE  3.2634   225  5.95644  205  -4.5  85    -6.6  0     0     989.7    NA       0.0000   9999     2230  0     0    
2019/06/22  01:23:00  BASE  4.85688  210  6.3504   215  -4.5  85    -6.7  0     0     989.6    NA       0.0000   9999     2330  0     0    
2019/06/22  01:24:00  BASE  5.65656  211  6.3504   215  -4.5  84    -6.8  0     0     989.7    NA       0.0000   9999     2230  0     0    
2019/06/22  01:25:00  BASE  5.3214   212  6.3504   215  -4.5  84    -6.8  0     0     989.7    NA       0.0000   9999     2200  0     0    
2019/06/22  01:26:00  BASE  4.78632  214  6.3504   215  -4.5  83    -6.9  0     0     989.7    NA       0.0000   9999     2100  0     0    
2019/06/22  01:27:00  BASE  4.10424  209  6.3504   215  -4.5  83    -7.0  0     0     989.7    NA       0.0000   9999     2070  0     0    
2019/06/22  01:28:00  BASE  3.75732  204  6.3504   215  -4.5  83    -7.0  0     0     989.7    NA       0.0000   9999     2030  0     0    
2019/06/22  01:29:00  BASE  2.65776  205  6.3504   215  -4.5  82    -7.1  0     0     989.7    NA       0.0000   9999     2070  0     0    
2019/06/22  01:30:00  BASE  1.4406   216  6.3504   215  -4.5  82    -7.1  0     0     989.7    NA       0.0000   9999     2130  0     0    
2019/06/22  01:31:00  BASE  1.58172  226  6.3504   215  -4.5  82    -7.2  0     0     989.7    NA       0.0000   9999     2100  0     0    
2019/06/22  01:32:00  BASE  1.59348  231  6.3504   215  -4.5  81    -7.2  0     0     989.7    NA       0.0000   9999     1840  0     0    
2019/06/22  01:33:00  BASE  1.61112  229  5.86824  212  -4.5  81    -7.2  0     0     989.7    NA       0.0000   9999     1940  0     0    
2019/06/22  01:34:00  BASE  1.76988  223  5.65656  213  -4.5  81    -7.3  0     0     989.7    NA       0.0000   9999     2030  0     0    
2019/06/22  01:35:00  BASE  1.29948  215  5.38608  217  -4.5  81    -7.3  0     0     989.7    NA       0.0000   9999     1970  0     0    
2019/06/22  01:36:00  BASE  0.94668  201  4.65696  215  -4.5  80    -7.4  0     0     989.7    NA       0.0000   9999     1970  0     0    
2019/06/22  01:37:00  BASE  0.7056   188  4.2336   198  -4.5  80    -7.4  0     0     989.7    NA       0.0000   9999     2070  0     0    
2019/06/22  01:38:00  BASE  0.89376  184  2.21088  231  -4.5  80    -7.4  0     0     989.7    NA       0.0000   9999     2100  0     0    
2019/06/22  01:39:00  BASE  1.18188  182  2.21088  231  -4.5  80    -7.4  0     0     989.7    NA       0.0000   9999     2200  0     0    
2019/06/22  01:40:00  BASE  0.72912  187  2.21088  231  -4.5  80    -7.4  0     0     989.7    NA       0.0000   9999     2070  0     0    
2019/06/22  01:41:00  BASE  0.40572  201  2.1756   221  -4.5  80    -7.4  0     0     989.7    NA       0.0000   9999     2070  0     0    
2019/06/22  01:42:00  BASE  0.81732  225  2.1756   221  -4.5  80    -7.5  0     0     989.7    NA       0.0000   9999     2100  0     0    
2019/06/22  01:43:00  BASE  1.42296  247  1.90512  248  -4.5  80    -7.5  0     0     989.7    NA       0.0000   9999     2000  0     0    
2019/06/22  01:44:00  BASE  1.54644  243  1.90512  248  -4.5  79    -7.5  0     0     989.7    NA       0.0000   9999     1940  0     0    
2019/06/22  01:45:00  BASE  0.92316  230  1.90512  248  -4.5  79    -7.5  0     0     989.7    NA       0.0000   9999     2000  0     0    
2019/06/22  01:46:00  BASE  0.53508  209  1.90512  248  -4.5  79    -7.6  0     0     989.7    NA       0.0000   9999     2130  0     0    
2019/06/22  01:47:00  BASE  0.75264  215  1.90512  248  -4.5  79    -7.6  0     0     989.7    NA       0.0000   9999     2170  0     0    
2019/06/22  01:48:00  BASE  1.12308  226  1.90512  248  -4.5  79    -7.6  0     0     989.7    NA       0.0000   9999     2170  0     0    
2019/06/22  01:49:00  BASE  1.39356  228  1.90512  248  -4.5  79    -7.6  0     0     989.8    NA       0.0000   9999     2000  0     0    
2019/06/22  01:50:00  BASE  1.53468  237  1.90512  248  -4.6  79    -7.6  0     0     989.8    NA       0.0000   9999     2030  0     0    
2019/06/22  01:51:00  BASE  1.62876  237  1.90512  248  -4.6  80    -7.6  0     0     989.8    NA       0.0000   9999     2100  0     0    
2019/06/22  01:52:00  BASE  1.63464  237  1.90512  248  -4.6  80    -7.5  0     0     989.8    NA       0.0000   9999     2100  0     0    
2019/06/22  01:53:00  BASE  1.7934   242  2.56956  244  -4.6  80    -7.5  0     0     989.8    NA       0.0000   9999     2200  0     0    
2019/06/22  01:54:00  BASE  2.0286   235  2.56956  238  -4.6  80    -7.5  0     0     989.8    NA       0.0000   9999     2130  0     0    
2019/06/22  01:55:00  BASE  1.81104  226  2.56956  238  -4.6  80    -7.4  0     0     989.8    NA       0.0000   9999     2070  0     0    
2019/06/22  01:56:00  BASE  1.54056  230  2.56956  238  -4.5  81    -7.4  0     0     989.8    NA       0.0000   9999     2030  0     0    
2019/06/22  01:57:00  BASE  1.54644  227  2.56956  238  -4.5  81    -7.3  0     0     989.8    NA       0.0000   9999     1970  0     0    
2019/06/22  01:58:00  BASE  1.54056  222  2.56956  238  -4.5  81    -7.3  0     0     989.8    NA       0.0000   9999     2130  0     0    
2019/06/22  01:59:00  BASE  1.3524   218  2.56956  238  -4.5  81    -7.3  0     0     989.8    NA       0.0000   9999     2130  0     0    
2019/06/22  02:00:00  BASE  1.10544  214  2.56956  238  -4.5  81    -7.3  0     0     989.8    NA       0.0000   9999     2130  0     0    
2019/06/22  02:01:00  BASE  0.96432  221  2.56956  238  -4.5  80    -7.3  0     0     989.8    NA       0.0000   9999     2130  0     0    
2019/06/22  02:02:00  BASE  0.97608  236  2.56956  238  -4.5  80    -7.4  0     0     989.8    NA       0.0000   9999     2130  0     0    
2019/06/22  02:03:00  BASE  1.09368  244  2.56956  238  -4.5  81    -7.3  0     0     989.8    NA       0.0000   9999     2170  0     0    
2019/06/22  02:04:00  BASE  1.06428  248  2.0874   232  -4.5  81    -7.3  0     0     989.8    NA       0.0000   9999     2170  0     0    
2019/06/22  02:05:00  BASE  1.16424  252  2.0874   232  -4.5  81    -7.3  0     0     989.8    NA       0.0000   9999     2170  0     0    
2019/06/22  02:06:00  BASE  1.2348   257  2.0874   232  -4.6  81    -7.3  0     0     989.8    NA       0.0000   9999     2170  0     0    
2019/06/22  02:07:00  BASE  1.22892  264  2.0874   232  -4.6  81    -7.3  0     0     989.8    NA       0.0000   9999     2170  0     0    
2019/06/22  02:08:00  BASE  1.09368  277  1.51116  250  -4.6  81    -7.3  0     0     989.8    NA       0.0000   9999     2130  0     0    
2019/06/22  02:09:00  BASE  1.17012  274  2.1462   255  -4.6  81    -7.3  0     0     989.8    NA       0.0000   9999     2130  0     0    
2019/06/22  02:10:00  BASE  1.48764  252  2.1462   255  -4.5  81    -7.2  0     0     989.8    NA       0.0000   9999     2130  0     0    
2019/06/22  02:11:00  BASE  1.4112   243  2.1462   255  -4.5  81    -7.2  0     0     989.8    NA       0.0000   9999     2130  0     0    
2019/06/22  02:12:00  BASE  1.53468  243  2.1462   255  -4.5  81    -7.2  0     0     989.8    NA       0.0000   9999     2170  0     0    
2019/06/22  02:13:00  BASE  1.8816   236  2.35788  231  -4.5  81    -7.3  0     0     989.8    NA       0.0000   9999     2170  0     0    
2019/06/22  02:14:00  BASE  2.29908  240  2.99292  238  -4.5  81    -7.3  0     0     989.8    NA       0.0000   9999     2130  0     0    
2019/06/22  02:15:00  BASE  2.65188  256  3.087    253  -4.5  81    -7.2  0     0     989.8    NA       0.0000   9999     2130  0     0    
2019/06/22  02:16:00  BASE  2.68128  263  3.2046   261  -4.5  81    -7.2  0     0     989.8    NA       0.0000   9999     2170  0     0    
2019/06/22  02:17:00  BASE  2.88708  263  3.86904  257  -4.5  81    -7.2  0     0     989.8    NA       0.0000   9999     2130  0     0    
2019/06/22  02:18:00  BASE  2.98704  262  3.86904  257  -4.5  82    -7.1  0     0     989.8    NA       0.0000   9999     2030  0     0    
2019/06/22  02:19:00  BASE  2.84004  261  3.86904  257  -4.5  82    -7.1  0     0     989.8    NA       0.0000   9999     1940  0     0    
2019/06/22  02:20:00  BASE  2.55192  264  3.86904  257  -4.4  82    -7.1  0     0     989.9    NA       0.0000   9999     2070  0     0    
2019/06/22  02:21:00  BASE  2.205    264  3.86904  257  -4.4  81    -7.1  0     0     989.9    NA       0.0000   9999     2100  0     0    
2019/06/22  02:22:00  BASE  1.83456  275  3.86904  257  -4.4  81    -7.2  0     0     989.9    NA       0.0000   9999     2070  0     0    
2019/06/22  02:23:00  BASE  2.00508  289  3.86904  257  -4.4  81    -7.2  0     0     989.9    NA       0.0000   9999     2100  0     0    
2019/06/22  02:24:00  BASE  2.37552  294  3.86904  257  -4.4  81    -7.2  0     0     989.9    NA       0.0000   9999     2030  0     0    
2019/06/22  02:25:00  BASE  2.6754   287  3.86904  257  -4.4  81    -7.2  0     0     989.9    NA       0.0000   9999     2100  0     0    
2019/06/22  02:26:00  BASE  3.1164   263  3.86904  257  -4.4  81    -7.1  0     0     989.9    NA       0.0000   9999     2170  0     0    
2019/06/22  02:27:00  BASE  3.50448  254  4.78044  260  -4.4  81    -7.1  0     0     989.9    NA       0.0000   9999     2030  0     0    
2019/06/22  02:28:00  BASE  3.71616  257  5.02152  254  -4.3  81    -7.1  0     0     989.8    NA       0.0000   9999     2100  0     0    
2019/06/22  02:29:00  BASE  4.40412  257  6.59148  255  -4.3  81    -7.0  0     0     989.8    NA       0.0000   9999     2100  0     0    
2019/06/22  02:30:00  BASE  5.46252  259  6.65616  260  -4.3  82    -7.0  0     0     989.8    NA       0.0000   9999     2170  0     0    
2019/06/22  02:31:00  BASE  5.15676  263  6.65616  260  -4.3  82    -7.0  0     0     989.8    NA       0.0000   9999     2030  0     0    
2019/06/22  02:32:00  BASE  3.95724  267  6.65616  260  -4.4  82    -6.9  0     0     989.8    NA       0.0000   9999     2070  0     0    
2019/06/22  02:33:00  BASE  3.74556  264  6.65616  260  -4.4  83    -6.9  0     0     989.8    NA       0.0000   9999     2070  0     0    
2019/06/22  02:34:00  BASE  4.41588  253  6.65616  260  -4.4  83    -6.9  0     0     989.8    NA       0.0000   9999     2130  0     0    
2019/06/22  02:35:00  BASE  4.74516  245  6.65616  260  -4.4  83    -6.9  0     0     989.8    NA       0.0000   9999     2070  0     0    
2019/06/22  02:36:00  BASE  5.03328  245  6.65616  260  -4.4  83    -6.9  0     0     989.8    NA       0.0000   9999     2030  0     0    
2019/06/22  02:37:00  BASE  5.13324  248  6.65616  260  -4.5  83    -6.9  0     0     989.9    NA       0.0000   9999     1940  0     0    
2019/06/22  02:38:00  BASE  4.2042   254  6.65616  260  -4.5  83    -7.0  0     0     989.9    NA       0.0000   9999     1940  0     0    
2019/06/22  02:39:00  BASE  3.18108  258  6.65616  260  -4.5  82    -7.0  0     0     989.9    NA       0.0000   9999     2000  0     0    
2019/06/22  02:40:00  BASE  3.44568  249  6.05052  255  -4.5  82    -7.1  0     0     989.9    NA       0.0000   9999     2130  0     0    
2019/06/22  02:41:00  BASE  4.0572   237  6.05052  255  -4.5  82    -7.1  0     0     989.9    NA       0.0000   9999     2230  0     0    
2019/06/22  02:42:00  BASE  3.4692   243  6.05052  255  -4.5  82    -7.2  0     0     989.9    NA       0.0000   9999     2030  0     0    
2019/06/22  02:43:00  BASE  2.75184  250  6.05052  255  -4.5  81    -7.2  0     0     989.9    NA       0.0000   9999     2230  0     0    
2019/06/22  02:44:00  BASE  3.21636  247  6.05052  255  -4.5  81    -7.2  0     0     989.9    NA       0.0000   9999     2300  0     0    
2019/06/22  02:45:00  BASE  3.78672  250  6.05052  255  -4.5  81    -7.3  0     0     989.9    NA       0.0000   9999     2400  0     0    
2019/06/22  02:46:00  BASE  3.71028  259  5.68596  247  -4.5  80    -7.3  0     0     989.9    NA       0.0000   9999     2170  0     0    
2019/06/22  02:47:00  BASE  3.62796  271  5.08032  235  -4.5  80    -7.4  0     0     989.9    NA       0.0000   9999     2260  0     0    
2019/06/22  02:48:00  BASE  3.25752  272  5.08032  235  -4.5  80    -7.4  0     0     990.0    NA       0.0000   9999     2170  0     0    
2019/06/22  02:49:00  BASE  2.94588  273  5.08032  235  -4.5  80    -7.4  0     0     990.0    NA       0.0000   9999     2230  0     0    
2019/06/22  02:50:00  BASE  3.37512  270  5.08032  235  -4.5  80    -7.4  0     0     990.0    NA       0.0000   9999     2230  0     0    
2019/06/22  02:51:00  BASE  3.68088  259  4.44528  274  -4.5  80    -7.4  0     0     990.0    NA       0.0000   9999     2230  0     0    
2019/06/22  02:52:00  BASE  3.5868   254  5.02152  241  -4.4  80    -7.4  0     0     990.0    NA       0.0000   9999     2200  0     0    
2019/06/22  02:53:00  BASE  3.98076  248  5.02152  241  -4.4  80    -7.4  0     0     989.9    NA       0.0000   9999     2200  0     0    
2019/06/22  02:54:00  BASE  4.27476  240  5.02152  241  -4.4  80    -7.4  0     0     989.9    NA       0.0000   9999     2130  0     0    
2019/06/22  02:55:00  BASE  3.79848  232  5.02152  241  -4.4  80    -7.3  0     0     990.0    NA       0.0000   9999     2170  0     0    
2019/06/22  02:56:00  BASE  3.25164  224  5.02152  241  -4.4  80    -7.3  0     0     990.0    NA       0.0000   9999     2100  0     0    
2019/06/22  02:57:00  BASE  2.98704  220  5.02152  241  -4.4  81    -7.3  0     0     990.0    NA       0.0000   9999     2070  0     0    
2019/06/22  02:58:00  BASE  2.9988   226  5.02152  241  -4.4  81    -7.2  0     0     990.0    NA       0.0000   9999     2100  0     0    
2019/06/22  02:59:00  BASE  3.3222   240  5.02152  241  -4.4  81    -7.2  0     0     990.0    NA       0.0000   9999     2030  0     0    
2019/06/22  03:00:00  BASE  3.72792  250  5.02152  241  -4.4  81    -7.1  0     0     990.0    NA       0.0000   9999     2030  0     0    
2019/06/22  03:01:00  BASE  3.98664  251  5.02152  241  -4.4  81    -7.1  0     0     990.0    NA       0.0000   9999     2100  0     0    
2019/06/22  03:02:00  BASE  4.41     247  5.2626   235  -4.4  81    -7.1  0     0     990.0    NA       0.0000   9999     2130  0     0    
2019/06/22  03:03:00  BASE  4.42764  241  5.2626   235  -4.4  82    -7.1  0     0     990.0    NA       0.0000   9999     2130  0     0    
2019/06/22  03:04:00  BASE  4.18068  244  5.2626   235  -4.5  82    -7.1  0     0     990.1    NA       0.0000   9999     2130  0     0    
2019/06/22  03:05:00  BASE  4.15716  248  5.2626   235  -4.5  82    -7.1  0     0     990.1    NA       0.0000   9999     2100  0     0    
2019/06/22  03:06:00  BASE  4.2042   242  5.2626   235  -4.5  82    -7.1  0     0     990.0    NA       0.0000   9999     2170  0     0    
2019/06/22  03:07:00  BASE  4.93332  240  5.92704  247  -4.5  82    -7.1  0     0     990.0    NA       0.0000   9999     2130  0     0    
2019/06/22  03:08:00  BASE  5.10972  246  5.92704  247  -4.5  82    -7.1  0     0     990.1    NA       0.0000   9999     2130  0     0    
2019/06/22  03:09:00  BASE  4.95096  248  6.13872  248  -4.6  82    -7.2  0     0     990.0    NA       0.0000   9999     2130  0     0    
2019/06/22  03:10:00  BASE  5.00388  243  6.13872  248  -4.6  82    -7.2  0     0     990.1    NA       0.0000   9999     2170  0     0    
2019/06/22  03:11:00  BASE  4.3806   238  6.13872  248  -4.6  82    -7.1  0     0     990.1    NA       0.0000   9999     2200  0     0    
2019/06/22  03:12:00  BASE  4.58052  237  6.13872  248  -4.6  82    -7.1  0     0     990.1    NA       0.0000   9999     2200  0     0    
2019/06/22  03:13:00  BASE  5.38608  242  6.13872  248  -4.6  83    -7.1  0     0     990.1    NA       0.0000   9999     2200  0     0    
2019/06/22  03:14:00  BASE  5.78592  242  6.2622   235  -4.6  83    -7.1  0     0     990.1    NA       0.0000   9999     2330  0     0    
2019/06/22  03:15:00  BASE  5.68596  242  6.2622   235  -4.6  83    -7.0  0     0     990.1    NA       0.0000   9999     2330  0     0    
2019/06/22  03:16:00  BASE  5.36256  242  6.2622   235  -4.6  83    -7.0  0     0     990.1    NA       0.0000   9999     2170  0     0    
2019/06/22  03:17:00  BASE  5.04504  240  6.2622   235  -4.6  83    -7.1  0     0     990.1    NA       0.0000   9999     2490  0     0    
2019/06/22  03:18:00  BASE  5.2626   240  6.2622   237  -4.6  83    -7.1  0     0     990.1    NA       0.0000   9999     2260  2820  0    
2019/06/22  03:19:00  BASE  5.48604  236  6.2622   237  -4.6  83    -7.1  0     0     990.2    NA       0.0000   9999     2330  0     0    
2019/06/22  03:20:00  BASE  5.03916  233  6.2622   237  -4.7  83    -7.1  0     0     990.2    NA       0.0000   9999     2170  0     0    
2019/06/22  03:21:00  BASE  4.72752  233  6.2622   237  -4.7  83    -7.1  0     0     990.2    NA       0.0000   9999     2300  0     0    
2019/06/22  03:22:00  BASE  5.09796  233  6.2622   238  -4.7  83    -7.1  0     0     990.2    NA       0.0000   9999     2130  0     0    
2019/06/22  03:23:00  BASE  5.292    236  6.2622   238  -4.7  83    -7.2  0     0     990.2    NA       0.0000   9999     2430  0     0    
2019/06/22  03:24:00  BASE  5.19204  241  6.2622   238  -4.7  82    -7.2  0     0     990.2    NA       0.0000   9999     2490  0     0    
2019/06/22  03:25:00  BASE  5.23908  240  6.2622   238  -4.7  82    -7.3  0     0     990.2    NA       0.0000   9999     2430  0     0    
2019/06/22  03:26:00  BASE  5.4978   236  6.321    229  -4.7  82    -7.3  0     0     990.1    NA       0.0000   9999     2400  0     0    
2019/06/22  03:27:00  BASE  5.65656  235  6.321    234  -4.7  82    -7.4  0     0     990.2    NA       0.0000   9999     2330  0     0    
2019/06/22  03:28:00  BASE  5.48604  240  6.321    234  -4.8  82    -7.4  0     0     990.2    NA       0.0000   9999     2260  0     0    
2019/06/22  03:29:00  BASE  5.37432  243  6.321    234  -4.8  81    -7.5  0     0     990.2    NA       0.0000   9999     2300  0     0    
2019/06/22  03:30:00  BASE  4.59816  243  6.321    234  -4.8  81    -7.5  0     0     990.3    NA       0.0000   9999     2330  0     0    
2019/06/22  03:31:00  BASE  4.3512   245  6.321    234  -4.8  81    -7.6  0     0     990.2    NA       0.0000   9999     2330  0     0    
2019/06/22  03:32:00  BASE  5.2038   245  6.321    234  -4.8  81    -7.7  0     0     990.2    NA       0.0000   9999     2460  0     0    
2019/06/22  03:33:00  BASE  5.25672  245  6.321    234  -4.9  80    -7.7  0     0     990.2    NA       0.0000   9999     2430  0     0    
2019/06/22  03:34:00  BASE  4.6158   244  6.321    234  -4.9  80    -7.8  0     0     990.2    NA       0.0000   9999     2430  0     0    
2019/06/22  03:35:00  BASE  4.24536  239  6.321    234  -4.9  80    -7.8  0     0     990.3    NA       0.0000   9999     2690  0     0    
2019/06/22  03:36:00  BASE  4.02192  237  6.321    234  -4.9  80    -7.9  0     0     990.3    NA       0.0000   9999     2400  0     0    
2019/06/22  03:37:00  BASE  3.31632  239  6.02112  245  -4.9  79    -7.9  0     0     990.3    NA       0.0000   9999     2460  0     0    
2019/06/22  03:38:00  BASE  3.09288  239  6.02112  245  -4.9  79    -8.0  0     0     990.3    NA       0.0000   9999     2590  0     0    
2019/06/22  03:39:00  BASE  3.79848  236  6.02112  245  -4.9  79    -8.0  0     0     990.3    NA       0.0000   9999     2560  0     0    
2019/06/22  03:40:00  BASE  3.62796  239  6.02112  245  -4.9  79    -8.0  0     0     990.3    NA       0.0000   9999     2430  0     0    
2019/06/22  03:41:00  BASE  2.71068  242  6.02112  245  -4.9  78    -8.1  0     0     990.3    NA       0.0000   9999     2300  0     0    
2019/06/22  03:42:00  BASE  1.9404   239  5.68596  242  -4.9  78    -8.1  0     0     990.3    NA       0.0000   9999     2230  0     0    
2019/06/22  03:43:00  BASE  1.71108  238  5.02152  237  -4.9  78    -8.2  0     0     990.3    NA       0.0000   9999     2430  0     0    
2019/06/22  03:44:00  BASE  2.12268  234  5.02152  237  -4.9  78    -8.2  0     0     990.3    NA       0.0000   9999     2530  0     0    
2019/06/22  03:45:00  BASE  2.31084  227  5.02152  237  -4.9  77    -8.2  0     0     990.3    NA       0.0000   9999     2490  0     0    
2019/06/22  03:46:00  BASE  3.02232  232  5.02152  237  -4.9  77    -8.2  0     0     990.3    NA       0.0000   9999     2460  0     0    
2019/06/22  03:47:00  BASE  3.6162   243  5.02152  237  -4.8  77    -8.2  0     0     990.3    NA       0.0000   9999     2360  0     0    
2019/06/22  03:48:00  BASE  3.3516   245  5.02152  237  -4.8  77    -8.2  0     0     990.3    NA       0.0000   9999     2430  0     0    
2019/06/22  03:49:00  BASE  3.78672  235  4.80984  233  -4.8  77    -8.2  0     0     990.3    NA       0.0000   9999     2460  0     0    
2019/06/22  03:50:00  BASE  3.92196  231  4.80984  233  -4.8  78    -8.1  0     0     990.3    NA       0.0000   9999     2590  0     0    
2019/06/22  03:51:00  BASE  3.72204  229  4.80984  233  -4.9  78    -8.1  0     0     990.3    NA       0.0000   9999     2460  0     0    
2019/06/22  03:52:00  BASE  3.7926   230  4.80984  233  -4.9  79    -8.0  0     0     990.4    NA       0.0000   9999     2460  0     0    
2019/06/22  03:53:00  BASE  3.78672  234  4.80984  233  -4.9  79    -7.9  0     0     990.4    NA       0.0000   9999     2460  0     0    
2019/06/22  03:54:00  BASE  3.68676  225  4.80984  233  -4.9  80    -7.8  0     0     990.4    NA       0.0000   9999     2490  0     0    
2019/06/22  03:55:00  BASE  3.55152  220  4.80984  233  -4.9  80    -7.8  0     0     990.4    NA       0.0000   9999     2490  0     0    
2019/06/22  03:56:00  BASE  3.61032  224  4.80984  233  -4.9  80    -7.8  0     0     990.4    NA       0.0000   9999     2530  0     0    
2019/06/22  03:57:00  BASE  3.88668  225  4.96272  243  -4.9  80    -7.8  0     0     990.4    NA       0.0000   9999     2560  0     0    
2019/06/22  03:58:00  BASE  4.2336   234  4.96272  243  -4.8  80    -7.8  0     0     990.4    NA       0.0000   9999     2720  0     0    
2019/06/22  03:59:00  BASE  4.1748   237  4.96272  243  -4.8  80    -7.7  0     0     990.4    NA       0.0000   9999     2690  0     0    
2019/06/22  04:00:00  BASE  3.9102   234  4.96272  243  -4.8  80    -7.8  0     0     990.4    NA       0.0000   9999     2690  0     0    
2019/06/22  04:01:00  BASE  3.90432  242  4.96272  243  -4.8  80    -7.8  0     0     990.4    NA       0.0000   9999     2560  0     0    
2019/06/22  04:02:00  BASE  4.4982   253  5.53308  257  -4.9  80    -7.8  0     0     990.4    NA       0.0000   9999     2760  0     0    
2019/06/22  04:03:00  BASE  4.89804  255  5.53308  257  -4.9  80    -7.9  0     0     990.4    NA       0.0000   9999     0     0     0    
2019/06/22  04:04:00  BASE  4.63932  252  5.53308  257  -4.9  80    -7.9  0     0     990.4    NA       0.0000   9999     2490  0     0    
2019/06/22  04:06:00  BASE  4.116    250  5.53308  257  -4.9  79    -8.0  0     0     990.4    NA       0.0000   9999     2620  0     0    
2019/06/22  04:07:00  BASE  3.42804  247  5.53308  257  -5.0  79    -8.0  0     0     990.4    NA       0.0000   9999     2490  0     0    
2019/06/22  04:08:00  BASE  3.25164  247  5.53308  257  -5.0  79    -8.0  0     0     990.4    NA       0.0000   9999     2330  0     0    
2019/06/22  04:09:00  BASE  3.29868  252  5.53308  257  -4.9  79    -8.0  0     0     990.4    NA       0.0000   9999     2400  0     0    
2019/06/22  04:10:00  BASE  3.21636  264  5.53308  257  -4.9  79    -8.0  0     0     990.4    NA       0.0000   9999     2400  0     0    
2019/06/22  04:11:00  BASE  2.99292  270  5.53308  257  -4.9  79    -8.0  0     0     990.4    NA       0.0000   9999     2400  0     0    
2019/06/22  04:12:00  BASE  3.01644  269  5.35668  254  -4.8  78    -8.0  0     0     990.4    NA       0.0000   9999     2400  0     0    
2019/06/22  04:13:00  BASE  2.95176  267  5.35668  254  -4.8  78    -8.0  0     0     990.4    NA       0.0000   9999     2430  0     0    
2019/06/22  04:14:00  BASE  3.03408  273  5.35668  254  -4.8  78    -8.1  0     0     990.4    NA       0.0000   9999     2460  0     0    
2019/06/22  04:15:00  BASE  3.28692  281  4.32768  254  -4.8  78    -8.0  0     0     990.4    NA       0.0000   9999     2590  0     0    
2019/06/22  04:16:00  BASE  2.97528  273  4.32768  254  -4.8  78    -8.0  0     0     990.4    NA       0.0000   9999     2460  0     0    
2019/06/22  04:17:00  BASE  2.352    267  4.32768  254  -4.7  78    -8.0  0     0     990.4    NA       0.0000   9999     2460  0     0    
2019/06/22  04:18:00  BASE  2.0874   268  4.32768  254  -4.7  78    -8.0  0     0     990.4    NA       0.0000   9999     2460  0     0    
2019/06/22  04:19:00  BASE  2.76948  263  4.2042   254  -4.7  78    -8.0  0     0     990.4    NA       0.0000   9999     2490  0     0    
2019/06/22  04:20:00  BASE  2.95764  266  4.2042   254  -4.7  78    -8.0  0     0     990.4    NA       0.0000   9999     2330  0     0    
2019/06/22  04:21:00  BASE  2.39316  269  4.2042   254  -4.7  78    -8.0  0     0     990.4    NA       0.0000   9999     2300  0     0    
2019/06/22  04:22:00  BASE  2.499    257  4.2042   254  -4.7  78    -8.0  0     0     990.4    NA       0.0000   9999     2260  0     0    
2019/06/22  04:23:00  BASE  2.793    247  4.2042   254  -4.8  78    -8.0  0     0     990.4    NA       0.0000   9999     2170  0     0    
2019/06/22  04:24:00  BASE  2.65776  239  4.2042   254  -4.8  78    -8.1  0     0     990.4    NA       0.0000   9999     2230  0     0    
2019/06/22  04:25:00  BASE  2.12268  229  4.2042   254  -4.8  78    -8.1  0     0     990.4    NA       0.0000   9999     2260  0     0    
2019/06/22  04:26:00  BASE  1.5582   227  4.2042   254  -4.8  78    -8.1  0     0     990.4    NA       0.0000   9999     3120  0     0    
2019/06/22  04:27:00  BASE  2.54604  238  4.78044  236  -4.8  78    -8.1  0     0     990.4    NA       0.0000   9999     2720  0     0    
2019/06/22  04:28:00  BASE  3.56916  241  4.78044  236  -4.8  78    -8.1  0     0     990.4    NA       0.0000   9999     2460  0     0    
2019/06/22  04:29:00  BASE  2.90472  237  4.78044  236  -4.8  77    -8.1  0     0     990.4    NA       0.0000   9999     2230  0     0    
2019/06/22  04:30:00  BASE  2.53428  237  4.78044  236  -4.7  77    -8.1  0     0     990.4    NA       0.0000   9999     2130  0     0    
2019/06/22  04:31:00  BASE  3.48096  242  5.08032  243  -4.8  77    -8.2  0     0     990.4    NA       0.0000   9999     2230  0     0    
2019/06/22  04:32:00  BASE  4.36884  249  5.3214   250  -4.8  77    -8.2  0     0     990.4    NA       0.0000   9999     2230  0     0    
2019/06/22  04:33:00  BASE  4.851    249  5.53308  246  -4.8  77    -8.2  0     0     990.4    NA       0.0000   9999     2330  0     0    
2019/06/22  04:34:00  BASE  4.8804   243  5.53308  246  -4.7  77    -8.2  0     0     990.4    NA       0.0000   9999     2200  0     0    
2019/06/22  04:35:00  BASE  4.23948  243  5.53308  246  -4.7  77    -8.1  0     0     990.4    NA       0.0000   9999     2200  0     0    
2019/06/22  04:36:00  BASE  3.79848  246  5.53308  246  -4.7  77    -8.1  0     0     990.4    NA       0.0000   9999     2300  0     0    
2019/06/22  04:37:00  BASE  3.2928   247  5.53308  246  -4.7  78    -8.1  0     0     990.4    NA       0.0000   9999     2460  0     0    
2019/06/22  04:38:00  BASE  2.84592  248  5.53308  246  -4.7  78    -8.0  0     0     990.4    NA       0.0000   9999     2490  0     0    
2019/06/22  04:39:00  BASE  2.69304  246  5.53308  246  -4.8  78    -8.0  0     0     990.4    NA       0.0000   9999     2400  0     0    
2019/06/22  04:40:00  BASE  2.93412  247  5.53308  246  -4.8  78    -8.0  0     0     990.4    NA       0.0000   9999     2330  0     0    
2019/06/22  04:41:00  BASE  3.39864  252  5.53308  246  -4.8  78    -8.0  0     0     990.4    NA       0.0000   9999     2300  0     0    
2019/06/22  04:42:00  BASE  3.48684  260  5.53308  246  -4.7  78    -8.0  0     0     990.4    NA       0.0000   9999     2460  0     0    
2019/06/22  04:43:00  BASE  3.528    268  5.2038   234  -4.7  78    -8.0  0     0     990.4    NA       0.0000   9999     2430  0     0    
2019/06/22  04:44:00  BASE  3.73968  264  5.44488  256  -4.7  78    -8.0  0     0     990.4    NA       0.0000   9999     2490  0     0    
2019/06/22  04:45:00  BASE  4.69224  259  6.2916   253  -4.6  78    -7.9  0     0     990.4    NA       0.0000   9999     2430  0     0    
2019/06/22  04:46:00  BASE  5.35668  260  6.53268  257  -4.6  77    -7.9  0     0     990.4    NA       0.0000   9999     2430  0     0    
2019/06/22  04:47:00  BASE  4.89804  258  6.53268  257  -4.6  77    -8.0  0     0     990.4    NA       0.0000   9999     2430  0     0    
2019/06/22  04:48:00  BASE  4.09248  261  6.53268  257  -4.6  77    -8.0  0     0     990.5    NA       0.0000   9999     2460  0     0    
2019/06/22  04:49:00  BASE  3.37512  262  6.53268  257  -4.6  77    -8.0  0     0     990.5    NA       0.0000   9999     2400  0     0    
2019/06/22  04:50:00  BASE  3.50448  259  6.53268  257  -4.6  77    -8.0  0     0     990.5    NA       0.0000   9999     2360  0     0    
2019/06/22  04:51:00  BASE  3.49272  261  6.53268  257  -4.6  77    -8.0  0     0     990.5    NA       0.0000   9999     2360  0     0    
2019/06/22  04:52:00  BASE  3.09288  271  6.53268  257  -4.6  77    -8.0  0     0     990.5    NA       0.0000   9999     2400  0     0    
2019/06/22  04:53:00  BASE  3.25752  272  6.53268  257  -4.6  77    -8.1  0     0     990.5    NA       0.0000   9999     2400  0     0    
2019/06/22  04:54:00  BASE  4.11012  260  6.53268  257  -4.6  77    -8.1  0     0     990.5    NA       0.0000   9999     2430  0     0    
2019/06/22  04:55:00  BASE  4.25712  254  6.53268  257  -4.6  76    -8.1  0     0     990.5    NA       0.0000   9999     2430  0     0    
2019/06/22  04:56:00  BASE  3.8514   256  5.47428  255  -4.6  76    -8.2  0     0     990.5    NA       0.0000   9999     2430  0     0    
2019/06/22  04:57:00  BASE  3.33984  258  5.47428  255  -4.7  76    -8.3  0     0     990.5    NA       0.0000   9999     2460  0     0    
2019/06/22  04:58:00  BASE  2.98704  249  5.47428  255  -4.7  75    -8.4  0     0     990.5    NA       0.0000   9999     2530  0     0    
2019/06/22  04:59:01  BASE  3.18696  241  5.47428  255  -4.7  75    -8.4  0     0     990.5    NA       0.0000   9999     2360  0     0    
2019/06/22  05:00:01  BASE  3.37512  250  5.47428  255  -4.7  75    -8.5  0     0     990.5    NA       0.0000   9999     2400  0     0    
2019/06/22  05:01:01  BASE  3.7926   259  5.47428  255  -4.7  74    -8.5  0     0     990.6    NA       0.0000   9999     2590  0     0    
2019/06/22  05:02:01  BASE  3.71616  264  5.47428  255  -4.7  74    -8.6  0     0     990.6    NA       0.0000   9999     2560  0     0    
2019/06/22  05:03:01  BASE  3.1164   269  5.47428  255  -4.7  74    -8.6  0     0     990.6    NA       0.0000   9999     2530  0     0    
2019/06/22  05:04:01  BASE  2.40492  276  5.1744   265  -4.7  74    -8.6  0     0     990.7    NA       0.0000   9999     2660  0     0    
2019/06/22  05:05:01  BASE  1.59348  275  5.1744   265  -4.6  74    -8.6  0     0     990.6    NA       0.0000   9999     2530  0     0    
2019/06/22  05:06:01  BASE  1.00548  266  5.1744   265  -4.6  73    -8.7  0     0     990.6    NA       0.0000   9999     2530  0     0    
2019/06/22  05:07:01  BASE  0.40572  259  5.1744   265  -4.6  73    -8.7  0     0     990.6    NA       0.0000   9999     2460  0     0    
2019/06/22  05:08:01  BASE  0        250  5.1744   265  -4.6  73    -8.8  0     0     990.5    NA       0.0000   9999     2530  0     0    
2019/06/22  05:09:01  BASE  0.0882   246  5.1744   265  -4.6  73    -8.8  0     0     990.6    NA       0.0000   9999     2590  0     0    
2019/06/22  05:10:01  BASE  0.27636  244  5.1744   265  -4.6  72    -8.8  0     0     990.6    NA       0.0000   9999     2490  0     0    
2019/06/22  05:11:01  BASE  0.75264  239  4.02192  271  -4.6  72    -8.8  0     0     990.6    NA       0.0000   9999     2560  0     0    
2019/06/22  05:12:01  BASE  1.176    241  4.02192  271  -4.7  72    -8.9  0     0     990.5    NA       0.0000   9999     2560  0     0    
2019/06/22  05:13:01  BASE  1.72284  239  2.54016  235  -4.7  73    -8.8  0     0     990.5    NA       0.0000   9999     2460  0     0    
2019/06/22  05:14:01  BASE  1.89924  236  2.54016  235  -4.7  73    -8.7  0     0     990.5    NA       0.0000   9999     0     0     0    
2019/06/22  05:15:01  BASE  1.56996  243  2.81064  237  -4.7  74    -8.7  0     0     990.5    NA       0.0000   9999     2490  0     0    
2019/06/22  05:16:01  BASE  2.25792  232  3.53976  224  -4.6  74    -8.6  0     0     990.5    NA       0.0000   9999     2430  0     0    
2019/06/22  05:17:01  BASE  2.8224   222  3.53976  224  -4.6  74    -8.6  0     0     990.5    NA       0.0000   9999     2490  0     0    
2019/06/22  05:18:01  BASE  2.41668  225  3.53976  224  -4.6  74    -8.5  0     0     990.5    NA       0.0000   9999     2530  0     0    
2019/06/22  05:19:01  BASE  1.93452  219  3.53976  224  -4.6  74    -8.6  0     0     990.5    NA       0.0000   9999     2690  0     0    
2019/06/22  05:20:01  BASE  1.59936  214  3.53976  224  -4.6  74    -8.6  0     0     990.5    NA       0.0000   9999     2590  0     0    
2019/06/22  05:21:01  BASE  1.40532  221  3.53976  224  -4.6  74    -8.6  0     0     990.5    NA       0.0000   9999     2590  0     0    
2019/06/22  05:22:01  BASE  1.39944  230  3.53976  224  -4.6  73    -8.6  0     0     990.5    NA       0.0000   9999     2560  0     0    
2019/06/22  05:23:01  BASE  1.76988  228  3.53976  224  -4.6  73    -8.6  0     0     990.5    NA       0.0000   9999     2490  0     0    
2019/06/22  05:24:01  BASE  2.69892  228  3.59856  221  -4.6  74    -8.6  0     0     990.5    NA       0.0000   9999     2430  0     0    
2019/06/22  05:25:01  BASE  3.1752   224  3.59856  221  -4.6  74    -8.5  0     0     990.5    NA       0.0000   9999     2430  0     0    
2019/06/22  05:26:01  BASE  3.24576  221  3.86904  222  -4.6  74    -8.5  0     0     990.6    NA       0.0000   9999     2430  0     0    
2019/06/22  05:27:01  BASE  3.44568  221  3.96312  221  -4.6  75    -8.4  0     0     990.6    NA       0.0000   9999     2400  0     0    
2019/06/22  05:28:01  BASE  3.13404  220  3.96312  221  -4.6  75    -8.4  0     0     990.6    NA       0.0000   9999     2360  2820  0    
2019/06/22  05:29:01  BASE  2.9988   220  3.96312  221  -4.5  75    -8.3  0     0     990.6    NA       0.0000   9999     2620  0     0    
2019/06/22  05:30:01  BASE  3.16932  216  3.96312  221  -4.5  75    -8.3  0     0     990.6    NA       0.0000   9999     2590  0     0    
2019/06/22  05:31:01  BASE  2.72244  207  3.96312  221  -4.5  75    -8.3  0     0     990.7    NA       0.0000   9999     2530  2920  0    
2019/06/22  05:32:01  BASE  2.66952  215  3.96312  221  -4.5  75    -8.3  0     0     990.6    NA       0.0000   9999     2460  0     0    
2019/06/22  05:33:01  BASE  3.03408  240  3.96312  221  -4.5  75    -8.3  0     0     990.7    NA       0.0000   9999     2430  0     0    
2019/06/22  05:34:01  BASE  2.90472  251  3.96312  221  -4.5  75    -8.4  0     0     990.7    NA       0.0000   9999     2660  0     0    
2019/06/22  05:35:01  BASE  2.56956  246  3.96312  221  -4.6  75    -8.4  0     0     990.7    NA       0.0000   9999     2660  0     0    
2019/06/22  05:36:01  BASE  2.2932   243  3.96312  221  -4.6  75    -8.3  0     0     990.7    NA       0.0000   9999     2530  3020  0    
2019/06/22  05:37:01  BASE  2.10504  249  3.78084  219  -4.6  76    -8.3  0     0     990.7    NA       0.0000   9999     2590  0     0    
2019/06/22  05:38:01  BASE  1.8816   261  3.78084  219  -4.7  76    -8.2  0     0     990.7    NA       0.0000   9999     2660  0     0    
2019/06/22  05:39:01  BASE  1.50528  272  3.62796  248  -4.7  77    -8.1  0     0     990.7    NA       0.0000   9999     2430  0     0    
2019/06/22  05:40:01  BASE  1.01724  271  3.62796  248  -4.7  77    -8.1  0     0     990.7    NA       0.0000   9999     2460  0     0    
2019/06/22  05:41:01  BASE  0.68208  253  3.62796  248  -4.7  77    -8.1  0     0     990.7    NA       0.0000   9999     2690  0     0    
2019/06/22  05:42:01  BASE  0.75264  242  3.41628  253  -4.7  76    -8.2  0     0     990.7    NA       0.0000   9999     2590  0     0    
2019/06/22  05:43:01  BASE  1.19364  244  3.2046   251  -4.6  76    -8.2  0     0     990.7    NA       0.0000   9999     2560  0     0    
2019/06/22  05:44:01  BASE  1.30536  241  2.56956  242  -4.6  76    -8.2  0     0     990.7    NA       0.0000   9999     2560  0     0    
2019/06/22  05:45:01  BASE  1.35828  235  2.78124  229  -4.6  76    -8.2  0     0     990.7    NA       0.0000   9999     2560  0     0    
2019/06/22  05:46:01  BASE  2.058    231  2.78124  229  -4.6  76    -8.2  0     0     990.7    NA       0.0000   9999     2560  0     0    
2019/06/22  05:47:01  BASE  2.38728  219  2.78124  229  -4.5  75    -8.2  0     0     990.7    NA       0.0000   9999     2560  0     0    
2019/06/22  05:48:01  BASE  1.99332  214  2.78124  229  -4.5  75    -8.2  0     0     990.7    NA       0.0000   9999     2490  0     0    
2019/06/22  05:49:01  BASE  1.51704  222  2.78124  229  -4.5  75    -8.3  0     0     990.7    NA       0.0000   9999     2530  0     0    
2019/06/22  05:50:01  BASE  1.1466   222  2.78124  229  -4.5  75    -8.3  0     0     990.7    NA       0.0000   9999     2530  0     0    
2019/06/22  05:51:01  BASE  0.69972  221  2.78124  229  -4.5  75    -8.3  0     0     990.7    NA       0.0000   9999     2530  0     0    
2019/06/22  05:52:01  BASE  0.38808  218  2.78124  229  -4.5  75    -8.3  0     0     990.7    NA       0.0000   9999     2560  0     0    
2019/06/22  05:53:01  BASE  0.2058   246  2.78124  229  -4.5  75    -8.3  0     0     990.7    NA       0.0000   9999     2560  0     0    
2019/06/22  05:54:01  BASE  0.06468  277  2.78124  229  -4.5  74    -8.4  0     0     990.7    NA       0.0000   9999     2430  0     0    
2019/06/22  05:55:01  BASE  0.44688  258  2.75184  222  -4.6  74    -8.5  0     0     990.7    NA       0.0000   9999     2430  0     0    
2019/06/22  05:56:01  BASE  1.11132  226  2.42256  216  -4.6  74    -8.5  0     0     990.7    NA       0.0000   9999     2430  0     0    
2019/06/22  05:57:01  BASE  1.9404   206  2.54016  206  -4.6  74    -8.5  0     0     990.7    NA       0.0000   9999     2430  0     0    
2019/06/22  05:58:01  BASE  2.42844  211  2.87532  217  -4.6  74    -8.4  0     0     990.7    NA       0.0000   9999     2430  0     0    
2019/06/22  05:59:01  BASE  2.31084  214  2.87532  217  -4.6  75    -8.4  0     0     990.7    NA       0.0000   9999     2530  0     0    
2019/06/22  06:00:01  BASE  2.12268  215  2.87532  217  -4.5  75    -8.3  0     0     990.7    NA       0.0000   9999     2430  0     0    
2019/06/22  06:01:01  BASE  1.95216  222  2.87532  217  -4.5  75    -8.2  0     0     990.7    NA       0.0000   9999     2560  0     0    
2019/06/22  06:02:01  BASE  1.74636  230  2.87532  217  -4.4  75    -8.2  0     0     990.7    NA       0.0000   9999     2530  0     0    
2019/06/22  06:03:01  BASE  1.51704  234  2.87532  217  -4.4  75    -8.3  0     0     990.7    NA       0.0000   9999     2490  0     0    
2019/06/22  06:04:01  BASE  1.40532  240  2.87532  217  -4.4  74    -8.3  0     0     990.7    NA       0.0000   9999     2460  0     0    
2019/06/22  06:05:01  BASE  1.69344  248  2.87532  217  -4.4  74    -8.3  0     0     990.7    NA       0.0000   9999     2460  0     0    
2019/06/22  06:06:01  BASE  1.764    247  2.87532  217  -4.4  74    -8.3  0     0     990.7    NA       0.0000   9999     2490  0     0    
2019/06/22  06:07:01  BASE  1.39944  244  2.87532  217  -4.4  74    -8.3  0     0     990.8    NA       0.0000   9999     2560  0     0    
2019/06/22  06:08:01  BASE  1.47     249  2.56956  216  -4.4  74    -8.3  0     0     990.8    NA       0.0000   9999     2690  0     0    
2019/06/22  06:09:01  BASE  1.84632  251  2.29908  218  -4.4  75    -8.3  0     0     990.8    NA       0.0000   9999     2560  0     0    
2019/06/22  06:10:01  BASE  2.03448  250  2.84592  262  -4.4  75    -8.2  0     0     990.7    NA       0.0000   9999     2530  0     0    
2019/06/22  06:11:01  BASE  2.06388  249  2.84592  262  -4.5  75    -8.2  0     0     990.7    NA       0.0000   9999     2400  0     0    
2019/06/22  06:12:01  BASE  2.5578   239  4.29828  252  -4.5  75    -8.2  0     0     990.7    NA       0.0000   9999     2400  0     0    
2019/06/22  06:13:01  BASE  3.16932  216  4.29828  252  -4.5  76    -8.2  0     0     990.7    NA       0.0000   9999     2400  0     0    
2019/06/22  06:14:01  BASE  3.39864  206  4.29828  252  -4.5  76    -8.1  0     0     990.7    NA       0.0000   9999     2400  0     0    
2019/06/22  06:15:01  BASE  3.39276  208  4.29828  252  -4.5  77    -8.0  0     0     990.8    NA       0.0000   9999     2360  0     0    
2019/06/22  06:16:01  BASE  3.1752   203  4.29828  252  -4.5  77    -8.0  0     0     990.8    NA       0.0000   9999     2360  0     0    
2019/06/22  06:17:00  BASE  2.98116  202  4.29828  252  -4.5  77    -7.9  0     0     990.8    NA       0.0000   9999     2360  0     0    
2019/06/22  06:18:00  BASE  2.6166   199  4.29828  252  -4.5  77    -7.9  0     0     990.8    NA       0.0000   9999     2330  0     0    
2019/06/22  06:19:00  BASE  2.43432  196  4.29828  252  -4.5  77    -7.9  0     0     990.8    NA       0.0000   9999     2360  0     0    
2019/06/22  06:20:00  BASE  2.49312  196  4.29828  252  -4.5  77    -7.9  0     0     990.8    NA       0.0000   9999     2430  0     0    
2019/06/22  06:21:00  BASE  2.68128  196  4.29828  252  -4.5  77    -7.9  0     0     990.8    NA       0.0000   9999     2330  0     0    
2019/06/22  06:22:00  BASE  2.88708  200  3.99252  207  -4.5  77    -7.9  0     0     990.8    NA       0.0000   9999     2300  0     0    
2019/06/22  06:23:00  BASE  2.72244  209  3.99252  207  -4.5  77    -7.9  0     0     990.8    NA       0.0000   9999     2360  0     0    
2019/06/22  06:24:00  BASE  2.46372  213  3.69264  204  -4.5  77    -7.9  0     0     990.8    NA       0.0000   9999     2360  0     0    
2019/06/22  06:25:00  BASE  2.54604  217  3.48096  190  -4.5  77    -7.9  0     0     990.8    NA       0.0000   9999     2260  0     0    
2019/06/22  06:26:00  BASE  2.46372  228  3.2046   193  -4.5  77    -7.9  0     0     990.8    NA       0.0000   9999     2260  0     0    
2019/06/22  06:27:00  BASE  1.8522   235  3.2046   193  -4.5  77    -7.9  0     0     990.8    NA       0.0000   9999     2300  0     0    
2019/06/22  06:28:00  BASE  1.6758   218  3.2046   193  -4.5  77    -7.9  0     0     990.8    NA       0.0000   9999     2300  0     0    
2019/06/22  06:29:00  BASE  1.764    192  3.2046   193  -4.5  77    -7.9  0     0     990.8    NA       0.0000   9999     2400  0     0    
2019/06/22  06:30:00  BASE  1.48764  192  3.2046   193  -4.5  77    -7.9  0     0     990.8    NA       0.0000   9999     2360  0     0    
2019/06/22  06:31:00  BASE  1.32888  211  3.2046   193  -4.5  77    -8.0  0     0     990.8    NA       0.0000   9999     2360  0     0    
2019/06/22  06:32:00  BASE  1.4406   217  2.96352  229  -4.5  77    -8.0  0     0     990.9    NA       0.0000   9999     2360  0     0    
2019/06/22  06:33:01  BASE  1.51704  208  2.96352  229  -4.5  77    -8.0  0     0     990.9    NA       0.0000   9999     2400  0     0    
2019/06/22  06:34:01  BASE  1.60524  209  2.96352  229  -4.5  77    -7.9  0     0     990.9    NA       0.0000   9999     2490  0     0    
2019/06/22  06:35:00  BASE  2.24028  219  3.48096  237  -4.5  77    -7.9  0     0     990.9    NA       0.0000   9999     2400  0     0    
2019/06/22  06:36:00  BASE  2.89296  236  3.48096  237  -4.5  77    -7.9  0     0     990.9    NA       0.0000   9999     2490  0     0    
2019/06/22  06:37:00  BASE  3.35748  245  4.08072  245  -4.5  77    -7.9  0     0     990.9    NA       0.0000   9999     2490  0     0    
2019/06/22  06:38:00  BASE  3.6456   246  4.08072  245  -4.5  77    -7.9  0     0     990.9    NA       0.0000   9999     2530  0     0    
2019/06/22  06:39:00  BASE  3.44568  246  4.08072  245  -4.6  77    -8.0  0     0     990.9    NA       0.0000   9999     2760  3310  0    
2019/06/22  06:40:00  BASE  3.06348  245  4.08072  245  -4.6  77    -8.0  0     0     990.9    NA       0.0000   9999     2590  0     0    
2019/06/22  06:41:00  BASE  2.63424  246  4.08072  245  -4.6  76    -8.1  0     0     990.9    NA       0.0000   9999     2690  0     0    
2019/06/22  06:42:00  BASE  2.24028  252  4.08072  245  -4.6  76    -8.2  0     0     991.0    NA       0.0000   9999     2720  0     0    
2019/06/22  06:43:00  BASE  2.0874   257  4.08072  245  -4.6  76    -8.3  0     0     991.0    NA       0.0000   9999     0     0     0    
2019/06/22  06:44:00  BASE  1.96392  261  4.08072  245  -4.6  75    -8.3  0     0     991.0    NA       0.0000   9999     3250  0     0    
2019/06/22  06:45:00  BASE  1.764    263  4.08072  245  -4.6  75    -8.3  0     0     991.0    NA       0.0000   9999     3080  0     0    
2019/06/22  06:46:00  BASE  2.10504  258  4.08072  245  -4.5  75    -8.3  0     0     991.0    NA       0.0000   9999     2820  0     0    
2019/06/22  06:47:00  BASE  2.39316  260  4.08072  245  -4.5  75    -8.4  0     0     991.0    NA       0.0000   9999     2690  0     0    
2019/06/22  06:48:00  BASE  2.37552  263  3.48096  247  -4.5  74    -8.4  0     0     991.0    NA       0.0000   9999     2590  0     0    
2019/06/22  06:49:00  BASE  2.39316  254  3.1458   243  -4.5  74    -8.4  0     0     991.0    NA       0.0000   9999     2560  0     0    
2019/06/22  06:50:00  BASE  2.5284   235  3.2046   215  -4.5  74    -8.5  0     0     991.0    NA       0.0000   9999     2560  0     0    
2019/06/22  06:51:00  BASE  2.55192  209  3.2046   215  -4.5  74    -8.4  0     0     991.0    NA       0.0000   9999     2530  0     0    
2019/06/22  06:52:00  BASE  3.1458   208  4.89804  223  -4.5  74    -8.4  0     0     990.9    NA       0.0000   9999     2490  0     0    
2019/06/22  06:53:00  BASE  3.53976  232  4.89804  223  -4.5  75    -8.4  0     0     990.9    NA       0.0000   9999     2490  0     0    
2019/06/22  06:54:00  BASE  3.25164  241  4.89804  223  -4.5  75    -8.3  0     0     990.9    NA       0.0000   9999     2430  0     0    
2019/06/22  06:55:00  BASE  3.6456   237  4.89804  223  -4.5  75    -8.3  0     0     990.9    NA       0.0000   9999     2430  0     0    
2019/06/22  06:56:00  BASE  4.01016  232  4.89804  223  -4.5  75    -8.3  0     0     990.9    NA       0.0000   9999     2460  0     0    
2019/06/22  06:57:00  BASE  4.35708  227  5.02152  229  -4.5  75    -8.3  0     0     990.9    NA       0.0000   9999     2460  0     0    
2019/06/22  06:58:00  BASE  4.56288  229  5.02152  229  -4.5  75    -8.3  0     0     990.9    NA       0.0000   9999     2430  0     0    
2019/06/22  06:59:00  BASE  3.98664  228  5.02152  229  -4.5  75    -8.3  0     0     990.9    NA       0.0000   9999     3250  0     0    
2019/06/22  07:00:00  BASE  3.3222   228  5.02152  229  -4.5  75    -8.3  0     0     991.0    NA       0.0000   9999     2690  0     0    
2019/06/22  07:01:00  BASE  3.23988  233  5.02152  229  -4.5  75    -8.3  0     0     991.0    NA       0.0000   9999     2660  0     0    
2019/06/22  07:02:00  BASE  3.50448  239  5.02152  229  -4.5  74    -8.4  0     0     991.0    NA       0.0000   9999     2620  0     0    
2019/06/22  07:03:00  BASE  3.9984   239  5.02152  229  -4.5  74    -8.4  0     0     990.9    NA       0.0000   9999     2620  0     0    
2019/06/22  07:04:00  BASE  4.31592  234  5.02152  229  -4.6  74    -8.4  0     0     991.0    NA       0.0000   9999     2620  0     0    
2019/06/22  07:05:00  BASE  3.89844  234  5.02152  229  -4.6  75    -8.4  0     0     991.0    NA       0.0000   9999     2620  0     0    
2019/06/22  07:06:00  BASE  3.48684  241  5.02152  229  -4.6  75    -8.5  0     0     991.0    NA       0.0000   9999     2490  0     0    
2019/06/22  07:07:00  BASE  3.09876  246  4.93332  243  -4.7  75    -8.5  0     0     991.0    NA       0.0000   9999     2690  0     0    
2019/06/22  07:08:00  BASE  2.7636   252  4.93332  243  -4.7  74    -8.5  0     0     991.0    NA       0.0000   9999     2560  0     0    
2019/06/22  07:09:00  BASE  2.69892  260  4.93332  243  -4.7  74    -8.6  0     0     991.0    NA       0.0000   9999     2430  0     0    
2019/06/22  07:10:00  BASE  2.59896  259  4.93332  243  -4.7  74    -8.7  0     0     991.0    NA       0.0000   9999     2460  0     0    
2019/06/22  07:11:00  BASE  2.34612  263  4.93332  243  -4.7  73    -8.7  0     0     991.0    NA       0.0000   9999     2490  0     0    
2019/06/22  07:12:00  BASE  2.04624  270  4.93332  243  -4.7  73    -8.7  0     0     991.0    NA       0.0000   9999     2560  0     0    
2019/06/22  07:13:00  BASE  1.7346   266  4.53936  233  -4.6  73    -8.8  0     0     991.0    NA       0.0000   9999     2590  0     0    
2019/06/22  07:14:00  BASE  1.5582   260  3.83964  231  -4.6  73    -8.8  0     0     991.0    NA       0.0000   9999     2560  0     0    
2019/06/22  07:15:00  BASE  1.68756  252  3.59856  244  -4.6  72    -8.8  0     0     991.0    NA       0.0000   9999     2530  0     0    
2019/06/22  07:16:00  BASE  2.3814   233  3.56916  218  -4.6  72    -8.9  0     0     991.0    NA       0.0000   9999     2560  0     0    
2019/06/22  07:17:00  BASE  3.06348  219  3.56916  218  -4.6  72    -8.9  0     0     991.0    NA       0.0000   9999     2490  0     0    
2019/06/22  07:18:00  BASE  3.12816  214  3.56916  213  -4.6  72    -8.8  0     0     991.0    NA       0.0000   9999     2490  0     0    
2019/06/22  07:19:00  BASE  2.90472  213  3.56916  213  -4.6  73    -8.7  0     0     991.0    NA       0.0000   9999     2530  0     0    
2019/06/22  07:20:00  BASE  2.63424  209  3.56916  213  -4.6  73    -8.7  0     0     991.0    NA       0.0000   9999     2530  0     0    
2019/06/22  07:21:00  BASE  2.48724  209  3.56916  213  -4.6  74    -8.6  0     0     991.0    NA       0.0000   9999     2430  0     0    
2019/06/22  07:22:00  BASE  2.499    209  3.56916  213  -4.6  74    -8.5  0     0     991.0    NA       0.0000   9999     2490  0     0    
2019/06/22  07:23:00  BASE  2.45784  208  3.56916  213  -4.6  74    -8.5  0     0     991.0    NA       0.0000   9999     2620  0     0    
2019/06/22  07:24:00  BASE  2.26968  220  3.56916  213  -4.6  74    -8.5  0     0     991.0    NA       0.0000   9999     0     0     0    
2019/06/22  07:25:00  BASE  2.49312  244  3.56916  213  -4.6  74    -8.5  0     0     991.0    NA       0.0000   9999     0     0     0    
2019/06/22  07:26:00  BASE  2.59896  256  3.56916  213  -4.7  74    -8.6  0     0     991.0    NA       0.0000   9999     0     0     0    
2019/06/22  07:27:00  BASE  2.15208  256  3.56916  213  -4.7  74    -8.6  0     0     991.0    NA       0.0000   9999     0     0     0    
2019/06/22  07:28:00  BASE  1.59348  249  3.087    215  -4.7  74    -8.7  0     0     991.0    NA       0.0000   9999     2490  0     0    
2019/06/22  07:29:00  BASE  1.176    241  2.93412  215  -4.8  74    -8.8  0     0     991.0    NA       0.0000   9999     2460  3640  0    
2019/06/22  07:30:00  BASE  0.84084  240  2.93412  215  -4.7  73    -8.8  0     0     991.0    NA       0.0000   9999     3580  0     0    
2019/06/22  07:31:00  BASE  0.3234   237  2.87532  244  -4.7  73    -8.9  0     0     991.0    NA       0.0000   9999     0     0     0    
2019/06/22  07:32:00  BASE  0.60564  230  2.87532  244  -4.7  72    -9.0  0     0     991.0    NA       0.0000   9999     0     0     0    
2019/06/22  07:33:00  BASE  1.6464   231  2.87532  244  -4.6  71    -9.0  0     0     991.0    NA       0.0000   9999     2590  0     0    
2019/06/22  07:34:00  BASE  2.19324  237  2.87532  244  -4.6  71    -9.1  0     0     991.0    NA       0.0000   9999     0     0     0    
2019/06/22  07:35:00  BASE  2.56956  236  3.32808  238  -4.7  70    -9.2  0     0     991.0    NA       0.0000   9999     2360  0     0    
2019/06/22  07:36:00  BASE  2.74008  233  3.32808  238  -4.7  71    -9.2  0     0     991.0    NA       0.0000   9999     0     0     0    
2019/06/22  07:37:00  BASE  2.59308  232  3.32808  238  -4.7  71    -9.2  0     0     991.0    NA       0.0000   9999     0     0     0    
2019/06/22  07:38:00  BASE  2.3226   238  3.32808  238  -4.8  71    -9.2  0     0     991.0    NA       0.0000   9999     0     0     0    
2019/06/22  07:39:00  BASE  2.03448  246  3.32808  238  -4.8  72    -9.1  0     0     991.0    NA       0.0000   9999     0     0     0    
2019/06/22  07:40:00  BASE  1.92276  252  3.32808  238  -4.8  72    -9.0  0     0     991.0    NA       0.0000   9999     0     0     0    
2019/06/22  07:41:00  BASE  1.8816   252  3.32808  238  -4.8  72    -9.0  0     0     991.0    NA       0.0000   9999     0     0     0    
2019/06/22  07:42:00  BASE  1.8816   250  3.32808  238  -4.8  72    -9.1  0     0     991.0    NA       0.0000   9999     2490  0     0    
2019/06/22  07:43:00  BASE  1.79928  243  3.32808  238  -4.8  72    -9.1  0     0     991.0    NA       0.0000   9999     0     0     0    
2019/06/22  07:44:00  BASE  1.56996  236  3.32808  238  -4.8  72    -9.1  0     0     991.0    NA       0.0000   9999     3610  0     0    
2019/06/22  07:45:00  BASE  1.31712  244  3.1752   231  -4.8  72    -9.1  0     0     991.1    NA       0.0000   9999     2490  0     0    
2019/06/22  07:46:00  BASE  1.25244  246  2.96352  231  -4.8  72    -9.1  0     0     991.1    NA       0.0000   9999     2430  3480  0    
2019/06/22  07:47:00  BASE  1.4112   243  2.42256  243  -4.8  72    -9.1  0     0     991.1    NA       0.0000   9999     2460  3510  0    
2019/06/22  07:48:00  BASE  1.84632  248  2.54016  244  -4.8  72    -9.1  0     0     991.2    NA       0.0000   9999     3450  0     0    
2019/06/22  07:49:00  BASE  2.30496  247  2.59896  246  -4.9  72    -9.1  0     0     991.1    NA       0.0000   9999     3410  0     0    
2019/06/22  07:50:00  BASE  2.46372  235  2.81064  219  -4.9  72    -9.1  0     0     991.2    NA       0.0000   9999     3380  0     0    
2019/06/22  07:51:00  BASE  2.68716  225  3.087    228  -5.0  73    -9.1  0     0     991.2    NA       0.0000   9999     3380  0     0    
2019/06/22  07:52:00  BASE  2.74008  218  3.087    228  -5.0  73    -9.0  0     0     991.2    NA       0.0000   9999     3510  0     0    
2019/06/22  07:53:00  BASE  2.25792  214  3.087    228  -4.9  74    -8.9  0     0     991.2    NA       0.0000   9999     3250  0     0    
2019/06/22  07:54:00  BASE  1.99332  220  3.087    228  -4.8  74    -8.8  0     0     991.2    NA       0.0000   9999     3250  3580  0    
2019/06/22  07:55:00  BASE  2.2638   234  3.087    228  -4.8  74    -8.7  0     0     991.2    NA       0.0000   9999     3510  0     0    
2019/06/22  07:56:00  BASE  2.28732  245  3.087    228  -4.8  74    -8.7  0     0     991.2    NA       0.0000   9999     3480  0     0    
2019/06/22  07:57:00  BASE  1.89336  245  3.087    228  -4.8  74    -8.8  0     0     991.2    NA       0.0000   9999     3450  0     0    
2019/06/22  07:58:00  BASE  1.48176  248  3.087    228  -4.8  74    -8.8  0     0     991.2    NA       0.0000   9999     3250  0     0    
2019/06/22  07:59:00  BASE  1.13484  254  3.087    228  -4.9  74    -8.9  0     0     991.2    NA       0.0000   9999     3220  0     0    
2019/06/22  08:00:00  BASE  1.09956  256  3.087    228  -4.8  74    -8.8  0     0     991.2    NA       0.0000   9999     3180  0     0    
2019/06/22  08:01:00  BASE  1.01136  267  3.02232  218  -4.8  73    -8.8  0     0     991.2    NA       0.0000   9999     3180  0     0    
2019/06/22  08:02:00  BASE  0.51156  280  2.87532  254  -4.7  73    -8.8  0     0     991.2    NA       0.0000   9999     3150  0     0    
2019/06/22  08:03:00  BASE  0.4704   276  2.87532  254  -4.7  73    -8.8  0     0     991.2    NA       0.0000   9999     3050  0     0    
2019/06/22  08:04:00  BASE  0.97608  256  2.87532  254  -4.7  73    -8.8  0     0     991.2    NA       0.0000   9999     2460  3080  0    
2019/06/22  08:05:00  BASE  1.30536  246  2.54016  251  -4.7  73    -8.8  0     0     991.2    NA       0.0000   9999     2720  3150  0    
2019/06/22  08:06:00  BASE  1.46412  246  1.90512  242  -4.7  73    -8.8  0     0     991.2    NA       0.0000   9999     2660  0     0    
2019/06/22  08:07:00  BASE  1.78164  245  2.21088  246  -4.7  73    -8.8  0     0     991.3    NA       0.0000   9999     2920  0     0    
2019/06/22  08:08:00  BASE  2.11092  244  2.35788  242  -4.8  74    -8.8  0     0     991.3    NA       0.0000   9999     2920  0     0    
2019/06/22  08:09:00  BASE  2.00508  240  2.35788  242  -4.9  74    -8.8  0     0     991.3    NA       0.0000   9999     2920  0     0    
2019/06/22  08:10:00  BASE  1.72284  243  2.35788  242  -4.9  74    -8.8  0     0     991.3    NA       0.0000   9999     2850  0     0    
2019/06/22  08:11:00  BASE  1.68756  250  2.35788  242  -4.9  74    -8.9  0     0     991.3    NA       0.0000   9999     2920  0     0    
2019/06/22  08:12:00  BASE  1.99332  249  2.42256  250  -4.9  74    -8.9  0     0     991.3    NA       0.0000   9999     2850  3670  0    
2019/06/22  08:13:00  BASE  2.0874   247  2.42256  250  -4.9  74    -8.8  0     0     991.3    NA       0.0000   9999     2790  3670  0    
2019/06/22  08:14:00  BASE  1.85808  243  2.42256  250  -4.9  74    -8.8  0     0     991.3    NA       0.0000   9999     2590  0     0    
2019/06/22  08:15:00  BASE  1.71108  234  2.42256  250  -4.9  74    -8.8  0     0     991.3    NA       0.0000   9999     2590  0     0    
2019/06/22  08:16:00  BASE  1.5876   236  2.42256  250  -4.9  74    -8.8  0     0     991.3    NA       0.0000   9999     2660  0     0    
2019/06/22  08:17:00  BASE  1.54056  242  2.42256  250  -4.9  74    -8.8  0     0     991.3    NA       0.0000   9999     2660  0     0    
2019/06/22  08:18:00  BASE  1.69344  244  2.42256  250  -4.9  74    -8.8  0     0     991.3    NA       0.0000   9999     2560  0     0    
2019/06/22  08:19:00  BASE  1.72872  244  2.42256  250  -4.9  74    -8.8  0     0     991.3    NA       0.0000   9999     2590  0     0    
2019/06/22  08:20:00  BASE  1.45236  245  2.42256  250  -4.8  74    -8.8  0     0     991.3    NA       0.0000   9999     2590  0     0    
2019/06/22  08:21:00  BASE  1.50528  245  2.42256  250  -4.8  74    -8.8  0     0     991.3    NA       0.0000   9999     2690  0     0    
2019/06/22  08:22:00  BASE  1.64052  229  2.35788  230  -4.8  74    -8.8  0     0     991.3    NA       0.0000   9999     2620  0     0    
2019/06/22  08:23:00  BASE  1.28772  198  2.35788  230  -4.8  73    -8.9  0     0     991.3    NA       0.0000   9999     2620  0     0    
2019/06/22  08:24:00  BASE  0.8232   195  2.35788  230  -4.9  73    -8.9  0     0     991.3    NA       0.0000   9999     2620  0     0    
2019/06/22  08:25:00  BASE  1.1466   221  2.35788  230  -4.9  74    -8.9  0     0     991.3    NA       0.0000   9999     2620  0     0    
2019/06/22  08:26:00  BASE  1.62288  237  2.35788  230  -5.0  74    -8.9  0     0     991.4    NA       0.0000   9999     2620  0     0    
2019/06/22  08:27:00  BASE  1.56996  241  2.35788  230  -5.0  74    -8.8  0     0     991.4    NA       0.0000   9999     2400  0     0    
2019/06/22  08:28:00  BASE  1.61112  245  2.35788  230  -5.0  75    -8.8  0     0     991.4    NA       0.0000   9999     2400  0     0    
2019/06/22  08:29:00  BASE  1.68756  247  2.35788  230  -4.9  75    -8.7  0     0     991.4    NA       0.0000   9999     2360  0     0    
2019/06/22  08:30:00  BASE  1.90512  243  2.35788  242  -4.9  75    -8.7  0     0     991.4    NA       0.0000   9999     2400  0     0    
2019/06/22  08:31:00  BASE  2.12856  242  2.35788  242  -4.9  75    -8.7  0     0     991.4    NA       0.0000   9999     2430  0     0    
2019/06/22  08:32:00  BASE  2.02272  246  2.35788  242  -4.9  75    -8.6  0     0     991.4    NA       0.0000   9999     2400  0     0    
2019/06/22  08:33:00  BASE  1.85808  249  2.35788  242  -4.8  75    -8.6  0     0     991.4    NA       0.0000   9999     2400  0     0    
2019/06/22  08:34:00  BASE  1.87572  246  2.35788  242  -4.8  75    -8.6  0     0     991.4    NA       0.0000   9999     2400  0     0    
2019/06/22  08:35:00  BASE  2.28732  224  2.81064  213  -4.7  75    -8.5  0     0     991.4    NA       0.0000   9999     2330  0     0    
2019/06/22  08:36:00  BASE  2.83416  215  3.41628  228  -4.7  75    -8.5  0     0     991.4    NA       0.0000   9999     2460  0     0    
2019/06/22  08:37:00  BASE  2.9106   228  3.41628  228  -4.7  75    -8.5  0     0     991.4    NA       0.0000   9999     2400  0     0    
2019/06/22  08:38:00  BASE  2.57544  237  3.41628  228  -4.7  75    -8.4  0     0     991.4    NA       0.0000   9999     2400  0     0    
2019/06/22  08:39:00  BASE  2.32848  249  3.41628  228  -4.7  75    -8.4  0     0     991.4    NA       0.0000   9999     2330  0     0    
2019/06/22  08:40:00  BASE  2.04624  258  3.41628  228  -4.7  76    -8.3  0     0     991.4    NA       0.0000   9999     2330  0     0    
2019/06/22  08:41:00  BASE  1.66992  265  3.41628  228  -4.7  76    -8.3  0     0     991.4    NA       0.0000   9999     2330  0     0    
2019/06/22  08:42:00  BASE  1.68168  265  3.41628  228  -4.7  76    -8.3  0     0     991.4    NA       0.0000   9999     2360  0     0    
2019/06/22  08:43:00  BASE  1.66404  256  3.41628  228  -4.7  76    -8.3  0     0     991.4    NA       0.0000   9999     2330  0     0    
2019/06/22  08:44:00  BASE  1.61112  248  3.41628  228  -4.7  76    -8.3  0     0     991.4    NA       0.0000   9999     2300  0     0    
2019/06/22  08:45:00  BASE  2.11092  229  3.41628  228  -4.7  76    -8.3  0     0     991.4    NA       0.0000   9999     2400  0     0    
2019/06/22  08:46:00  BASE  2.77536  213  3.38688  219  -4.7  76    -8.3  0     0     991.5    NA       0.0000   9999     2330  0     0    
2019/06/22  08:47:00  BASE  2.9106   215  3.38688  219  -4.7  76    -8.2  0     0     991.5    NA       0.0000   9999     2330  0     0    
2019/06/22  08:48:00  BASE  2.84004  215  3.38688  219  -4.7  77    -8.1  0     0     991.5    NA       0.0000   9999     2260  0     0    
2019/06/22  08:49:00  BASE  2.94588  220  3.53976  219  -4.6  77    -8.1  0     0     991.5    NA       0.0000   9999     2330  0     0    
2019/06/22  08:50:00  BASE  2.81652  231  3.53976  219  -4.6  77    -8.1  0     0     991.5    NA       0.0000   9999     2230  0     0    
2019/06/22  08:51:00  BASE  2.64012  234  3.53976  219  -4.6  77    -8.1  0     0     991.5    NA       0.0000   9999     2100  0     0    
2019/06/22  08:52:00  BASE  2.7342   234  3.53976  219  -4.7  77    -8.1  0     0     991.5    NA       0.0000   9999     2230  0     0    
2019/06/22  08:53:00  BASE  2.71068  235  3.53976  219  -4.7  77    -8.2  0     0     991.5    NA       0.0000   9999     2260  0     0    
2019/06/22  08:54:00  BASE  2.59896  231  3.53976  219  -4.7  77    -8.2  0     0     991.5    NA       0.0000   9999     2230  0     0    
2019/06/22  08:55:00  BASE  2.7636   220  3.53976  219  -4.7  77    -8.1  0     0     991.5    NA       0.0000   9999     2170  0     0    
2019/06/22  08:56:00  BASE  3.02232  214  3.53976  219  -4.7  77    -8.1  0     0     991.5    NA       0.0000   9999     2260  0     0    
2019/06/22  08:57:00  BASE  2.91648  212  3.53976  219  -4.7  77    -8.1  0     0     991.5    NA       0.0000   9999     2230  0     0    
2019/06/22  08:58:00  BASE  2.56368  209  3.53976  219  -4.7  78    -8.0  0     0     991.5    NA       0.0000   9999     2300  0     0    
2019/06/22  08:59:00  BASE  2.07564  209  3.51036  212  -4.7  78    -8.0  0     0     991.5    NA       0.0000   9999     2260  0     0    
2019/06/22  09:00:00  BASE  1.48764  207  3.51036  212  -4.7  78    -7.9  0     0     991.5    NA       0.0000   9999     2460  0     0    
2019/06/22  09:01:00  BASE  1.2054   208  3.51036  212  -4.7  78    -8.0  0     0     991.5    NA       0.0000   9999     2070  0     0    
2019/06/22  09:02:00  BASE  1.37004  218  3.51036  212  -4.7  78    -8.0  0     0     991.5    NA       0.0000   9999     2260  0     0    
2019/06/22  09:03:00  BASE  1.59348  233  3.51036  212  -4.7  77    -8.0  0     0     991.5    NA       0.0000   9999     2260  0     0    
2019/06/22  09:04:00  BASE  1.57584  248  3.51036  212  -4.7  77    -8.1  0     0     991.5    NA       0.0000   9999     0     0     0    
2019/06/22  09:05:00  BASE  1.5876   253  3.41628  217  -4.8  77    -8.2  0     0     991.5    NA       0.0000   9999     2300  0     0    
2019/06/22  09:06:00  BASE  1.5582   247  2.93412  214  -4.8  77    -8.1  0     0     991.5    NA       0.0000   9999     2130  0     0    
2019/06/22  09:07:00  BASE  1.48176  248  2.59896  211  -4.8  78    -8.1  0     0     991.5    NA       0.0000   9999     2130  0     0    
2019/06/22  09:08:00  BASE  1.40532  255  2.29908  215  -4.8  78    -8.1  0     0     991.5    NA       0.0000   9999     2200  0     0    
2019/06/22  09:09:00  BASE  1.34652  267  2.21088  226  -4.8  78    -8.1  0     0     991.5    NA       0.0000   9999     2200  0     0    
2019/06/22  09:10:00  BASE  0.95256  270  2.21088  226  -4.8  78    -8.0  0     0     991.5    NA       0.0000   9999     2170  0     0    
2019/06/22  09:11:00  BASE  0.84084  253  2.21088  226  -4.7  78    -8.1  0     0     991.5    NA       0.0000   9999     3740  0     0    
2019/06/22  09:12:00  BASE  1.30536  240  2.1462   246  -4.7  77    -8.1  0     0     991.5    NA       0.0000   9999     2330  0     0    
2019/06/22  09:13:00  BASE  1.45236  243  2.1462   246  -4.7  78    -8.0  0     0     991.5    NA       0.0000   9999     2300  3810  0    
2019/06/22  09:14:00  BASE  1.61112  256  2.1756   264  -4.7  77    -8.0  0     0     991.5    NA       0.0000   9999     2230  0     0    
2019/06/22  09:15:00  BASE  1.49352  263  2.1756   264  -4.7  77    -8.1  0     0     991.5    NA       0.0000   9999     2130  3810  0    
2019/06/22  09:16:00  BASE  1.22892  258  2.1756   264  -4.7  77    -8.1  0     0     991.6    NA       0.0000   9999     3640  0     0    
2019/06/22  09:17:00  BASE  1.14072  253  2.1756   264  -4.8  78    -8.1  0     0     991.6    NA       0.0000   9999     3580  0     0    
2019/06/22  09:18:00  BASE  0.98196  254  2.1756   264  -4.8  78    -8.1  0     0     991.6    NA       0.0000   9999     2460  3580  0    
2019/06/22  09:19:00  BASE  0.88788  250  2.1756   264  -4.8  78    -8.0  0     0     991.6    NA       0.0000   9999     3670  0     0    
2019/06/22  09:20:00  BASE  1.01136  251  2.1756   264  -4.8  78    -8.0  0     0     991.6    NA       0.0000   9999     2300  3670  0    
2019/06/22  09:21:00  BASE  1.07016  256  2.1756   264  -4.8  79    -7.9  0     0     991.6    NA       0.0000   9999     2300  3770  0    
2019/06/22  09:22:00  BASE  0.95844  253  2.1756   264  -4.8  79    -7.9  0     0     991.6    NA       0.0000   9999     2200  0     0    
2019/06/22  09:23:00  BASE  0.89964  250  2.1756   264  -4.8  79    -7.8  0     0     991.6    NA       0.0000   9999     2100  0     0    
2019/06/22  09:24:00  BASE  0.87612  252  1.69344  263  -4.7  79    -7.8  0     0     991.6    NA       0.0000   9999     2200  0     0    
2019/06/22  09:25:00  BASE  0.85848  251  1.42296  255  -4.7  79    -7.8  0     0     991.6    NA       0.0000   9999     2200  0     0    
2019/06/22  09:26:00  BASE  0.8526   254  1.27008  252  -4.7  79    -7.8  0     0     991.6    NA       0.0000   9999     2400  3840  0    
2019/06/22  09:27:00  BASE  0.79968  238  1.27008  252  -4.7  79    -7.8  0     0     991.6    NA       0.0000   9999     2360  0     0    
2019/06/22  09:28:00  BASE  0.77028  239  1.35828  260  -4.7  79    -7.8  0     0     991.6    NA       0.0000   9999     2260  0     0    
2019/06/22  09:29:00  BASE  0.882    251  1.35828  260  -4.8  79    -7.8  0     0     991.6    NA       0.0000   9999     2200  0     0    
2019/06/22  09:30:00  BASE  0.65268  244  1.35828  260  -4.8  79    -7.8  0     0     991.6    NA       0.0000   9999     2130  0     0    
2019/06/22  09:31:00  BASE  0.17052  245  1.35828  260  -4.8  80    -7.8  0     0     991.6    NA       0.0000   9999     2130  0     0    
2019/06/22  09:32:00  BASE  0.14112  245  1.35828  260  -4.8  80    -7.7  0     0     991.6    NA       0.0000   9999     2100  0     0    
2019/06/22  09:33:00  BASE  0.25284  245  1.35828  260  -4.8  80    -7.7  0     0     991.7    NA       0.0000   9999     2100  0     0    
2019/06/22  09:34:00  BASE  0.16464  249  1.35828  260  -4.7  80    -7.7  0     0     991.7    NA       0.0000   9999     2130  4040  0    
2019/06/22  09:35:00  BASE  0.0588   268  1.35828  260  -4.7  80    -7.7  0     0     991.7    NA       0.0000   9999     2260  0     0    
2019/06/22  09:36:00  BASE  0.4704   284  1.35828  260  -4.7  80    -7.6  0     0     991.7    NA       0.0000   9999     2260  0     0    
2019/06/22  09:37:00  BASE  1.176    276  1.75224  266  -4.7  80    -7.6  0     0     991.7    NA       0.0000   9999     2230  0     0    
2019/06/22  09:38:00  BASE  1.323    263  1.75224  266  -4.7  80    -7.6  0     0     991.7    NA       0.0000   9999     2070  0     0    
2019/06/22  09:39:00  BASE  1.15836  256  1.75224  266  -4.8  80    -7.7  0     0     991.7    NA       0.0000   9999     2030  0     0    
2019/06/22  09:40:00  BASE  0.882    255  1.75224  266  -4.8  80    -7.7  0     0     991.7    NA       0.0000   9999     2030  0     0    
2019/06/22  09:41:00  BASE  0.34104  246  1.75224  266  -4.8  80    -7.6  0     0     991.7    NA       0.0000   9999     2070  4100  0    
2019/06/22  09:42:00  BASE  0        224  1.75224  266  -4.8  81    -7.6  0     0     991.7    NA       0.0000   9999     1940  0     0    
2019/06/22  09:43:00  BASE  0        200  1.75224  266  -4.7  81    -7.5  0     0     991.7    NA       0.0000   9999     1870  0     0    
2019/06/22  09:44:00  BASE  0        193  1.75224  266  -4.7  81    -7.5  0     0     991.7    NA       0.0000   9999     1970  0     0    
2019/06/22  09:45:00  BASE  0        200  1.75224  266  -4.6  81    -7.5  0     0     991.7    NA       0.0000   9999     2100  0     0    
2019/06/22  09:46:00  BASE  0        203  1.75224  266  -4.6  80    -7.5  0     0     991.7    NA       0.0000   9999     2070  0     0    
2019/06/22  09:47:00  BASE  0        204  1.45236  267  -4.6  80    -7.5  0     0     991.7    NA       0.0000   9999     1940  0     0    
2019/06/22  09:48:00  BASE  0        204  1.29948  267  -4.6  80    -7.5  0     0     991.7    NA       0.0000   9999     1970  0     0    
2019/06/22  09:49:00  BASE  0        204  1.29948  267  -4.6  80    -7.5  0     0     991.7    NA       0.0000   9999     2000  0     0    
2019/06/22  09:50:00  BASE  0        204  0        M    -4.6  80    -7.5  0     0     991.7    NA       0.0000   9999     2100  0     0    
2019/06/22  09:51:00  BASE  0        207  0        M    -4.6  79    -7.6  0     0     991.7    NA       0.0000   9999     2030  0     0    
2019/06/22  09:52:00  BASE  0        203  0        M    -4.6  79    -7.6  0     0     991.7    NA       0.0000   9999     2100  0     0    
2019/06/22  09:53:00  BASE  0        194  0        M    -4.6  79    -7.7  0     0     991.7    NA       0.0000   9999     2070  0     0    
2019/06/22  09:54:00  BASE  0        211  0        M    -4.6  79    -7.7  0     0     991.7    NA       0.0000   9999     2070  0     0    
2019/06/22  09:55:00  BASE  0        237  0        M    -4.6  79    -7.7  0     0     991.7    NA       0.0000   9999     2070  0     0    
2019/06/22  09:56:00  BASE  0        226  0        M    -4.6  79    -7.6  0     0     991.7    NA       0.0000   9999     2200  0     0    
2019/06/22  09:57:00  BASE  0        197  0        M    -4.6  80    -7.6  0     0     991.7    NA       0.0000   9999     2030  0     0    
2019/06/22  09:58:00  BASE  0        180  0        M    -4.6  80    -7.5  0     0     991.7    NA       0.0000   9999     2070  0     0    
2019/06/22  09:59:00  BASE  0        170  0        M    -4.6  80    -7.5  0     0     991.7    NA       0.0000   9999     2070  0     0    
2019/06/22  10:00:00  BASE  0.22932  181  0.84672  205  -4.6  80    -7.5  0     0     991.7    NA       0.0000   9999     1970  0     0    
2019/06/22  10:01:00  BASE  0.54684  200  0.84672  188  -4.6  80    -7.5  0     0     991.7    NA       0.0000   9999     2070  0     0    
2019/06/22  10:02:00  BASE  0.74676  196  1.21128  211  -4.6  80    -7.5  0     0     991.7    NA       0.0000   9999     2000  0     0    
2019/06/22  10:03:00  BASE  0.87612  189  1.72284  209  -4.6  80    -7.5  0     0     991.7    NA       0.0000   9999     2130  0     0    
2019/06/22  10:04:00  BASE  0.59388  173  1.72284  209  -4.6  80    -7.5  0     0     991.7    NA       0.0000   9999     2030  0     0    
2019/06/22  10:05:00  BASE  0.50568  158  1.72284  209  -4.6  80    -7.6  0     0     991.7    NA       0.0000   9999     2000  0     0    
2019/06/22  10:06:00  BASE  0.75264  161  1.72284  209  -4.7  80    -7.6  0     0     991.7    NA       0.0000   9999     2100  0     0    
2019/06/22  10:07:00  BASE  0.88788  177  1.72284  209  -4.7  80    -7.6  0     0     991.7    NA       0.0000   9999     2130  0     0    
2019/06/22  10:08:00  BASE  0.51744  192  1.72284  209  -4.7  80    -7.6  0     0     991.7    NA       0.0000   9999     2130  0     0    
2019/06/22  10:09:00  BASE  0.05292  190  1.72284  209  -4.7  80    -7.6  0     0     991.7    NA       0.0000   9999     2130  0     0    
2019/06/22  10:10:00  BASE  0.02352  200  1.72284  209  -4.7  80    -7.6  0     0     991.7    NA       0.0000   9999     2030  0     0    
2019/06/22  10:11:00  BASE  0        247  1.72284  209  -4.7  80    -7.6  0     0     991.7    NA       0.0000   9999     2030  0     0    
2019/06/22  10:12:00  BASE  0        281  1.72284  209  -4.7  80    -7.6  0     0     991.8    NA       0.0000   9999     2100  0     0    
2019/06/22  10:13:00  BASE  0        277  1.24068  210  -4.7  80    -7.6  0     0     991.8    NA       0.0000   9999     2100  0     0    
2019/06/22  10:14:00  BASE  0.05292  260  1.24068  210  -4.6  80    -7.6  0     0     991.8    NA       0.0000   9999     2100  0     0    
2019/06/22  10:15:00  BASE  0.2352   242  1.24068  210  -4.6  80    -7.6  0     0     991.8    NA       0.0000   9999     2070  0     0    
2019/06/22  10:16:00  BASE  0.22932  207  1.24068  210  -4.6  80    -7.6  0     0     991.8    NA       0.0000   9999     2070  0     0    
2019/06/22  10:17:00  BASE  0.39396  161  0.84672  143  -4.7  80    -7.6  0     0     991.8    NA       0.0000   9999     2070  0     0    
2019/06/22  10:18:00  BASE  0.64092  146  0.84672  143  -4.7  80    -7.6  0     0     991.7    NA       0.0000   9999     2170  0     0    
2019/06/22  10:19:00  BASE  0.58212  141  0.84672  143  -4.7  80    -7.7  0     0     991.7    NA       0.0000   9999     2130  0     0    
2019/06/22  10:20:00  BASE  0.39984  142  0.84672  143  -4.8  80    -7.7  0     0     991.7    NA       0.0000   9999     2130  0     0    
2019/06/22  10:21:00  BASE  0.11172  148  0.84672  143  -4.8  80    -7.7  0     0     991.7    NA       0.0000   9999     2100  0     0    
2019/06/22  10:22:00  BASE  0        157  0.84672  143  -4.8  81    -7.6  0     0     991.7    NA       0.0000   9999     2030  0     0    
2019/06/22  10:23:00  BASE  0.24108  155  0.84672  143  -4.8  81    -7.6  0     0     991.8    NA       0.0000   9999     2030  0     0    
2019/06/22  10:24:00  BASE  0.2646   150  0.84672  143  -4.8  81    -7.6  0     0     991.8    NA       0.0000   9999     2070  4460  0    
2019/06/22  10:25:00  BASE  0.588    174  1.69344  224  -4.8  81    -7.6  0     0     991.8    NA       0.0000   9999     2130  0     0    
2019/06/22  10:26:00  BASE  0.81732  192  1.69344  224  -4.9  81    -7.6  0     0     991.8    NA       0.0000   9999     2100  0     0    
2019/06/22  10:27:00  BASE  0.85848  199  1.72284  196  -4.9  81    -7.7  0     0     991.8    NA       0.0000   9999     2070  0     0    
2019/06/22  10:28:00  BASE  1.24656  214  1.72284  196  -4.9  81    -7.7  0     0     991.8    NA       0.0000   9999     2000  0     0    
2019/06/22  10:29:00  BASE  1.323    221  1.72284  196  -4.9  81    -7.6  0     0     991.7    NA       0.0000   9999     2000  0     0    
2019/06/22  10:30:00  BASE  1.21128  235  1.72284  196  -4.9  82    -7.5  0     0     991.7    NA       0.0000   9999     1970  0     0    
2019/06/22  10:31:00  BASE  1.11132  240  1.72284  196  -4.9  82    -7.5  0     0     991.7    NA       0.0000   9999     2030  0     0    
2019/06/22  10:32:00  BASE  1.1172   241  1.72284  196  -4.8  82    -7.4  0     0     991.8    NA       0.0000   9999     2030  0     0    
2019/06/22  10:33:00  BASE  1.01724  242  1.72284  196  -4.9  82    -7.5  0     0     991.8    NA       0.0000   9999     2070  4560  0    
2019/06/22  10:34:00  BASE  1.14072  235  1.78752  246  -4.9  82    -7.5  0     0     991.8    NA       0.0000   9999     2030  2720  4590 
2019/06/22  10:35:00  BASE  1.51116  225  1.81692  219  -4.9  82    -7.5  0     0     991.8    NA       0.0000   9999     2030  2620  0    
2019/06/22  10:36:00  BASE  1.54056  220  1.81692  219  -4.9  82    -7.5  0     0     991.8    NA       0.0000   9999     2070  2530  0    
2019/06/22  10:37:00  BASE  1.56408  215  2.1462   205  -4.8  82    -7.4  0     0     991.8    NA       0.0000   9999     2000  4560  0    
2019/06/22  10:38:00  BASE  1.76988  211  2.1462   205  -4.8  82    -7.4  0     0     991.8    NA       0.0000   9999     2300  4490  0    
2019/06/22  10:39:00  BASE  1.68756  212  2.1462   205  -4.8  82    -7.4  0     0     991.8    NA       0.0000   9999     2330  4460  0    
2019/06/22  10:40:00  BASE  1.66992  215  2.1462   205  -4.8  82    -7.4  0     0     991.8    NA       0.0000   9999     2530  4490  0    
2019/06/22  10:41:00  BASE  1.84044  216  2.29908  217  -4.7  82    -7.3  0     0     991.8    NA       0.0000   9999     2530  4460  0    
2019/06/22  10:42:00  BASE  2.11092  218  2.69304  224  -4.7  82    -7.3  0     0     991.8    NA       0.0000   9999     2590  4530  0    
2019/06/22  10:43:00  BASE  2.46372  229  2.90472  239  -4.7  82    -7.3  0     0     991.8    NA       0.0000   9999     2460  4560  0    
2019/06/22  10:44:00  BASE  2.04624  238  2.90472  239  -4.7  82    -7.3  0     0     991.8    NA       0.0000   9999     2430  4660  0    
2019/06/22  10:45:00  BASE  1.3818   235  2.90472  239  -4.7  82    -7.3  0     0     991.8    NA       0.0000   9999     2430  4630  0    
2019/06/22  10:46:00  BASE  1.85808  229  2.90472  239  -4.7  82    -7.3  0     0     991.8    NA       0.0000   9999     2400  4660  0    
2019/06/22  10:47:00  BASE  2.38728  223  2.90472  239  -4.7  82    -7.3  0     0     991.8    NA       0.0000   9999     4660  0     0    
2019/06/22  10:48:00  BASE  2.04624  219  2.90472  239  -4.7  82    -7.3  0     0     991.8    NA       0.0000   9999     4660  0     0    
2019/06/22  10:49:00  BASE  1.64052  215  2.90472  239  -4.7  82    -7.3  0     0     991.8    NA       0.0000   9999     4630  0     0    
2019/06/22  10:50:00  BASE  1.56408  211  2.90472  239  -4.7  82    -7.3  0     0     991.8    NA       0.0000   9999     2260  4630  0    
2019/06/22  10:51:00  BASE  1.75812  215  2.90472  239  -4.7  82    -7.3  0     0     991.8    NA       0.0000   9999     2230  4660  0    
2019/06/22  10:52:00  BASE  1.77576  215  2.90472  239  -4.6  82    -7.2  0     0     991.8    NA       0.0000   9999     4690  0     0    
2019/06/22  10:53:00  BASE  1.5288   221  2.69304  222  -4.6  82    -7.2  0     0     991.8    NA       0.0000   9999     3740  4590  0    
2019/06/22  10:54:00  BASE  1.57584  243  2.69304  222  -4.7  82    -7.3  0     0     991.8    NA       0.0000   9999     3770  4560  0    
2019/06/22  10:55:01  BASE  1.60524  254  2.69304  222  -4.7  82    -7.3  0     0     991.8    NA       0.0000   9999     4530  0     0    
2019/06/22  10:56:00  BASE  1.22892  256  2.63424  219  -4.7  82    -7.3  0     0     991.8    NA       0.0000   9999     4000  0     0    
2019/06/22  10:57:00  BASE  0.92316  261  2.21088  216  -4.7  82    -7.3  0     0     991.8    NA       0.0000   9999     4400  0     0    
2019/06/22  10:58:00  BASE  1.09956  255  2.21088  216  -4.7  82    -7.3  0     0     991.8    NA       0.0000   9999     4400  0     0    
2019/06/22  10:59:00  BASE  1.22892  237  2.21088  216  -4.6  82    -7.3  0     0     991.8    NA       0.0000   9999     4400  0     0    
2019/06/22  11:00:00  BASE  1.07016  234  2.1756   220  -4.6  82    -7.3  0     0     991.8    NA       0.0000   9999     4400  0     0    
2019/06/22  11:01:00  BASE  1.32888  246  1.96392  255  -4.6  81    -7.3  0     0     991.8    NA       0.0000   9999     4360  0     0    
2019/06/22  11:02:00  BASE  1.80516  249  2.058    247  -4.7  81    -7.4  0     0     991.8    NA       0.0000   9999     3610  4460  0    
2019/06/22  11:03:00  BASE  1.7934   246  2.058    247  -4.8  81    -7.5  0     0     991.8    NA       0.0000   9999     3540  4430  0    
2019/06/22  11:04:00  BASE  1.43472  245  2.058    247  -4.9  81    -7.6  0     0     991.8    NA       0.0000   9999     3580  4460  0    
2019/06/22  11:05:00  BASE  1.04076  246  2.058    247  -4.9  81    -7.6  0     0     991.8    NA       0.0000   9999     3540  4490  0    
2019/06/22  11:06:00  BASE  0.91728  250  2.058    247  -4.9  82    -7.5  0     0     991.8    NA       0.0000   9999     3580  4430  0    
2019/06/22  11:07:00  BASE  1.02312  255  2.058    247  -4.9  82    -7.5  0     0     991.8    NA       0.0000   9999     3640  4400  0    
2019/06/22  11:08:00  BASE  1.01724  262  2.058    247  -4.8  82    -7.4  0     0     991.8    NA       0.0000   9999     3610  4330  0    
2019/06/22  11:09:00  BASE  0.95844  270  2.058    247  -4.7  82    -7.3  0     0     991.8    NA       0.0000   9999     3640  4300  0    
2019/06/22  11:10:00  BASE  1.29948  270  2.058    247  -4.7  82    -7.3  0     0     991.8    NA       0.0000   9999     3640  4400  0    
2019/06/22  11:11:00  BASE  1.7052   262  2.058    247  -4.7  82    -7.3  0     0     991.8    NA       0.0000   9999     3610  4460  0    
2019/06/22  11:12:00  BASE  1.71696  256  1.90512  243  -4.7  82    -7.3  0     0     991.8    NA       0.0000   9999     3510  4330  0    
2019/06/22  11:13:00  BASE  1.53468  258  1.87572  251  -4.7  82    -7.3  0     0     991.8    NA       0.0000   9999     3450  4530  0    
2019/06/22  11:14:00  BASE  1.34652  263  1.87572  251  -4.7  82    -7.3  0     0     991.8    NA       0.0000   9999     3350  4460  0    
2019/06/22  11:15:00  BASE  1.2348   266  1.87572  251  -4.7  82    -7.3  0     0     991.8    NA       0.0000   9999     2990  0     0    
2019/06/22  11:16:00  BASE  1.10544  268  1.87572  251  -4.8  82    -7.4  0     0     991.8    NA       0.0000   9999     2890  4490  0    
2019/06/22  11:17:00  BASE  1.02312  274  1.87572  251  -4.7  82    -7.3  0     0     991.8    NA       0.0000   9999     2820  0     0    
2019/06/22  11:18:00  BASE  0.98196  271  1.87572  251  -4.7  82    -7.3  0     0     991.8    NA       0.0000   9999     2720  0     0    
2019/06/22  11:19:00  BASE  0.9996   261  1.87572  251  -4.7  82    -7.3  0     0     991.8    NA       0.0000   9999     2620  0     0    
2019/06/22  11:20:00  BASE  1.06428  263  1.87572  251  -4.7  82    -7.3  0     0     991.8    NA       0.0000   9999     2460  0     0    
2019/06/22  11:21:00  BASE  0.95844  274  1.87572  251  -4.7  82    -7.3  0     0     991.8    NA       0.0000   9999     2460  0     0    
2019/06/22  11:22:00  BASE  0.92904  278  1.63464  261  -4.7  82    -7.3  0     0     991.8    NA       0.0000   9999     2360  0     0    
2019/06/22  11:23:00  BASE  0.9114   279  1.39356  258  -4.7  82    -7.3  0     0     991.8    NA       0.0000   9999     2460  0     0    
2019/06/22  11:24:00  BASE  0.65268  279  1.39356  258  -4.6  82    -7.3  0     0     991.8    NA       0.0000   9999     2460  0     0    
2019/06/22  11:25:00  BASE  0.31752  271  1.39356  258  -4.6  82    -7.3  0     0     991.8    NA       0.0000   9999     2300  0     0    
2019/06/22  11:26:00  BASE  0.47628  267  1.39356  258  -4.6  81    -7.3  0     0     991.8    NA       0.0000   9999     2360  3350  0    
2019/06/22  11:27:00  BASE  0.87612  266  1.39356  258  -4.6  81    -7.3  0     0     991.8    NA       0.0000   9999     2260  0     0    
2019/06/22  11:28:00  BASE  1.01136  268  1.42296  265  -4.6  81    -7.4  0     0     991.8    NA       0.0000   9999     2230  0     0    
2019/06/22  11:29:00  BASE  0.95256  291  1.42296  265  -4.6  81    -7.4  0     0     991.9    NA       0.0000   9999     2230  0     0    
2019/06/22  11:30:00  BASE  0.92316  328  1.42296  265  -4.6  81    -7.4  0     0     991.8    NA       0.0000   9999     2200  0     0    
2019/06/22  11:31:00  BASE  0.9702   353  1.42296  265  -4.7  81    -7.4  0     0     991.8    NA       0.0000   9999     2170  0     0    
2019/06/22  11:32:00  BASE  1.06428  8    1.42296  265  -4.7  81    -7.4  0     0     991.8    NA       0.0000   9999     2170  0     0    
2019/06/22  11:33:00  BASE  1.18188  17   1.48176  23   -4.8  82    -7.4  0     0     991.9    NA       0.0000   9999     2460  0     0    
2019/06/22  11:34:00  BASE  1.00548  23   1.48176  23   -4.8  82    -7.4  0     0     992.0    NA       0.0000   9999     2560  4630  0    
2019/06/22  11:35:00  BASE  0.95256  37   1.48176  23   -4.8  83    -7.3  0     0     992.0    NA       0.0000   9999     2620  0     0    
2019/06/22  11:36:00  BASE  1.0584   48   1.48176  23   -4.9  83    -7.3  0     0     992.0    NA       0.0000   9999     2850  0     0    
2019/06/22  11:37:00  BASE  1.01724  42   1.48176  23   -4.9  83    -7.3  0     0     992.0    NA       0.0000   9999     2890  0     0    
2019/06/22  11:38:00  BASE  0.9702   30   1.48176  23   -5.0  84    -7.3  0     0     992.0    NA       0.0000   9999     3020  0     0    
2019/06/22  11:39:00  BASE  1.07604  25   1.48176  23   -5.0  84    -7.3  0     0     992.0    NA       0.0000   9999     2950  0     0    
2019/06/22  11:40:00  BASE  0.89376  18   1.48176  23   -5.0  84    -7.3  0     0     992.0    NA       0.0000   9999     2990  0     0    
2019/06/22  11:41:00  BASE  0.34692  15   1.48176  23   -5.1  85    -7.3  0     0     992.0    NA       0.0000   9999     2890  0     0    
2019/06/22  11:42:00  BASE  0.147    45   1.48176  23   -5.1  85    -7.2  0     0     992.0    NA       0.0000   9999     2850  0     0    
2019/06/22  11:43:00  BASE  0.441    62   1.24068  25   -5.1  85    -7.2  0     0     992.0    NA       0.0000   9999     2820  0     0    
2019/06/22  11:44:00  BASE  0.882    48   1.24068  31   -5.1  85    -7.2  0     0     992.0    NA       0.0000   9999     2690  0     0    
2019/06/22  11:45:00  BASE  1.176    47   1.35828  56   -5.0  85    -7.1  0     0     992.0    NA       0.0000   9999     2760  0     0    
2019/06/22  11:46:00  BASE  1.33476  52   1.54056  49   -5.0  85    -7.1  0     0     992.0    NA       0.0000   9999     2850  0     0    
2019/06/22  11:47:00  BASE  1.38768  51   1.54056  53   -5.0  86    -7.1  0     0     992.0    NA       0.0000   9999     2760  0     0    
2019/06/22  11:48:00  BASE  1.02312  45   1.54056  53   -5.0  86    -7.0  0     0     992.0    NA       0.0000   9999     2720  0     0    
2019/06/22  11:49:00  BASE  0.79968  43   1.54056  53   -5.0  86    -7.0  0     0     992.1    NA       0.0000   9999     2790  0     0    
2019/06/22  11:50:00  BASE  0.75852  54   1.54056  53   -5.1  86    -7.0  0     0     992.1    NA       0.0000   9999     2850  0     0    
2019/06/22  11:51:00  BASE  0.74088  61   1.54056  53   -5.1  86    -7.1  0     0     992.1    NA       0.0000   9999     2760  0     0    
2019/06/22  11:52:00  BASE  0.89376  63   1.54056  53   -5.1  86    -7.1  0     0     992.1    NA       0.0000   9999     2660  0     0    
2019/06/22  11:53:00  BASE  0.89964  65   1.54056  53   -5.2  86    -7.1  0     0     992.1    NA       0.0000   9999     2530  0     0    
2019/06/22  11:54:00  BASE  0.90552  68   1.54056  53   -5.2  86    -7.1  0     0     992.1    NA       0.0000   9999     2490  0     0    
2019/06/22  11:55:00  BASE  0.99372  67   1.54056  53   -5.2  87    -7.1  0     0     992.1    NA       0.0000   9999     2460  0     0    
2019/06/22  11:56:00  BASE  1.18188  65   1.54056  67   -5.2  87    -7.1  0     0     992.1    NA       0.0000   9999     2430  0     0    
2019/06/22  11:57:00  BASE  1.16424  75   1.54056  67   -5.2  87    -7.0  0     0     992.1    NA       0.0000   9999     2360  0     0    
2019/06/22  11:58:00  BASE  0.92316  79   1.54056  67   -5.2  87    -7.0  0     0     992.1    NA       0.0000   9999     2070  2530  0    
2019/06/22  11:59:00  BASE  0.67032  80   1.54056  67   -5.2  87    -7.0  0     0     992.1    NA       0.0000   9999     1970  2490  0    
2019/06/22  12:00:00  BASE  0.25872  93   1.54056  67   -5.2  87    -7.0  0     0     992.2    NA       0.0000   9999     1900  2530  0    
2019/06/22  12:01:00  BASE  0.08232  114  1.54056  67   -5.2  87    -7.0  0     0     992.2    NA       0.0000   9999     1900  2430  0    
2019/06/22  12:02:00  BASE  0.43512  121  1.54056  67   -5.1  87    -7.0  0     0     992.2    NA       0.0000   9999     1900  2430  0    
2019/06/22  12:03:00  BASE  0.68208  122  1.54056  67   -5.1  87    -6.9  0     0     992.2    NA       0.0000   9999     1940  2560  0    
2019/06/22  12:04:00  BASE  0.96432  125  1.54056  67   -5.1  87    -7.0  0     0     992.2    NA       0.0000   9999     1900  0     0    
2019/06/22  12:05:00  BASE  1.029    141  1.54056  67   -5.2  87    -7.1  0     0     992.2    NA       0.0000   9999     1870  2430  0    
2019/06/22  12:06:00  BASE  0.64092  162  1.32888  123  -5.3  87    -7.2  0     0     992.2    NA       0.0000   9999     2130  0     0    
2019/06/22  12:07:00  BASE  0.24108  160  1.32888  123  -5.3  87    -7.2  0     0     992.2    NA       0.0000   9999     2070  0     0    
2019/06/22  12:08:00  BASE  0.02352  127  1.32888  123  -5.2  87    -7.1  0     0     992.2    NA       0.0000   9999     1900  0     0    
2019/06/22  12:09:00  BASE  0.02352  106  1.32888  123  -5.2  87    -7.0  0     0     992.2    NA       0.0000   9999     1870  0     0    
2019/06/22  12:10:00  BASE  0        111  1.32888  123  -5.1  87    -6.9  0     0     992.2    NA       0.0000   9999     1870  0     0    
2019/06/22  12:11:00  BASE  0        119  1.32888  123  -5.0  87    -6.9  0     0     992.2    NA       0.0000   9999     1870  0     0    
2019/06/22  12:12:00  BASE  0        131  1.32888  123  -5.0  87    -6.9  0     0     992.1    NA       0.0000   9999     1770  0     0    
2019/06/22  12:13:00  BASE  0        132  1.32888  123  -5.0  87    -6.8  0     0     992.1    NA       0.0000   9999     2070  0     0    
2019/06/22  12:14:00  BASE  0        132  1.21128  153  -5.0  87    -6.8  0     0     992.1    NA       0.0000   9999     2000  0     0    
2019/06/22  12:15:00  BASE  0        132  1.18188  181  -5.0  87    -6.8  0     0     992.1    NA       0.0000   9999     1870  0     0    
2019/06/22  12:16:00  BASE  0        120  0.60564  100  -4.9  87    -6.8  0     0     992.1    NA       0.0000   9999     1900  0     0    
2019/06/22  12:17:00  BASE  0.14112  74   0.69384  51   -4.9  87    -6.8  0     0     992.1    NA       0.0000   9999     1710  0     0    
2019/06/22  12:18:00  BASE  0.31752  49   0.78792  31   -4.9  87    -6.8  0     0     992.1    NA       0.0000   9999     1640  0     0    
2019/06/22  12:19:00  BASE  0.22932  57   0.78792  31   -4.9  87    -6.8  0     0     992.1    NA       0.0000   9999     1540  0     0    
2019/06/22  12:20:00  BASE  0.05292  88   0.78792  31   -4.9  87    -6.8  0     0     992.1    NA       0.0000   9999     1900  0     0    
2019/06/22  12:21:00  BASE  0        136  0.78792  31   -4.9  87    -6.8  0     0     992.1    NA       0.0000   9999     1940  0     0    
2019/06/22  12:22:00  BASE  0        111  0.78792  31   -4.9  87    -6.7  0     0     992.1    NA       0.0000   9999     1970  0     0    
2019/06/22  12:23:00  BASE  0        77   0.78792  31   -4.9  87    -6.7  0     0     992.1    NA       0.0000   9999     1640  0     0    
2019/06/22  12:24:00  BASE  0        87   0.78792  31   -4.9  87    -6.7  0     0     992.1    NA       0.0000   9999     1670  0     0    
2019/06/22  12:25:00  BASE  0        89   0.78792  31   -4.8  86    -6.8  0     0     992.1    NA       0.0000   9999     1210  0     0    
2019/06/22  12:26:00  BASE  0        69   0.78792  31   -4.8  86    -6.8  0     0     992.1    NA       0.0000   9999     1280  0     0    
2019/06/22  12:27:00  BASE  0.02352  64   0.78792  31   -4.8  86    -6.8  0     0     992.1    NA       0.0000   9999     1080  0     0    
2019/06/22  12:28:00  BASE  0.30576  78   1.18188  102  -4.8  86    -6.8  0     0     992.2    NA       0.0000   9999     1350  0     0    
2019/06/22  12:29:00  BASE  0.62328  73   1.18188  102  -4.8  86    -6.8  0     0     992.2    NA       0.0000   9999     1900  0     0    
2019/06/22  12:30:00  BASE  0.48216  42   1.18188  102  -4.8  86    -6.8  0     0     992.2    NA       0.0000   9999     1770  0     0    
2019/06/22  12:31:00  BASE  0.64092  11   1.32888  5    -4.9  86    -6.8  0     0     992.2    NA       0.0000   9999     1970  0     0    
2019/06/22  12:32:00  BASE  1.09956  340  1.42296  287  -4.9  86    -6.9  0     0     992.2    NA       0.0000   9999     2490  0     0    
2019/06/22  12:33:00  BASE  1.02312  312  1.42296  289  -4.9  86    -6.9  0     0     992.2    NA       0.0000   9999     2360  0     0    
2019/06/22  12:34:00  BASE  0.64092  276  1.42296  289  -4.9  86    -6.8  0     0     992.2    NA       0.0000   9999     2300  0     0    
2019/06/22  12:35:00  BASE  0.29988  294  1.42296  289  -4.9  86    -6.8  0     0     992.2    NA       0.0000   9999     2400  0     0    
2019/06/22  12:36:00  BASE  0.28224  329  1.42296  289  -4.9  86    -6.8  0     0     992.1    NA       0.0000   9999     2430  0     0    
2019/06/22  12:37:00  BASE  0.69384  313  1.45236  312  -4.9  86    -6.8  0     0     992.1    NA       0.0000   9999     2460  0     0    
2019/06/22  12:38:00  BASE  1.29948  304  1.90512  304  -4.8  86    -6.8  0     0     992.1    NA       0.0000   9999     2430  0     0    
2019/06/22  12:39:00  BASE  1.78752  297  2.32848  281  -4.8  86    -6.8  0     0     992.1    NA       0.0000   9999     2460  3080  0    
2019/06/22  12:40:00  BASE  1.79928  286  2.32848  281  -4.8  86    -6.8  0     0     992.2    NA       0.0000   9999     2360  3350  0    
2019/06/22  12:41:00  BASE  1.56408  279  2.32848  281  -4.8  86    -6.8  0     0     992.2    NA       0.0000   9999     2130  0     0    
2019/06/22  12:42:00  BASE  1.47     277  2.32848  281  -4.8  86    -6.8  0     0     992.2    NA       0.0000   9999     2170  0     0    
2019/06/22  12:43:00  BASE  1.47     272  2.32848  281  -4.8  86    -6.7  0     0     992.2    NA       0.0000   9999     2070  0     0    
2019/06/22  12:44:00  BASE  1.68756  270  2.35788  277  -4.7  86    -6.7  0     0     992.2    NA       0.0000   9999     1970  0     0    
2019/06/22  12:45:00  BASE  1.9992   273  2.66364  285  -4.7  86    -6.7  0     0     992.2    NA       0.0000   9999     1970  0     0    
2019/06/22  12:46:00  BASE  2.01096  273  2.66364  285  -4.7  86    -6.7  0     0     992.2    NA       0.0000   9999     1800  0     0    
2019/06/22  12:47:00  BASE  1.83456  271  2.66364  285  -4.7  86    -6.7  0     0     992.2    NA       0.0000   9999     1740  0     0    
2019/06/22  12:48:00  BASE  1.9404   271  2.66364  285  -4.7  86    -6.7  0     0     992.2    NA       0.0000   9999     1800  0     0    
2019/06/22  12:49:00  BASE  2.04624  276  2.66364  285  -4.7  86    -6.7  0     0     992.2    NA       0.0000   9999     1480  0     0    
2019/06/22  12:50:00  BASE  1.78752  281  2.66364  285  -4.7  85    -6.7  0     0     992.2    NA       0.0000   9999     1410  0     0    
2019/06/22  12:51:00  BASE  1.53468  278  2.66364  285  -4.7  85    -6.8  0     0     992.2    NA       0.0000   9999     1710  0     0    
2019/06/22  12:52:00  BASE  1.89336  266  2.66364  285  -4.7  85    -6.8  0     0     992.2    NA       0.0000   9999     1510  0     0    
2019/06/22  12:53:00  BASE  2.3814   259  2.75184  259  -4.7  85    -6.8  0     0     992.2    NA       0.0000   9999     1640  0     0    
2019/06/22  12:54:00  BASE  2.45784  262  3.26928  269  -4.7  85    -6.8  0     0     992.2    NA       0.0000   9999     1740  0     0    
2019/06/22  12:55:00  BASE  2.3226   262  3.26928  269  -4.7  85    -6.8  0     0     992.2    NA       0.0000   9999     2070  0     0    
2019/06/22  12:56:00  BASE  2.37552  268  3.65736  281  -4.7  85    -6.8  0     0     992.2    NA       0.0000   9999     1940  0     0    
2019/06/22  12:57:00  BASE  2.92824  282  3.86904  288  -4.7  85    -6.8  0     0     992.2    NA       0.0000   9999     1870  0     0    
2019/06/22  12:58:00  BASE  3.09876  287  3.86904  288  -4.7  85    -6.8  0     0     992.2    NA       0.0000   9999     1840  0     0    
2019/06/22  12:59:00  BASE  3.01644  282  3.93372  274  -4.7  86    -6.8  0     0     992.2    NA       0.0000   9999     1870  3050  4360 
2019/06/22  13:00:00  BASE  3.32808  276  4.116    278  -4.8  86    -6.8  0     0     992.2    NA       0.0000   9999     1900  3020  4300 
2019/06/22  13:01:00  BASE  3.2046   265  4.116    278  -4.8  86    -6.7  0     0     992.2    NA       0.0000   9999     2990  4270  4890 
2019/06/22  13:02:00  BASE  2.54604  254  4.116    278  -4.8  86    -6.7  0     0     992.2    NA       0.0000   9999     2920  4200  4890 
2019/06/22  13:03:00  BASE  1.86396  250  4.116    278  -4.8  86    -6.8  0     0     992.2    NA       0.0000   9999     3020  4200  4990 
2019/06/22  13:04:00  BASE  1.83456  252  4.116    278  -4.8  86    -6.8  0     0     992.2    NA       0.0000   9999     3080  4230  0    
2019/06/22  13:05:00  BASE  2.07564  256  4.116    278  -4.8  86    -6.8  0     0     992.2    NA       0.0000   9999     3280  4270  5050 
2019/06/22  13:06:00  BASE  2.09328  264  4.116    278  -4.9  86    -6.8  0     0     992.2    NA       0.0000   9999     3250  4270  0    
2019/06/22  13:07:00  BASE  2.01096  270  4.116    278  -4.9  86    -6.8  0     0     992.2    NA       0.0000   9999     4200  0     0    
2019/06/22  13:08:00  BASE  1.71108  271  4.116    278  -4.9  86    -6.8  0     0     992.2    NA       0.0000   9999     2030  4200  0    
2019/06/22  13:09:00  BASE  1.62876  272  4.116    278  -4.8  86    -6.8  0     0     992.2    NA       0.0000   9999     1940  4330  0    
2019/06/22  13:10:00  BASE  1.62876  274  3.41628  268  -4.8  86    -6.8  0     0     992.2    NA       0.0000   9999     1900  0     0    
2019/06/22  13:11:00  BASE  1.65228  274  2.54016  257  -4.8  86    -6.8  0     0     992.2    NA       0.0000   9999     1770  3870  0    
2019/06/22  13:12:00  BASE  1.8228   273  2.54016  257  -4.8  86    -6.8  0     0     992.2    NA       0.0000   9999     1900  4300  0    
2019/06/22  13:13:00  BASE  1.65228  279  2.54016  257  -4.8  86    -6.7  0     0     992.2    NA       0.0000   9999     1800  4400  0    
2019/06/22  13:14:00  BASE  1.29948  288  2.35788  255  -4.8  86    -6.7  0     0     992.3    NA       0.0000   9999     1800  0     0    
2019/06/22  13:15:00  BASE  1.24656  282  2.32848  273  -4.8  86    -6.8  0     0     992.3    NA       0.0000   9999     1840  0     0    
2019/06/22  13:16:00  BASE  1.39944  272  2.21088  281  -4.8  86    -6.8  0     0     992.3    NA       0.0000   9999     1940  0     0    
2019/06/22  13:17:00  BASE  1.4994   279  2.21088  281  -4.8  86    -6.8  0     0     992.3    NA       0.0000   9999     1900  0     0    
2019/06/22  13:18:00  BASE  1.617    289  2.21088  281  -4.8  86    -6.8  0     0     992.3    NA       0.0000   9999     1940  0     0    
2019/06/22  13:19:00  BASE  1.53468  291  2.21088  281  -4.8  86    -6.8  0     0     992.3    NA       0.0000   9999     1940  0     0    
2019/06/22  13:20:00  BASE  1.27596  290  2.21088  281  -4.8  86    -6.8  0     0     992.3    NA       0.0000   9999     1940  0     0    
2019/06/22  13:21:00  BASE  1.35828  292  2.21088  281  -4.8  86    -6.7  0     0     992.3    NA       0.0000   9999     1870  0     0    
2019/06/22  13:22:01  BASE  1.59348  295  1.96392  293  -4.8  86    -6.7  0     0     992.3    NA       0.0000   9999     1970  0     0    
2019/06/22  13:23:01  BASE  1.6464   295  1.96392  293  -4.7  86    -6.7  0     0     992.3    NA       0.0000   9999     1970  3740  0    
2019/06/22  13:24:01  BASE  1.86984  284  2.29908  269  -4.7  86    -6.7  0     0     992.4    NA       0.0000   9999     2000  3670  0    
2019/06/22  13:25:00  BASE  2.01096  278  2.29908  269  -4.7  86    -6.7  0     0     992.4    NA       0.0000   9999     2000  3510  0    
2019/06/22  13:26:00  BASE  1.78752  283  2.29908  269  -4.7  86    -6.7  0     0     992.4    NA       0.0000   9999     1870  3580  0    
2019/06/22  13:27:00  BASE  1.51116  282  2.29908  269  -4.8  86    -6.7  0     0     992.3    NA       0.0000   9999     2300  3510  0    
2019/06/22  13:28:00  BASE  1.22304  269  2.29908  269  -4.8  86    -6.8  0     0     992.3    NA       0.0000   9999     2330  3380  0    
2019/06/22  13:29:00  BASE  1.2348   256  2.29908  269  -4.8  86    -6.8  0     0     992.3    NA       0.0000   9999     2260  3310  0    
2019/06/22  13:30:00  BASE  1.30536  260  2.29908  269  -4.8  86    -6.8  0     0     992.3    NA       0.0000   9999     2300  3310  0    
2019/06/22  13:31:00  BASE  1.10544  267  2.29908  269  -4.8  86    -6.8  0     0     992.2    NA       0.0000   9999     3180  0     0    
2019/06/22  13:32:00  BASE  1.0878   261  2.29908  269  -4.8  86    -6.8  0     0     991.7    NA       0.0000   9999     3150  0     0    
2019/06/22  13:33:00  BASE  1.27008  258  2.29908  269  -4.8  86    -6.8  1     0     991.9    NA       0.0000   9999     3180  0     0    
2019/06/22  13:34:00  BASE  1.27008  266  2.0286   276  -4.8  86    -6.8  1     0     992.3    NA       0.0000   9999     3150  0     0    
2019/06/22  13:35:00  BASE  1.08192  272  1.96392  294  -4.8  86    -6.8  1     0     992.3    NA       0.0000   9999     3180  0     0    
2019/06/22  13:36:00  BASE  0.99372  282  1.93452  269  -4.8  86    -6.8  1     0     992.4    NA       0.0000   9999     2720  0     0    
2019/06/22  13:37:00  BASE  0.7056   294  1.93452  269  -4.8  86    -6.8  1     0     992.4    NA       0.0000   9999     2690  3610  0    
2019/06/22  13:38:00  BASE  0.18816  311  1.93452  269  -4.8  86    -6.7  1     0     992.2    NA       0.0000   9999     2620  3580  0    
2019/06/22  13:39:00  BASE  0        326  1.93452  269  -4.7  86    -6.8  1     0     992.4    NA       0.0000   9999     2530  3450  0    
2019/06/22  13:40:00  BASE  0.24108  317  1.93452  269  -4.7  86    -6.8  1     0     992.4    NA       0.0000   9999     2490  3510  4530 
2019/06/22  13:41:00  BASE  0.74088  311  1.93452  269  -4.7  85    -6.8  1     0     991.9    NA       0.0000   9999     2170  3640  0    
2019/06/22  13:42:00  BASE  1.09956  309  1.93452  269  -4.7  85    -6.8  1     0     992.4    NA       0.0000   9999     2230  3610  0    
2019/06/22  13:43:00  BASE  1.14072  302  1.63464  270  -4.8  85    -6.9  1     0     992.4    NA       0.0000   9999     2490  3640  0    
2019/06/22  13:44:00  BASE  1.05252  305  1.32888  306  -4.8  85    -6.9  1     0     992.4    NA       0.0000   9999     2170  3670  0    
2019/06/22  13:45:00  BASE  1.04076  309  1.32888  306  -4.8  85    -6.8  1     0     992.0    NA       0.0000   9999     2200  0     0    
2019/06/22  13:46:00  BASE  0.9114   317  1.32888  306  -4.8  86    -6.8  1     0     992.4    NA       0.0000   9999     2230  3710  0    
2019/06/22  13:47:00  BASE  0.7938   327  1.32888  306  -4.8  86    -6.8  1     0     992.4    NA       0.0000   9999     2230  3670  0    
2019/06/22  13:48:00  BASE  0.72912  331  1.32888  306  -4.8  86    -6.8  1     0     992.4    NA       0.0000   9999     2260  3670  0    
2019/06/22  13:49:00  BASE  0.31752  337  1.32888  306  -4.8  86    -6.8  1     0     992.4    NA       0.0000   9999     2590  0     0    
2019/06/22  13:50:00  BASE  0        354  1.32888  306  -4.8  85    -6.8  1     0     992.4    NA       0.0000   9999     2330  0     0    
2019/06/22  13:51:00  BASE  0        37   1.32888  306  -4.8  85    -6.9  1     0     992.4    NA       0.0000   9999     2660  3670  0    
2019/06/22  13:52:00  BASE  0        65   1.29948  306  -4.8  86    -6.8  1     0     992.4    NA       0.0000   9999     2660  0     0    
2019/06/22  13:53:00  BASE  0        77   1.24068  311  -4.8  86    -6.8  1     0     992.4    NA       0.0000   9999     2690  0     0    
2019/06/22  13:54:00  BASE  0.34692  84   1.29948  81   -4.9  86    -6.9  1     0     992.4    NA       0.0000   9999     2720  0     0    
2019/06/22  13:55:00  BASE  0.9996   78   1.42296  77   -5.0  86    -6.9  2     0     992.5    NA       0.0000   9999     2690  0     0    
2019/06/22  13:56:00  BASE  1.24068  64   1.42296  58   -5.1  86    -7.0  2     0     992.5    NA       0.0000   9999     2360  3250  0    
2019/06/22  13:57:00  BASE  1.19364  59   1.57584  71   -5.1  86    -7.0  2     0     992.5    NA       0.0000   9999     2400  3580  0    
2019/06/22  13:58:00  BASE  1.45236  51   2.0874   32   -5.2  87    -7.1  2     0     992.6    NA       0.0000   9999     2690  0     0    
2019/06/22  13:59:00  BASE  1.8228   39   2.1168   39   -5.3  87    -7.1  2     0     992.6    NA       0.0000   9999     1800  0     0    
2019/06/22  14:00:00  BASE  2.0286   41   2.21088  40   -5.3  88    -7.1  2     0     992.5    NA       0.0000   9999     1800  2330  3640 
2019/06/22  14:01:00  BASE  2.08152  40   2.24028  38   -5.3  88    -7.0  2     0     992.5    NA       0.0000   9999     2620  3670  0    
2019/06/22  14:02:00  BASE  2.11092  38   2.38728  43   -5.3  88    -7.0  2     0     992.4    NA       0.0000   9999     2660  3640  0    
2019/06/22  14:03:00  BASE  2.28144  39   2.54016  40   -5.3  88    -7.0  2     0     992.4    NA       0.0000   9999     2660  3540  0    
2019/06/22  14:04:00  BASE  2.39904  40   2.72244  41   -5.3  89    -6.9  2     0     992.4    NA       0.0000   9999     2660  3480  0    
2019/06/22  14:05:00  BASE  2.38728  41   2.72244  41   -5.3  89    -6.9  2     0     992.4    NA       0.0000   9999     2660  4590  0    
2019/06/22  14:06:00  BASE  2.39904  41   2.72244  41   -5.3  89    -6.8  2     0     992.4    NA       0.0000   9999     2620  4530  0    
2019/06/22  14:07:00  BASE  2.52252  41   2.78124  39   -5.3  89    -6.8  3     0     992.4    NA       0.0000   9999     2620  4430  0    
2019/06/22  14:08:00  BASE  2.60484  39   2.78124  39   -5.3  89    -6.7  3     0     992.4    NA       0.0000   9999     2590  3480  4400 
2019/06/22  14:09:00  BASE  2.60484  38   2.87532  34   -5.2  89    -6.7  3     0     992.4    NA       0.0000   9999     2560  3540  4400 
2019/06/22  14:10:00  BASE  2.55192  38   2.87532  34   -5.2  90    -6.6  3     0     992.4    NA       0.0000   9999     2590  4230  0    
2019/06/22  14:11:00  BASE  2.39316  38   2.87532  34   -5.2  90    -6.6  3     0     992.4    NA       0.0000   9999     1970  2530  4200 
2019/06/22  14:12:00  BASE  2.28732  37   2.87532  34   -5.2  90    -6.6  3     0     992.4    NA       0.0000   9999     2590  4070  0    
2019/06/22  14:13:00  BASE  2.28732  38   2.87532  34   -5.2  90    -6.6  3     0     992.4    NA       0.0000   9999     2530  4040  0    
2019/06/22  14:14:00  BASE  2.27556  38   2.87532  34   -5.3  90    -6.6  3     0     992.4    NA       0.0000   9999     2460  4070  0    
2019/06/22  14:15:00  BASE  2.2638   38   2.87532  34   -5.3  90    -6.6  3     0     992.4    NA       0.0000   9999     4040  0     0    
2019/06/22  14:16:00  BASE  2.205    37   2.87532  34   -5.3  90    -6.6  3     0     992.4    NA       0.0000   9999     2460  4070  0    
2019/06/22  14:17:00  BASE  2.16384  38   2.87532  34   -5.3  91    -6.6  4     0     992.4    NA       0.0000   9999     4100  0     0    
2019/06/22  14:18:00  BASE  2.22264  41   2.87532  34   -5.4  91    -6.6  4     0     992.4    NA       0.0000   9999     2560  4170  0    
2019/06/22  14:19:00  BASE  2.00508  53   2.59896  33   -5.4  91    -6.7  4     0     992.4    NA       0.0000   9999     2530  4230  0    
2019/06/22  14:20:00  BASE  1.78752  58   2.48136  39   -5.5  91    -6.7  4     0     992.4    NA       0.0000   9999     2490  4200  0    
2019/06/22  14:21:01  BASE  1.86984  52   2.45196  40   -5.5  91    -6.7  4     0     992.4    NA       0.0000   9999     0     0     0    
2019/06/22  14:22:00  BASE  1.8816   55   2.45196  40   -5.6  91    -6.7  4     0     992.4    NA       0.0000   9999     0     0     0    
2019/06/22  14:23:00  BASE  1.89924  62   2.45196  40   -5.6  92    -6.7  4     0     992.4    NA       0.0000   9999     0     0     0    
2019/06/22  14:24:01  BASE  1.83456  70   2.45196  40   -5.6  92    -6.7  4     0     992.4    NA       0.0000   9999     0     0     0    
2019/06/22  14:25:01  BASE  1.71696  78   2.38728  42   -5.6  92    -6.7  4     0     992.4    NA       0.0000   9999     0     0     0    
2019/06/22  14:26:01  BASE  1.69344  82   2.38728  42   -5.6  92    -6.7  5     0     992.4    NA       0.0000   9999     0     0     0    
2019/06/22  14:27:01  BASE  1.68756  82   2.38728  42   -5.6  92    -6.7  5     0     992.4    NA       0.0000   9999     0     0     0    
2019/06/22  14:28:01  BASE  1.75812  84   2.35788  44   -5.6  92    -6.7  5     0     992.4    NA       0.0000   9999     0     0     0    
2019/06/22  14:29:01  BASE  1.81692  78   2.32848  46   -5.6  92    -6.7  5     0     992.4    NA       0.0000   9999     0     0     0    
2019/06/22  14:30:01  BASE  1.85808  70   2.21088  46   -5.6  92    -6.6  5     0     992.4    NA       0.0000   9999     0     0     0    
2019/06/22  14:31:01  BASE  1.71696  74   2.1462   70   -5.6  93    -6.6  5     0     992.4    NA       0.0000   9999     0     0     0    
2019/06/22  14:32:01  BASE  1.57584  82   2.1462   70   -5.6  93    -6.6  5     0     992.4    NA       0.0000   9999     0     0     0    
2019/06/22  14:33:01  BASE  1.7052   85   2.24028  77   -5.6  93    -6.5  5     0     992.4    NA       0.0000   9999     0     0     0    
2019/06/22  14:34:01  BASE  1.81104  85   2.24028  90   -5.6  93    -6.5  5     0     992.4    NA       0.0000   9999     0     0     0    
2019/06/22  14:35:01  BASE  1.93452  80   2.35788  77   -5.6  93    -6.5  6     0     992.4    NA       0.0000   9999     0     0     0    
2019/06/22  14:36:01  BASE  1.86984  75   2.35788  77   -5.6  93    -6.5  6     0     992.4    NA       0.0000   9999     0     0     0    
2019/06/22  14:37:00  BASE  1.617    76   2.35788  77   -5.6  93    -6.5  6     0     992.4    NA       0.0000   9999     0     0     0    
2019/06/22  14:38:00  BASE  1.57584  77   2.35788  77   -5.6  93    -6.5  6     0     992.4    NA       0.0000   9999     11580 0     0    
2019/06/22  14:39:00  BASE  1.69344  76   2.35788  77   -5.6  93    -6.5  6     0     992.4    NA       0.0000   9999     11480 0     0    
2019/06/22  14:40:00  BASE  1.62876  73   2.35788  77   -5.5  93    -6.4  6     0     992.4    NA       0.0000   9999     11520 0     0    
2019/06/22  14:41:00  BASE  1.72284  71   2.35788  77   -5.5  93    -6.4  6     0     992.4    NA       0.0000   9999     11550 0     0    
2019/06/22  14:42:00  BASE  1.95216  69   2.35788  77   -5.5  94    -6.4  7     0     992.4    NA       0.0000   9999     11580 0     0    
2019/06/22  14:43:00  BASE  1.66992  72   2.35788  77   -5.5  94    -6.3  7     0     992.3    NA       0.0000   9999     11480 0     0    
2019/06/22  14:44:00  BASE  1.66992  74   2.42256  64   -5.5  94    -6.3  7     0     992.4    NA       0.0000   9999     11520 0     0    
2019/06/22  14:45:00  BASE  1.79928  69   2.42256  64   -5.5  94    -6.4  7     0     992.4    NA       0.0000   9999     11480 0     0    
2019/06/22  14:46:01  BASE  1.50528  74   2.42256  64   -5.5  94    -6.3  8     0     992.4    NA       0.0000   9999     11480 0     0    
2019/06/22  14:47:01  BASE  1.58172  81   2.42256  64   -5.6  94    -6.4  8     0     992.4    NA       0.0000   9999     11450 0     0    
2019/06/22  14:48:01  BASE  1.89924  79   2.42256  64   -5.6  94    -6.4  8     0     992.4    NA       0.0000   9999     11480 0     0    
2019/06/22  14:49:01  BASE  1.94628  77   2.42256  64   -5.6  94    -6.4  8     0     992.4    NA       0.0000   9999     11580 0     0    
2019/06/22  14:50:01  BASE  1.8816   75   2.42256  64   -5.6  94    -6.5  8     0     992.4    NA       0.0000   9999     11550 0     0    
2019/06/22  14:51:01  BASE  1.98156  73   2.56956  81   -5.6  94    -6.5  9     0     992.5    NA       0.0000   9999     11550 0     0    
2019/06/22  14:52:01  BASE  2.205    70   2.87532  63   -5.6  94    -6.5  9     0     992.5    NA       0.0000   9999     11580 0     0    
2019/06/22  14:53:01  BASE  2.21676  66   2.87532  63   -5.6  94    -6.5  9     0     992.5    NA       0.0000   9999     11550 0     0    
2019/06/22  14:54:01  BASE  2.1168   59   2.87532  63   -5.6  94    -6.5  9     0     992.5    NA       0.0000   9999     11580 0     0    
2019/06/22  14:55:01  BASE  2.15208  57   2.87532  63   -5.6  94    -6.4  9     0     992.5    NA       0.0000   9999     11650 0     0    
2019/06/22  14:56:01  BASE  2.28144  58   2.87532  63   -5.6  94    -6.4  9     0     992.5    NA       0.0000   9999     11610 0     0    
2019/06/22  14:57:01  BASE  2.3226   52   2.87532  63   -5.6  94    -6.5  9     0     992.5    NA       0.0000   9999     2890  11610 0    
2019/06/22  14:58:01  BASE  2.21676  53   2.87532  63   -5.6  93    -6.5  10    0     992.6    NA       0.0000   9999     2850  0     0    
2019/06/22  14:59:01  BASE  2.13444  55   2.87532  63   -5.6  93    -6.6  10    0     992.6    NA       0.0000   9999     11580 0     0    
2019/06/22  15:00:01  BASE  2.09916  52   2.87532  63   -5.7  93    -6.6  10    0     992.6    NA       0.0000   9999     2890  0     0    
2019/06/22  15:01:01  BASE  2.0874   50   2.87532  63   -5.7  93    -6.7  10    0     992.6    NA       0.0000   9999     2990  0     0    
2019/06/22  15:02:01  BASE  1.98156  51   2.48136  47   -5.7  93    -6.7  10    0     992.6    NA       0.0000   9999     2890  0     0    
2019/06/22  15:03:01  BASE  1.95216  54   2.48136  47   -5.8  93    -6.7  10    0     992.6    NA       0.0000   9999     2990  0     0    
2019/06/22  15:04:01  BASE  2.01684  53   2.48136  47   -5.8  93    -6.7  10    0     992.6    NA       0.0000   9999     2950  0     0    
2019/06/22  15:05:01  BASE  2.05212  51   2.48136  47   -5.8  93    -6.8  10    0     992.6    NA       0.0000   9999     2890  0     0    
2019/06/22  15:06:01  BASE  2.06388  52   2.42256  50   -5.8  93    -6.8  10    0     992.6    NA       0.0000   9999     2890  0     0    
2019/06/22  15:07:01  BASE  2.06976  53   2.29908  49   -5.8  93    -6.8  10    0     992.6    NA       0.0000   9999     2920  0     0    
2019/06/22  15:08:01  BASE  2.15796  53   2.29908  52   -5.8  92    -6.8  10    0     992.6    NA       0.0000   9999     2850  0     0    
2019/06/22  15:09:01  BASE  2.11092  52   2.29908  52   -5.8  92    -6.9  10    0     992.6    NA       0.0000   9999     2850  0     0    
2019/06/22  15:10:01  BASE  2.04036  52   2.29908  52   -5.8  92    -6.8  10    0     992.6    NA       0.0000   9999     2890  0     0    
2019/06/22  15:11:01  BASE  2.0286   51   2.29908  52   -5.8  92    -6.8  9     0     992.7    NA       0.0000   9999     2950  0     0    
2019/06/22  15:12:01  BASE  2.06976  49   2.29908  52   -5.8  92    -6.9  9     0     992.7    NA       0.0000   9999     0     0     0    
2019/06/22  15:13:01  BASE  2.09328  50   2.29908  52   -5.7  92    -6.8  9     0     992.6    NA       0.0000   9999     0     0     0    
2019/06/22  15:14:01  BASE  2.01096  46   2.29908  52   -5.7  92    -6.8  9     0     992.6    NA       0.0000   9999     2890  0     0    
2019/06/22  15:15:01  BASE  1.97568  47   2.29908  52   -5.7  92    -6.8  9     0     992.6    NA       0.0000   9999     2850  0     0    
2019/06/22  15:16:01  BASE  1.97568  48   2.29908  52   -5.7  92    -6.8  9     0     992.7    NA       0.0000   9999     3050  0     0    
2019/06/22  15:17:01  BASE  1.9992   45   2.29908  52   -5.7  92    -6.8  9     0     992.7    NA       0.0000   9999     3020  0     0    
2019/06/22  15:18:01  BASE  1.98156  44   2.24028  56   -5.7  92    -6.8  9     0     992.7    NA       0.0000   9999     3120  0     0    
2019/06/22  15:19:01  BASE  1.92864  44   2.24028  56   -5.7  92    -6.8  9     0     992.7    NA       0.0000   9999     3050  0     0    
2019/06/22  15:20:01  BASE  1.77576  44   2.24028  56   -5.8  92    -6.9  10    0     992.7    NA       0.0000   9999     3080  0     0    
2019/06/22  15:21:01  BASE  1.74636  44   2.24028  56   -5.8  92    -7.0  10    0     992.7    NA       0.0000   9999     3080  0     0    
2019/06/22  15:22:01  BASE  1.81692  44   2.1462   47   -5.8  92    -7.0  10    0     992.8    NA       0.0000   9999     2990  0     0    
2019/06/22  15:23:01  BASE  1.69344  41   2.1462   47   -5.9  92    -7.0  10    0     992.8    NA       0.0000   9999     3020  0     0    
2019/06/22  15:24:01  BASE  1.65228  39   2.0874   41   -5.9  91    -7.1  11    0     992.8    NA       0.0000   9999     2990  0     0    
2019/06/22  15:25:01  BASE  1.65228  43   2.0874   41   -5.9  91    -7.1  11    0     992.8    NA       0.0000   9999     3080  0     0    
2019/06/22  15:26:01  BASE  1.66404  46   2.0874   41   -5.9  91    -7.1  11    0     992.8    NA       0.0000   9999     0     0     0    
2019/06/22  15:27:01  BASE  1.85808  48   2.0874   50   -5.9  91    -7.1  10    0     992.8    NA       0.0000   9999     0     0     0    
2019/06/22  15:28:01  BASE  1.95804  47   2.0874   50   -5.9  91    -7.2  10    0     992.8    NA       0.0000   9999     0     0     0    
2019/06/22  15:29:01  BASE  1.96392  47   2.1168   49   -5.9  91    -7.1  10    0     992.8    NA       0.0000   9999     0     0     0    
2019/06/22  15:30:01  BASE  2.09916  48   2.35788  42   -5.9  91    -7.1  10    0     992.8    NA       0.0000   9999     0     0     0    
2019/06/22  15:31:01  BASE  2.1462   46   2.35788  42   -5.9  91    -7.1  10    0     992.8    NA       0.0000   9999     3350  0     0    
2019/06/22  15:32:01  BASE  2.07564  45   2.35788  38   -5.9  91    -7.1  10    0     992.8    NA       0.0000   9999     3350  4000  0    
2019/06/22  15:33:01  BASE  2.18148  46   2.54016  44   -5.9  91    -7.1  11    0     992.8    NA       0.0000   9999     3310  3940  0    
2019/06/22  15:34:01  BASE  2.22264  46   2.54016  44   -5.9  91    -7.1  11    0     992.8    NA       0.0000   9999     3250  3870  0    
2019/06/22  15:35:01  BASE  2.25792  46   2.54016  46   -5.9  91    -7.1  11    0     992.8    NA       0.0000   9999     3250  3770  0    
2019/06/22  15:36:01  BASE  2.36376  47   2.54016  46   -6.0  91    -7.1  11    0     992.8    NA       0.0000   9999     3810  0     0    
2019/06/22  15:37:01  BASE  2.30496  48   2.56956  50   -6.0  92    -7.1  12    0     992.8    NA       0.0000   9999     3710  0     0    
2019/06/22  15:38:01  BASE  2.32848  52   2.56956  54   -5.9  92    -7.1  12    0     992.8    NA       0.0000   9999     1900  3670  0    
2019/06/22  15:39:01  BASE  2.4402   52   2.81064  53   -5.9  92    -7.0  13    0     992.7    NA       0.0000   9999     1840  3640  0    
2019/06/22  15:40:01  BASE  2.53428  51   2.81064  53   -5.9  92    -7.0  13    0     992.7    NA       0.0000   9999     1870  3510  0    
2019/06/22  15:41:01  BASE  2.53428  52   2.81064  53   -5.9  92    -7.0  14    0     992.8    NA       0.0000   9999     1900  3610  0    
2019/06/22  15:42:01  BASE  2.41668  58   2.81064  53   -5.9  92    -7.0  14    0     992.8    NA       0.0000   9999     3350  0     0    
2019/06/22  15:43:01  BASE  2.42256  60   2.81064  53   -5.8  92    -6.9  14    0     992.8    NA       0.0000   9999     1900  3310  0    
2019/06/22  15:44:01  BASE  2.36964  60   2.81064  53   -5.8  92    -6.9  15    0     992.8    NA       0.0000   9999     3280  0     0    
2019/06/22  15:45:01  BASE  2.30496  63   2.81064  53   -5.8  92    -6.9  15    0     992.8    NA       0.0000   9999     3280  0     0    
2019/06/22  15:46:01  BASE  2.44608  63   2.81064  53   -5.8  92    -6.9  16    0     992.8    NA       0.0000   9999     3220  0     0    
2019/06/22  15:47:01  BASE  2.39316  66   2.81064  53   -5.7  92    -6.9  16    0     992.7    NA       0.0000   9999     3150  0     0    
2019/06/22  15:48:01  BASE  2.31084  67   2.81064  53   -5.7  91    -6.9  17    0     992.7    NA       0.0000   9999     3120  0     0    
2019/06/22  15:49:01  BASE  2.31084  66   2.78124  62   -5.7  91    -6.9  17    0     992.7    NA       0.0000   9999     3150  0     0    
2019/06/22  15:50:01  BASE  2.2932   68   2.78124  62   -5.7  91    -7.0  17    0     992.7    NA       0.0000   9999     3080  0     0    
2019/06/22  15:51:01  BASE  2.31084  65   2.78124  62   -5.7  91    -7.0  18    0     992.7    NA       0.0000   9999     3180  0     0    
2019/06/22  15:52:01  BASE  2.42256  64   2.75184  65   -5.7  91    -6.9  18    0     992.8    NA       0.0000   9999     3220  0     0    
2019/06/22  15:53:01  BASE  2.4696   64   2.75184  65   -5.7  91    -7.0  18    0     992.8    NA       0.0000   9999     3250  0     0    
2019/06/22  15:54:01  BASE  2.39316  63   2.75184  65   -5.7  91    -7.0  17    0     992.8    NA       0.0000   9999     3180  0     0    
2019/06/22  15:55:01  BASE  2.3814   62   2.75184  65   -5.8  91    -7.0  17    0     992.8    NA       0.0000   9999     3250  0     0    
2019/06/22  15:56:01  BASE  2.36376  63   2.69304  62   -5.8  90    -7.1  17    0     992.8    NA       0.0000   9999     3220  0     0    
2019/06/22  15:57:01  BASE  2.41668  63   2.69304  62   -5.8  90    -7.1  16    0     992.8    NA       0.0000   9999     3250  0     0    
2019/06/22  15:58:01  BASE  2.38728  64   2.69304  62   -5.8  90    -7.2  15    0     992.7    NA       0.0000   9999     3250  0     0    
2019/06/22  15:59:01  BASE  2.34024  62   2.69304  62   -5.8  90    -7.1  15    0     992.7    NA       0.0000   9999     3180  0     0    
2019/06/22  16:00:01  BASE  2.34612  62   2.69304  68   -5.7  90    -7.1  14    0     992.7    NA       0.0000   9999     3150  0     0    
2019/06/22  16:01:01  BASE  2.25792  66   2.69304  68   -5.7  90    -7.1  14    0     992.7    NA       0.0000   9999     3120  0     0    
2019/06/22  16:02:01  BASE  2.26968  65   2.69304  68   -5.7  90    -7.1  13    0     992.8    NA       0.0000   9999     3120  0     0    
2019/06/22  16:03:01  BASE  2.3226   64   2.69304  68   -5.7  90    -7.1  13    0     992.7    NA       0.0000   9999     3150  0     0    
2019/06/22  16:04:01  BASE  2.25792  62   2.69304  68   -5.7  90    -7.1  13    0     992.8    NA       0.0000   9999     3180  0     0    
2019/06/22  16:05:01  BASE  2.18148  61   2.69304  68   -5.7  90    -7.1  13    0     992.8    NA       0.0000   9999     3220  0     0    
2019/06/22  16:06:01  BASE  2.18148  62   2.69304  68   -5.7  90    -7.1  13    0     992.8    NA       0.0000   9999     3180  0     0    
2019/06/22  16:07:01  BASE  2.09916  60   2.69304  68   -5.7  89    -7.1  14    0     992.4    NA       0.0000   9999     3180  0     0    
2019/06/22  16:08:01  BASE  2.0286   57   2.69304  68   -5.6  89    -7.1  14    0     992.4    NA       0.0000   9999     3220  0     0    
2019/06/22  16:09:01  BASE  2.0286   55   2.69304  68   -5.6  89    -7.2  14    0     992.8    NA       0.0000   9999     3180  0     0    
2019/06/22  16:10:01  BASE  1.98156  53   2.63424  64   -5.6  89    -7.1  15    0     992.8    NA       0.0000   9999     3220  0     0    
2019/06/22  16:11:01  BASE  1.95804  52   2.63424  64   -5.6  89    -7.1  15    0     992.8    NA       0.0000   9999     3050  0     0    
2019/06/22  16:12:01  BASE  1.94628  53   2.45196  56   -5.6  89    -7.2  15    0     992.8    NA       0.0000   9999     3150  0     0    
2019/06/22  16:13:01  BASE  1.92276  53   2.38728  66   -5.7  89    -7.2  15    0     992.2    NA       0.0000   9999     3150  0     0    
2019/06/22  16:14:01  BASE  1.92864  49   2.38728  66   -5.7  89    -7.2  14    0     992.8    NA       0.0000   9999     3150  0     0    
2019/06/22  16:15:01  BASE  1.92276  47   2.38728  66   -5.7  89    -7.2  14    0     992.8    NA       0.0000   9999     2990  0     0    
2019/06/22  16:16:01  BASE  1.91688  46   2.26968  51   -5.7  89    -7.2  14    0     992.8    NA       0.0000   9999     3050  0     0    
2019/06/22  16:17:01  BASE  1.84632  48   2.26968  51   -5.7  89    -7.3  14    0     992.8    NA       0.0000   9999     3020  0     0    
2019/06/22  16:18:01  BASE  1.7346   51   2.21088  45   -5.7  89    -7.3  14    0     992.8    NA       0.0000   9999     3050  0     0    
2019/06/22  16:19:01  BASE  1.9404   48   2.35788  41   -5.7  89    -7.3  13    0     992.8    NA       0.0000   9999     3050  0     0    
2019/06/22  16:20:01  BASE  2.058    45   2.35788  41   -5.7  89    -7.2  13    0     992.8    NA       0.0000   9999     3020  0     0    
2019/06/22  16:21:01  BASE  1.89924  43   2.35788  41   -5.7  89    -7.2  13    0     992.8    NA       0.0000   9999     2950  0     0    
2019/06/22  16:22:01  BASE  1.82868  46   2.35788  41   -5.7  89    -7.2  13    0     992.8    NA       0.0000   9999     2950  0     0    
2019/06/22  16:23:01  BASE  1.911    48   2.35788  41   -5.7  89    -7.2  13    0     992.8    NA       0.0000   9999     3020  0     0    
2019/06/22  16:24:01  BASE  1.96392  46   2.35788  41   -5.7  89    -7.2  13    0     992.8    NA       0.0000   9999     2890  0     0    
2019/06/22  16:25:01  BASE  1.98744  48   2.35788  41   -5.7  89    -7.3  12    0     992.8    NA       0.0000   9999     2850  0     0    
2019/06/22  16:26:01  BASE  2.04036  45   2.35788  41   -5.7  89    -7.3  12    0     992.8    NA       0.0000   9999     2850  0     0    
2019/06/22  16:27:01  BASE  1.9404   45   2.35788  41   -5.8  89    -7.3  12    0     992.8    NA       0.0000   9999     2720  0     0    
2019/06/22  16:28:01  BASE  1.8816   51   2.35788  41   -5.8  89    -7.3  12    0     992.8    NA       0.0000   9999     2660  0     0    
2019/06/22  16:29:01  BASE  1.92864  54   2.32848  48   -5.8  89    -7.3  12    0     992.8    NA       0.0000   9999     2660  0     0    
2019/06/22  16:30:01  BASE  1.94628  53   2.32848  48   -5.7  89    -7.2  12    0     992.8    NA       0.0000   9999     2560  0     0    
2019/06/22  16:31:01  BASE  1.98744  48   2.32848  48   -5.7  89    -7.2  12    0     992.8    NA       0.0000   9999     2790  0     0    
2019/06/22  16:32:01  BASE  2.0286   49   2.35788  51   -5.7  89    -7.2  11    0     992.8    NA       0.0000   9999     2850  0     0    
2019/06/22  16:33:01  BASE  2.1756   51   2.54016  52   -5.7  89    -7.2  12    0     992.8    NA       0.0000   9999     2850  0     0    
2019/06/22  16:34:01  BASE  2.21088  48   2.54016  52   -5.7  89    -7.3  11    0     992.9    NA       0.0000   9999     2890  0     0    
2019/06/22  16:35:01  BASE  2.04036  43   2.54016  52   -5.7  89    -7.3  11    0     992.7    NA       0.0000   9999     2950  0     0    
2019/06/22  16:36:01  BASE  2.05212  39   2.54016  46   -5.7  89    -7.3  11    0     992.9    NA       0.0000   9999     2990  0     0    
2019/06/22  16:37:01  BASE  1.98744  39   2.54016  46   -5.7  89    -7.2  12    0     992.9    NA       0.0000   9999     3020  0     0    
2019/06/22  16:38:01  BASE  1.68756  49   2.54016  46   -5.6  89    -7.1  12    0     992.6    NA       0.0000   9999     2990  0     0    
2019/06/22  16:39:01  BASE  1.5288   56   2.54016  46   -5.5  89    -7.0  12    0     992.7    NA       0.0000   9999     2890  0     0    
2019/06/22  16:40:01  BASE  1.62288  57   2.54016  46   -5.5  89    -7.1  12    0     992.9    NA       0.0000   9999     2920  0     0    
2019/06/22  16:41:01  BASE  1.76988  63   2.54016  46   -5.5  89    -7.1  12    0     992.9    NA       0.0000   9999     2920  0     0    
2019/06/22  16:42:01  BASE  1.71696  63   2.54016  46   -5.5  89    -7.1  12    0     992.9    NA       0.0000   9999     2820  0     0    
2019/06/22  16:43:01  BASE  1.58172  71   2.54016  46   -5.5  88    -7.1  13    0     992.9    NA       0.0000   9999     2790  0     0    
2019/06/22  16:44:01  BASE  1.71108  79   2.54016  46   -5.5  88    -7.2  13    0     992.8    NA       0.0000   9999     2720  0     0    
2019/06/22  16:45:01  BASE  1.911    77   2.54016  46   -5.5  88    -7.2  13    0     992.9    NA       0.0000   9999     2720  0     0    
2019/06/22  16:46:01  BASE  2.058    76   2.63424  78   -5.5  88    -7.2  14    0     992.9    NA       0.0000   9999     2690  0     0    
2019/06/22  16:47:01  BASE  2.0286   77   2.63424  78   -5.6  88    -7.2  15    0     992.9    NA       0.0000   9999     2590  0     0    
2019/06/22  16:48:01  BASE  2.06388  80   2.63424  78   -5.6  88    -7.3  16    0     992.8    NA       0.0000   9999     2560  0     0    
2019/06/22  16:49:01  BASE  2.0874   80   2.63424  78   -5.6  88    -7.3  16    0     992.8    NA       0.0000   9999     2560  0     0    
2019/06/22  16:50:01  BASE  1.95216  80   2.63424  78   -5.7  88    -7.3  17    0     992.8    NA       0.0000   9999     2490  0     0    
2019/06/22  16:51:01  BASE  1.96392  79   2.63424  78   -5.7  88    -7.3  18    0     992.7    NA       0.0000   9999     2490  0     0    
2019/06/22  16:52:01  BASE  2.058    79   2.63424  78   -5.7  88    -7.4  18    0     992.8    NA       0.0000   9999     2530  0     0    
2019/06/22  16:53:01  BASE  2.04624  80   2.63424  78   -5.7  88    -7.4  18    0     992.8    NA       0.0000   9999     2490  0     0    
2019/06/22  16:54:01  BASE  1.84044  79   2.63424  78   -5.7  88    -7.4  18    0     992.8    NA       0.0000   9999     2460  0     0    
2019/06/22  16:55:01  BASE  1.71696  73   2.63424  78   -5.6  88    -7.4  18    0     992.6    NA       0.0000   9999     0     0     0    
2019/06/22  16:56:01  BASE  1.75224  69   2.54016  79   -5.6  87    -7.3  18    0     992.8    NA       0.0000   9999     0     0     0    
2019/06/22  16:57:01  BASE  1.75224  66   2.54016  79   -5.6  87    -7.3  17    0     992.8    NA       0.0000   9999     0     0     0    
2019/06/22  16:58:01  BASE  1.81692  66   2.48136  78   -5.5  87    -7.3  16    0     992.8    NA       0.0000   9999     0     0     0    
2019/06/22  16:59:01  BASE  1.77576  68   2.48136  78   -5.5  87    -7.3  16    0     992.8    NA       0.0000   9999     0     0     0    
2019/06/22  17:00:01  BASE  1.71696  71   2.48136  78   -5.5  87    -7.3  15    0     992.8    NA       0.0000   9999     0     0     0    
2019/06/22  17:01:01  BASE  1.86984  66   2.45196  80   -5.4  87    -7.3  15    0     992.8    NA       0.0000   9999     0     0     0    
2019/06/22  17:02:01  BASE  1.96392  59   2.45196  80   -5.4  87    -7.3  14    0     992.8    NA       0.0000   9999     0     0     0    
2019/06/22  17:03:01  BASE  2.14032  58   2.56956  52   -5.4  87    -7.3  13    0     992.8    NA       0.0000   9999     0     0     0    
2019/06/22  17:04:01  BASE  2.28732  54   2.56956  52   -5.4  86    -7.3  12    0     992.8    NA       0.0000   9999     0     0     0    
2019/06/22  17:05:01  BASE  2.15208  61   2.84592  70   -5.4  86    -7.4  12    0     992.8    NA       0.0000   9999     0     0     0    
2019/06/22  17:06:01  BASE  2.09916  62   2.84592  70   -5.5  86    -7.4  11    0     992.8    NA       0.0000   9999     0     0     0    
2019/06/22  17:07:01  BASE  2.22852  57   2.84592  70   -5.5  86    -7.4  11    0     992.8    NA       0.0000   9999     0     0     0    
2019/06/22  17:08:01  BASE  2.3226   55   2.84592  70   -5.5  86    -7.5  10    0     992.8    NA       0.0000   9999     0     0     0    
2019/06/22  17:09:01  BASE  2.31084  55   2.84592  70   -5.5  86    -7.5  10    0     992.8    NA       0.0000   9999     0     0     0    
2019/06/22  17:10:01  BASE  2.28732  54   2.84592  70   -5.5  85    -7.6  10    0     992.8    NA       0.0000   9999     0     0     0    
2019/06/22  17:11:01  BASE  2.43432  54   2.84592  70   -5.6  85    -7.7  10    0     992.8    NA       0.0000   9999     0     0     0    
2019/06/22  17:12:01  BASE  2.46372  55   2.84592  70   -5.6  85    -7.7  10    0     992.8    NA       0.0000   9999     0     0     0    
2019/06/22  17:13:01  BASE  2.35788  57   2.84592  70   -5.7  85    -7.8  9     0     992.8    NA       0.0000   9999     0     0     0    
2019/06/22  17:14:01  BASE  2.22264  60   2.84592  70   -5.7  85    -7.8  9     0     992.8    NA       0.0000   9999     0     0     0    
2019/06/22  17:15:01  BASE  2.16384  57   2.81064  59   -5.8  85    -7.9  9     0     992.8    NA       0.0000   9999     0     0     0    
2019/06/22  17:16:01  BASE  2.29908  54   2.81064  59   -5.8  85    -7.9  9     0     992.7    NA       0.0000   9999     0     0     0    
2019/06/22  17:17:01  BASE  2.31672  53   2.81064  59   -5.8  85    -8.0  9     0     992.7    NA       0.0000   9999     0     0     0    
2019/06/22  17:18:01  BASE  2.22264  52   2.81064  59   -5.9  85    -7.9  9     0     992.7    NA       0.0000   9999     0     0     0    
2019/06/22  17:19:01  BASE  2.1756   55   2.81064  59   -5.9  85    -7.9  9     0     992.7    NA       0.0000   9999     0     0     0    
2019/06/22  17:20:01  BASE  2.38728  55   2.84592  52   -5.9  86    -7.9  9     0     992.7    NA       0.0000   9999     0     0     0    
2019/06/22  17:21:01  BASE  2.47548  54   2.84592  52   -5.9  86    -7.9  9     0     992.7    NA       0.0000   9999     0     0     0    
2019/06/22  17:22:01  BASE  2.45784  56   2.84592  52   -5.8  86    -7.8  9     0     992.7    NA       0.0000   9999     0     0     0    
2019/06/22  17:23:01  BASE  2.49312  58   2.84592  52   -5.9  86    -7.8  9     0     992.7    NA       0.0000   9999     0     0     0    
2019/06/22  17:24:01  BASE  2.35788  59   2.84592  52   -5.9  86    -7.9  8     0     992.7    NA       0.0000   9999     0     0     0    
2019/06/22  17:25:01  BASE  2.14032  65   2.84592  52   -5.9  86    -7.9  8     0     992.7    NA       0.0000   9999     0     0     0    
2019/06/22  17:26:01  BASE  2.05212  69   2.84592  52   -5.9  86    -7.9  8     0     992.7    NA       0.0000   9999     0     0     0    
2019/06/22  17:27:01  BASE  2.0874   69   2.84592  52   -5.9  86    -7.8  8     0     992.7    NA       0.0000   9999     0     0     0    
2019/06/22  17:28:01  BASE  2.12856  72   2.84592  52   -5.9  86    -7.8  8     0     992.8    NA       0.0000   9999     0     0     0    
2019/06/22  17:29:01  BASE  2.15208  78   2.84592  52   -5.8  86    -7.8  8     0     992.7    NA       0.0000   9999     0     0     0    
2019/06/22  17:30:01  BASE  2.24028  84   2.81064  81   -5.8  86    -7.8  8     0     992.7    NA       0.0000   9999     0     0     0    
2019/06/22  17:31:01  BASE  2.27556  80   2.81064  81   -5.9  86    -7.8  8     0     992.2    NA       0.0000   9999     0     0     0    
2019/06/22  17:32:01  BASE  2.21088  78   2.81064  81   -5.9  86    -7.9  8     0     992.7    NA       0.0000   9999     0     0     0    
2019/06/22  17:33:01  BASE  2.40492  75   3.1752   81   -6.0  86    -7.9  8     0     992.7    NA       0.0000   9999     0     0     0    
2019/06/22  17:34:01  BASE  2.6166   66   3.1752   81   -6.0  86    -8.0  8     0     992.7    NA       0.0000   9999     0     0     0    
2019/06/22  17:35:01  BASE  2.4108   62   3.1752   81   -6.1  86    -8.1  8     0     992.7    NA       0.0000   9999     0     0     0    
2019/06/22  17:36:01  BASE  2.24028  62   3.1752   81   -6.1  86    -8.1  8     0     992.3    NA       0.0000   9999     0     0     0    
2019/06/22  17:37:01  BASE  2.04624  65   3.1752   81   -6.1  86    -8.0  7     0     992.4    NA       0.0000   9999     0     0     0    
2019/06/22  17:38:01  BASE  1.84044  72   3.1752   81   -6.1  86    -8.0  7     0     992.7    NA       0.0000   9999     0     0     0    
2019/06/22  17:39:01  BASE  1.95216  66   3.1752   81   -6.0  86    -8.0  7     0     992.7    NA       0.0000   9999     0     0     0    
2019/06/22  17:40:01  BASE  2.06388  54   3.1752   81   -6.0  86    -8.0  7     0     992.7    NA       0.0000   9999     0     0     0    
2019/06/22  17:41:01  BASE  2.07564  50   3.1752   81   -6.0  86    -8.0  7     0     992.7    NA       0.0000   9999     0     0     0    
2019/06/22  17:42:01  BASE  2.06388  49   3.1752   81   -6.0  86    -7.9  7     0     992.7    NA       0.0000   9999     0     0     0    
2019/06/22  17:43:01  BASE  2.15796  47   2.96352  54   -6.0  86    -7.9  7     0     992.7    NA       0.0000   9999     0     0     0    
2019/06/22  17:44:01  BASE  2.19912  43   2.63424  39   -6.0  86    -8.0  7     0     992.7    NA       0.0000   9999     0     0     0    
2019/06/22  17:45:01  BASE  2.04036  43   2.63424  39   -6.0  86    -8.0  7     0     992.7    NA       0.0000   9999     0     0     0    
2019/06/22  17:46:01  BASE  1.8816   41   2.63424  39   -6.1  86    -8.0  7     0     992.7    NA       0.0000   9999     0     0     0    
2019/06/22  17:47:01  BASE  1.81692  37   2.63424  39   -6.1  86    -8.1  7     0     992.7    NA       0.0000   9999     0     0     0    
2019/06/22  17:48:01  BASE  1.83456  42   2.63424  39   -6.2  86    -8.1  7     0     992.7    NA       0.0000   9999     0     0     0    
2019/06/22  17:49:01  BASE  1.80516  44   2.63424  39   -6.1  86    -8.1  6     0     992.7    NA       0.0000   9999     0     0     0    
2019/06/22  17:50:01  BASE  1.8816   44   2.63424  39   -6.2  86    -8.1  6     0     992.7    NA       0.0000   9999     0     0     0    
2019/06/22  17:51:01  BASE  1.92276  47   2.63424  39   -6.1  86    -8.1  6     0     992.7    NA       0.0000   9999     0     0     0    
2019/06/22  17:52:01  BASE  1.86396  50   2.63424  39   -6.1  86    -8.1  6     0     992.7    NA       0.0000   9999     0     0     0    
2019/06/22  17:53:01  BASE  1.89924  55   2.54016  43   -6.1  86    -8.0  6     0     992.5    NA       0.0000   9999     0     0     0    
2019/06/22  17:54:01  BASE  1.93452  57   2.32848  49   -6.0  86    -8.0  6     0     992.7    NA       0.0000   9999     0     0     0    
2019/06/22  17:55:01  BASE  1.99332  56   2.32848  49   -6.0  86    -8.0  6     0     992.7    NA       0.0000   9999     0     0     0    
2019/06/22  17:56:01  BASE  2.0874   57   2.32848  49   -6.0  86    -7.9  6     0     992.7    NA       0.0000   9999     0     0     0    
2019/06/22  17:57:00  BASE  2.1462   56   2.32848  49   -5.9  86    -7.9  6     0     992.5    NA       0.0000   9999     0     0     0    
2019/06/22  17:58:01  BASE  1.98744  50   2.32848  49   -5.9  86    -7.9  6     0     992.0    NA       0.0000   9999     0     0     0    
2019/06/22  17:59:01  BASE  1.87572  42   2.32848  49   -5.9  86    -7.9  6     0     992.7    NA       0.0000   9999     0     0     0    
2019/06/22  18:00:01  BASE  1.75812  36   2.29908  60   -6.0  86    -8.0  6     0     992.7    NA       0.0000   9999     0     0     0    
2019/06/22  18:01:01  BASE  1.68756  41   2.29908  60   -6.0  86    -8.0  5     0     992.3    NA       0.0000   9999     0     0     0    
2019/06/22  18:02:01  BASE  1.90512  49   2.29908  53   -6.0  86    -8.0  5     0     992.7    NA       0.0000   9999     0     0     0    
2019/06/22  18:03:01  BASE  2.02272  50   2.29908  53   -6.0  86    -8.0  5     0     992.7    NA       0.0000   9999     0     0     0    
2019/06/22  18:04:01  BASE  2.14032  52   2.51076  53   -6.0  86    -8.0  5     0     992.5    NA       0.0000   9999     0     0     0    
2019/06/22  18:05:01  BASE  2.31672  56   2.54016  61   -6.0  86    -8.0  5     0     991.4    NA       0.0000   9999     0     0     0    
2019/06/22  18:06:01  BASE  2.33436  54   2.63424  52   -6.0  86    -7.9  5     0     992.7    NA       0.0000   9999     0     0     0    
2019/06/22  18:07:01  BASE  2.34612  55   2.63424  52   -6.0  86    -8.0  5     0     992.7    NA       0.0000   9999     0     0     0    
2019/06/22  18:08:01  BASE  2.43432  57   2.81064  61   -6.0  86    -8.0  5     0     992.1    NA       0.0000   9999     0     0     0    
2019/06/22  18:09:01  BASE  2.42844  57   2.81064  61   -6.1  86    -8.1  5     0     992.5    NA       0.0000   9999     0     0     0    
2019/06/22  18:10:01  BASE  2.2638   53   2.81064  61   -6.1  86    -8.1  5     0     992.5    NA       0.0000   9999     0     0     0    
2019/06/22  18:11:01  BASE  2.15208  52   2.81064  61   -6.1  86    -8.1  5     0     991.1    NA       0.0000   9999     0     0     0    
2019/06/22  18:12:01  BASE  2.07564  52   2.81064  61   -6.0  86    -8.1  4     0     991.9    NA       0.0000   9999     0     0     0    
2019/06/22  18:13:01  BASE  2.09916  52   2.81064  61   -6.0  86    -8.0  4     0     992.7    NA       0.0000   9999     0     0     0    
2019/06/22  18:14:01  BASE  2.15208  54   2.81064  61   -6.0  85    -8.0  4     0     992.7    NA       0.0000   9999     0     0     0    
2019/06/22  18:15:01  BASE  2.13444  53   2.81064  61   -5.9  85    -8.0  4     0     992.7    NA       0.0000   9999     0     0     0    
2019/06/22  18:16:01  BASE  2.04624  52   2.81064  61   -5.9  85    -8.0  4     0     992.7    NA       0.0000   9999     0     0     0    
2019/06/22  18:17:01  BASE  2.10504  53   2.81064  61   -5.9  85    -8.0  4     0     992.7    NA       0.0000   9999     0     0     0    
2019/06/22  18:18:01  BASE  2.21676  52   2.59896  56   -5.8  85    -8.0  4     0     992.7    NA       0.0000   9999     0     0     0    
2019/06/22  18:19:01  BASE  2.18736  53   2.59896  56   -5.8  85    -8.0  4     0     992.7    NA       0.0000   9999     0     0     0    
2019/06/22  18:20:01  BASE  2.22264  52   2.59896  56   -5.8  84    -8.0  4     0     992.7    NA       0.0000   9999     0     0     0    
2019/06/22  18:21:01  BASE  2.24028  49   2.59896  51   -5.9  84    -8.1  4     0     992.7    NA       0.0000   9999     0     0     0    
2019/06/22  18:22:01  BASE  2.1462   50   2.59896  51   -5.9  84    -8.2  4     0     992.7    NA       0.0000   9999     0     0     0    
2019/06/22  18:23:01  BASE  2.2638   55   2.63424  58   -6.0  84    -8.2  4     0     992.7    NA       0.0000   9999     0     0     0    
2019/06/22  18:24:01  BASE  2.40492  57   2.63424  58   -6.0  84    -8.3  3     0     992.7    NA       0.0000   9999     0     0     0    
2019/06/22  18:25:01  BASE  2.36964  56   2.63424  59   -6.1  84    -8.4  3     0     992.7    NA       0.0000   9999     0     0     0    
2019/06/22  18:26:01  BASE  2.34612  58   2.63424  59   -6.1  84    -8.4  3     0     992.7    NA       0.0000   9999     0     0     0    
2019/06/22  18:27:01  BASE  2.48136  59   2.72244  62   -6.1  84    -8.4  3     0     992.7    NA       0.0000   9999     0     0     0    
2019/06/22  18:28:01  BASE  2.55192  58   2.72244  62   -6.0  84    -8.3  3     0     992.7    NA       0.0000   9999     0     0     0    
2019/06/22  18:29:01  BASE  2.51076  59   2.72244  62   -6.0  84    -8.2  3     0     992.7    NA       0.0000   9999     0     0     0    
2019/06/22  18:30:01  BASE  2.52252  59   2.72244  52   -5.9  84    -8.2  3     0     992.7    NA       0.0000   9999     0     0     0    
2019/06/22  18:31:01  BASE  2.48136  58   2.72244  52   -5.9  84    -8.2  3     0     992.7    NA       0.0000   9999     0     0     0    
2019/06/22  18:32:01  BASE  2.3814   59   2.72244  52   -5.9  84    -8.2  3     0     992.7    NA       0.0000   9999     0     0     0    
2019/06/22  18:33:01  BASE  2.25204  59   2.72244  52   -5.9  84    -8.1  3     0     992.7    NA       0.0000   9999     0     0     0    
2019/06/22  18:34:01  BASE  2.16972  62   2.72244  52   -5.8  84    -8.1  3     0     992.7    NA       0.0000   9999     0     0     0    
2019/06/22  18:35:01  BASE  2.12856  66   2.72244  52   -5.8  84    -8.2  2     0     992.7    NA       0.0000   9999     0     0     0    
2019/06/22  18:36:01  BASE  2.07564  67   2.72244  52   -5.8  83    -8.2  2     0     992.7    NA       0.0000   9999     0     0     0    
2019/06/22  18:37:01  BASE  2.10504  65   2.72244  52   -5.8  83    -8.2  2     0     992.7    NA       0.0000   9999     0     0     0    
2019/06/22  18:38:01  BASE  2.18148  64   2.72244  52   -5.7  83    -8.2  2     0     992.7    NA       0.0000   9999     0     0     0    
2019/06/22  18:39:01  BASE  2.03448  64   2.72244  52   -5.7  82    -8.2  2     0     992.6    NA       0.0000   9999     0     0     0    
2019/06/22  18:40:01  BASE  1.96392  67   2.63424  59   -5.7  82    -8.3  2     0     992.6    NA       0.0000   9999     0     0     0    
2019/06/22  18:41:01  BASE  2.24028  68   2.56956  69   -5.7  82    -8.3  2     0     992.6    NA       0.0000   9999     0     0     0    
2019/06/22  18:42:01  BASE  2.49312  67   2.69304  63   -5.8  81    -8.5  2     0     992.6    NA       0.0000   9999     0     0     0    
2019/06/22  18:43:00  BASE  2.63424  66   2.87532  60   -5.9  81    -8.7  2     0     992.6    NA       0.0000   9999     0     0     0    
2019/06/22  18:44:00  BASE  2.72832  64   3.087    66   -6.0  80    -8.8  2     0     992.6    NA       0.0000   9999     0     0     0    
2019/06/22  18:45:01  BASE  2.7048   66   3.087    66   -6.1  80    -9.0  2     0     992.6    NA       0.0000   9999     0     0     0    
2019/06/22  18:46:01  BASE  2.65188  67   3.087    66   -6.2  80    -9.1  2     0     992.6    NA       0.0000   9999     0     0     0    
2019/06/22  18:47:00  BASE  2.66364  67   3.087    66   -6.2  80    -9.0  1     0     992.6    NA       0.0000   9999     0     0     0    
2019/06/22  18:48:00  BASE  2.7636   65   3.1458   60   -6.1  81    -8.9  1     0     992.6    NA       0.0000   9999     0     0     0    
2019/06/22  18:49:00  BASE  2.80476  61   3.1458   60   -6.0  81    -8.8  1     0     992.6    NA       0.0000   9999     0     0     0    
2019/06/22  18:50:01  BASE  2.75184  60   3.1458   60   -5.9  81    -8.6  1     0     992.6    NA       0.0000   9999     0     0     0    
2019/06/22  18:51:00  BASE  2.65188  60   3.1458   60   -5.8  81    -8.6  1     0     992.6    NA       0.0000   9999     0     0     0    
2019/06/22  18:52:00  BASE  2.56368  60   3.1458   60   -5.9  81    -8.6  1     0     992.4    NA       0.0000   9999     0     0     0    
2019/06/22  18:53:01  BASE  2.68716  61   3.1458   60   -5.9  81    -8.7  1     0     991.6    NA       0.0000   9999     0     0     0    
2019/06/22  18:54:00  BASE  2.65188  60   3.1458   60   -5.9  81    -8.7  1     0     992.3    NA       0.0000   9999     0     0     0    
2019/06/22  18:55:00  BASE  2.34612  60   3.1458   60   -6.0  81    -8.7  1     0     992.7    NA       0.0000   9999     0     0     0    
2019/06/22  18:56:00  BASE  2.24616  62   3.1458   60   -6.0  81    -8.7  1     0     992.7    NA       0.0000   9999     0     0     0    
2019/06/22  18:57:00  BASE  2.28732  63   3.1458   60   -6.0  81    -8.7  1     0     992.7    NA       0.0000   9999     0     0     0    
2019/06/22  18:58:01  BASE  2.42256  64   3.087    60   -6.0  81    -8.7  1     0     992.7    NA       0.0000   9999     0     0     0    
2019/06/22  18:59:01  BASE  2.5872   63   3.087    60   -6.0  81    -8.8  1     0     992.2    NA       0.0000   9999     0     0     0    
2019/06/22  19:00:00  BASE  2.45196  62   3.087    60   -6.1  81    -8.8  1     0     992.5    NA       0.0000   9999     0     0     0    
2019/06/22  19:01:00  BASE  2.21088  67   3.087    60   -6.1  80    -8.9  0     0     992.7    NA       0.0000   9999     0     0     0    
2019/06/22  19:02:00  BASE  2.18736  70   3.087    60   -6.1  80    -8.9  0     0     992.7    NA       0.0000   9999     0     0     0    
2019/06/22  19:03:00  BASE  2.37552  73   2.81064  64   -6.1  80    -9.1  0     0     992.7    NA       0.0000   9999     0     0     0    
2019/06/22  19:04:01  BASE  2.44608  81   2.81064  64   -6.1  80    -9.1  0     0     992.7    NA       0.0000   9999     0     0     0    
2019/06/22  19:05:00  BASE  2.42256  87   2.81064  64   -6.2  79    -9.3  0     0     992.7    NA       0.0000   9999     0     0     0    
2019/06/22  19:06:00  BASE  2.51076  87   2.81064  84   -6.3  79    -9.3  0     0     992.7    NA       0.0000   9999     0     0     0    
2019/06/22  19:07:00  BASE  2.29908  87   2.81064  84   -6.3  79    -9.4  0     0     992.7    NA       0.0000   9999     0     0     0    
2019/06/22  19:08:00  BASE  2.1168   89   2.81064  84   -6.3  79    -9.4  0     0     992.7    NA       0.0000   9999     0     0     0    
2019/06/22  19:09:01  BASE  2.19324  87   2.81064  84   -6.4  79    -9.4  0     0     992.7    NA       0.0000   9999     0     0     0    
2019/06/22  19:10:00  BASE  2.15796  85   2.81064  84   -6.3  79    -9.3  0     0     992.7    NA       0.0000   9999     0     0     0    
2019/06/22  19:11:00  BASE  2.07564  86   2.81064  84   -6.3  79    -9.3  0     0     992.7    NA       0.0000   9999     0     0     0    
2019/06/22  19:12:00  BASE  2.15208  86   2.81064  84   -6.2  79    -9.2  0     0     992.7    NA       0.0000   9999     0     0     0    
2019/06/22  19:13:00  BASE  2.1756   84   2.81064  84   -6.1  79    -9.0  0     0     992.7    NA       0.0000   9999     0     0     0    
2019/06/22  19:14:00  BASE  2.02272  78   2.81064  84   -5.9  79    -8.9  0     0     992.7    NA       0.0000   9999     0     0     0    
2019/06/22  19:15:00  BASE  1.92864  73   2.81064  84   -5.9  79    -8.9  0     0     992.7    NA       0.0000   9999     0     0     0    
2019/06/22  19:16:00  BASE  1.76988  75   2.42256  83   -5.7  79    -8.7  0     0     992.7    NA       0.0000   9999     0     0     0    
2019/06/22  19:17:00  BASE  1.9698   66   2.54016  63   -5.7  79    -8.7  0     0     992.8    NA       0.0000   9999     0     0     0    
2019/06/22  19:18:00  BASE  2.14032  53   2.54016  63   -5.8  79    -8.8  0     0     992.6    NA       0.0000   9999     0     0     0    
2019/06/22  19:19:00  BASE  2.06388  44   2.54016  63   -5.9  79    -8.9  0     0     992.8    NA       0.0000   9999     0     0     0    
2019/06/22  19:20:00  BASE  2.058    45   2.54016  63   -5.9  79    -8.9  0     0     992.8    NA       0.0000   9999     0     0     0    
2019/06/22  19:21:00  BASE  2.04624  52   2.54016  63   -6.0  80    -9.0  0     0     992.8    NA       0.0000   9999     0     0     0    
2019/06/22  19:22:00  BASE  2.13444  57   2.54016  58   -6.1  80    -9.0  0     0     992.8    NA       0.0000   9999     0     0     0    
2019/06/22  19:23:00  BASE  2.14032  62   2.54016  58   -6.2  81    -8.9  0     0     992.8    NA       0.0000   9999     0     0     0    
2019/06/22  19:24:00  BASE  2.1462   65   2.54016  58   -6.2  81    -8.9  0     0     992.8    NA       0.0000   9999     0     0     0    
2019/06/22  19:25:01  BASE  1.89924  60   2.54016  58   -6.2  81    -8.9  0     0     992.8    NA       0.0000   9999     0     0     0    
2019/06/22  19:26:00  BASE  1.5582   60   2.54016  58   -6.2  81    -8.9  0     0     992.6    NA       0.0000   9999     0     0     0    
2019/06/22  19:27:00  BASE  1.55232  63   2.54016  58   -6.1  81    -8.8  0     0     992.8    NA       0.0000   9999     0     0     0    
2019/06/22  19:28:00  BASE  1.58172  63   2.54016  58   -6.1  81    -8.8  0     0     992.6    NA       0.0000   9999     0     0     0    
2019/06/22  19:29:00  BASE  1.60524  59   2.54016  58   -6.0  81    -8.8  0     0     992.8    NA       0.0000   9999     0     0     0    
2019/06/22  19:30:00  BASE  1.7346   54   2.54016  58   -6.0  81    -8.7  0     0     992.8    NA       0.0000   9999     0     0     0    
2019/06/22  19:31:00  BASE  1.9404   51   2.54016  58   -5.9  81    -8.7  0     0     992.8    NA       0.0000   9999     0     0     0    
2019/06/22  19:32:00  BASE  2.00508  46   2.45196  71   -6.0  81    -8.7  0     0     992.8    NA       0.0000   9999     0     0     0    
2019/06/22  19:33:00  BASE  1.83456  46   2.45196  71   -6.0  81    -8.7  0     0     992.8    NA       0.0000   9999     0     0     0    
2019/06/22  19:34:00  BASE  1.89336  46   2.1756   55   -6.1  81    -8.8  0     0     992.6    NA       0.0000   9999     0     0     0    
2019/06/22  19:35:00  BASE  2.06976  45   2.1756   45   -6.2  81    -8.9  0     0     992.7    NA       0.0000   9999     0     0     0    
2019/06/22  19:36:00  BASE  2.11092  42   2.35788  40   -6.2  81    -9.0  0     0     992.8    NA       0.0000   9999     0     0     0    
2019/06/22  19:37:00  BASE  2.10504  43   2.35788  40   -6.3  81    -9.0  0     0     992.8    NA       0.0000   9999     0     0     0    
2019/06/22  19:38:00  BASE  2.13444  44   2.35788  40   -6.3  81    -9.1  0     0     992.8    NA       0.0000   9999     0     0     0    
2019/06/22  19:39:00  BASE  2.1462   44   2.35788  40   -6.4  81    -9.1  0     0     992.8    NA       0.0000   9999     0     0     0    
2019/06/22  19:40:00  BASE  2.24616  45   2.56956  46   -6.4  81    -9.2  0     0     992.8    NA       0.0000   9999     0     0     0    
2019/06/22  19:41:00  BASE  2.33436  42   2.59896  41   -6.4  81    -9.1  0     0     992.8    NA       0.0000   9999     0     0     0    
2019/06/22  19:42:00  BASE  2.25792  42   2.59896  41   -6.4  81    -9.2  0     0     992.8    NA       0.0000   9999     0     0     0    
2019/06/22  19:43:00  BASE  2.41668  43   2.93412  34   -6.4  81    -9.2  0     0     992.7    NA       0.0000   9999     0     0     0    
2019/06/22  19:44:00  BASE  2.58132  42   2.93412  34   -6.4  81    -9.2  0     0     992.5    NA       0.0000   9999     0     0     0    
2019/06/22  19:45:00  BASE  2.48724  43   2.93412  34   -6.5  81    -9.3  0     0     992.8    NA       0.0000   9999     0     0     0    
2019/06/22  19:46:00  BASE  2.4402   44   2.93412  34   -6.5  80    -9.4  0     0     992.8    NA       0.0000   9999     0     0     0    
2019/06/22  19:47:00  BASE  2.39904  45   2.93412  34   -6.6  80    -9.4  0     0     992.8    NA       0.0000   9999     0     0     0    
2019/06/22  19:48:00  BASE  2.22264  47   2.93412  34   -6.6  80    -9.4  0     0     992.8    NA       0.0000   9999     0     0     0    
2019/06/22  19:49:00  BASE  2.205    47   2.93412  34   -6.6  81    -9.4  0     0     992.8    NA       0.0000   9999     0     0     0    
2019/06/22  19:50:00  BASE  2.21088  42   2.93412  34   -6.6  81    -9.3  0     0     992.9    NA       0.0000   9999     0     0     0    
2019/06/22  19:51:00  BASE  1.98156  39   2.93412  34   -6.6  81    -9.3  0     0     992.9    NA       0.0000   9999     0     0     0    
2019/06/22  19:52:00  BASE  1.9698   34   2.93412  34   -6.5  81    -9.2  0     0     992.9    NA       0.0000   9999     0     0     0    
2019/06/22  19:53:00  BASE  2.1462   32   2.87532  37   -6.5  81    -9.3  0     0     992.9    NA       0.0000   9999     0     0     0    
2019/06/22  19:54:00  BASE  2.15208  35   2.78124  45   -6.6  81    -9.3  0     0     992.9    NA       0.0000   9999     0     0     0    
2019/06/22  19:55:00  BASE  1.86984  35   2.66364  41   -6.6  81    -9.3  0     0     992.9    NA       0.0000   9999     0     0     0    
2019/06/22  19:56:00  BASE  1.69932  37   2.66364  41   -6.5  81    -9.2  0     0     992.9    NA       0.0000   9999     0     0     0    
2019/06/22  19:57:00  BASE  1.71696  36   2.66364  41   -6.5  81    -9.2  0     0     992.9    NA       0.0000   9999     0     0     0    
2019/06/22  19:58:00  BASE  1.8228   35   2.66364  41   -6.4  81    -9.1  0     0     992.9    NA       0.0000   9999     0     0     0    
2019/06/22  19:59:00  BASE  1.80516  33   2.56956  34   -6.4  81    -9.1  0     0     992.9    NA       0.0000   9999     0     0     0    
2019/06/22  20:00:00  BASE  2.24616  34   3.1752   41   -6.3  81    -9.1  0     0     992.9    NA       0.0000   9999     0     0     0    
2019/06/22  20:01:00  BASE  2.47548  36   3.1752   41   -6.4  81    -9.1  0     0     992.9    NA       0.0000   9999     0     0     0    
2019/06/22  20:02:00  BASE  2.15796  38   3.1752   41   -6.4  81    -9.1  0     0     992.9    NA       0.0000   9999     0     0     0    
2019/06/22  20:03:00  BASE  2.05212  43   3.1752   41   -6.4  81    -9.2  0     0     992.9    NA       0.0000   9999     0     0     0    
2019/06/22  20:04:00  BASE  2.07564  43   3.1752   41   -6.5  81    -9.3  0     0     992.9    NA       0.0000   9999     0     0     0    
2019/06/22  20:05:00  BASE  2.4696   37   3.1752   41   -6.6  81    -9.4  0     0     992.9    NA       0.0000   9999     0     0     0    
2019/06/22  20:06:00  BASE  2.5872   36   3.1752   41   -6.6  81    -9.4  0     0     992.9    NA       0.0000   9999     0     0     0    
2019/06/22  20:07:00  BASE  2.352    40   3.1752   41   -6.7  81    -9.4  0     0     992.9    NA       0.0000   9999     0     0     0    
2019/06/22  20:08:00  BASE  2.59896  39   3.38688  38   -6.7  81    -9.5  0     0     992.9    NA       0.0000   9999     0     0     0    
2019/06/22  20:09:00  BASE  2.7342   34   3.38688  38   -6.7  81    -9.5  0     0     992.9    NA       0.0000   9999     0     0     0    
2019/06/22  20:10:00  BASE  2.48724  34   3.38688  38   -6.7  81    -9.4  0     0     992.9    NA       0.0000   9999     0     0     0    
2019/06/22  20:11:00  BASE  2.44608  40   3.38688  38   -6.7  81    -9.4  0     0     992.9    NA       0.0000   9999     0     0     0    
2019/06/22  20:12:00  BASE  2.34024  42   3.38688  38   -6.7  81    -9.4  0     0     992.9    NA       0.0000   9999     0     0     0    
2019/06/22  20:13:00  BASE  2.19324  44   3.38688  38   -6.7  81    -9.4  0     0     992.9    NA       0.0000   9999     0     0     0    
2019/06/22  20:14:00  BASE  2.01096  47   3.38688  38   -6.6  81    -9.3  0     0     992.9    NA       0.0000   9999     0     0     0    
2019/06/22  20:15:00  BASE  1.97568  48   3.38688  38   -6.5  81    -9.2  0     0     992.9    NA       0.0000   9999     0     0     0    
2019/06/22  20:16:00  BASE  2.09328  51   3.38688  38   -6.4  81    -9.1  0     0     992.9    NA       0.0000   9999     0     0     0    
2019/06/22  20:17:00  BASE  2.2932   54   3.38688  38   -6.4  81    -9.1  0     0     992.9    NA       0.0000   9999     0     0     0    
2019/06/22  20:18:00  BASE  2.55192  52   3.02232  45   -6.3  81    -9.1  0     0     992.9    NA       0.0000   9999     0     0     0    
2019/06/22  20:19:00  BASE  2.71068  48   3.02232  45   -6.3  80    -9.1  0     0     992.9    NA       0.0000   9999     0     0     0    
2019/06/22  20:20:00  BASE  2.74008  46   3.02232  45   -6.3  80    -9.2  0     0     992.9    NA       0.0000   9999     0     0     0    
2019/06/22  20:21:00  BASE  2.48136  51   3.02232  45   -6.4  80    -9.3  0     0     993.0    NA       0.0000   9999     0     0     0    
2019/06/22  20:22:00  BASE  2.13444  51   3.02232  45   -6.4  80    -9.3  0     0     993.0    NA       0.0000   9999     0     0     0    
2019/06/22  20:23:00  BASE  1.84632  47   3.02232  45   -6.4  80    -9.3  0     0     993.0    NA       0.0000   9999     0     0     0    
2019/06/22  20:24:00  BASE  1.69932  44   3.02232  45   -6.4  80    -9.3  0     0     993.0    NA       0.0000   9999     0     0     0    
2019/06/22  20:25:00  BASE  1.89336  47   3.02232  45   -6.4  80    -9.2  0     0     993.1    NA       0.0000   9999     0     0     0    
2019/06/22  20:26:00  BASE  2.10504  51   3.02232  45   -6.3  80    -9.3  0     0     993.1    NA       0.0000   9999     0     0     0    
2019/06/22  20:27:00  BASE  2.06976  49   3.02232  45   -6.3  80    -9.3  0     0     993.1    NA       0.0000   9999     0     0     0    
2019/06/22  20:28:00  BASE  1.89924  45   2.93412  44   -6.3  79    -9.3  0     0     993.1    NA       0.0000   9999     0     0     0    
2019/06/22  20:29:00  BASE  1.764    45   2.93412  44   -6.3  79    -9.3  0     0     993.0    NA       0.0000   9999     0     0     0    
2019/06/22  20:30:00  BASE  1.61112  45   2.54016  57   -6.3  79    -9.3  0     0     993.0    NA       0.0000   9999     0     0     0    
2019/06/22  20:31:00  BASE  1.48764  46   2.54016  57   -6.2  79    -9.3  0     0     993.0    NA       0.0000   9999     0     0     0    
2019/06/22  20:32:00  BASE  1.51116  50   2.54016  57   -6.2  79    -9.3  0     0     993.0    NA       0.0000   9999     0     0     0    
2019/06/22  20:33:01  BASE  1.55232  49   2.54016  57   -6.2  79    -9.2  0     0     992.9    NA       0.0000   9999     0     0     0    
2019/06/22  20:34:00  BASE  1.62876  47   2.54016  57   -6.2  79    -9.2  0     0     992.9    NA       0.0000   9999     0     0     0    
2019/06/22  20:35:01  BASE  2.12268  49   2.87532  47   -6.1  79    -9.2  0     0     993.0    NA       0.0000   9999     0     0     0    
2019/06/22  20:36:00  BASE  2.78124  50   3.93372  42   -6.2  79    -9.3  0     0     993.0    NA       0.0000   9999     0     0     0    
2019/06/22  20:37:00  BASE  3.2046   44   4.35708  35   -6.2  78    -9.3  0     0     993.0    NA       0.0000   9999     0     0     0    
2019/06/22  20:38:00  BASE  2.94588  46   4.35708  35   -6.2  78    -9.4  0     0     993.1    NA       0.0000   9999     0     0     0    
2019/06/22  20:39:00  BASE  2.47548  59   4.35708  35   -6.3  78    -9.5  0     0     993.0    NA       0.0000   9999     0     0     0    
2019/06/22  20:40:01  BASE  2.49312  67   4.35708  35   -6.4  78    -9.5  0     0     993.0    NA       0.0000   9999     0     0     0    
2019/06/22  20:41:00  BASE  2.68128  70   4.35708  35   -6.4  78    -9.6  0     0     993.1    NA       0.0000   9999     0     0     0    
2019/06/22  20:42:01  BASE  2.56956  77   4.35708  35   -6.4  78    -9.6  0     0     993.0    NA       0.0000   9999     0     0     0    
2019/06/22  20:43:00  BASE  2.82828  82   4.35708  35   -6.5  78    -9.7  0     0     993.0    NA       0.0000   9999     0     0     0    
2019/06/22  20:44:00  BASE  3.16932  81   4.35708  35   -6.6  78    -9.8  0     0     993.0    NA       0.0000   9999     0     0     0    
2019/06/22  20:45:00  BASE  3.45156  80   4.53936  94   -6.7  79    -9.8  0     0     993.1    NA       0.0000   9999     0     0     0    
2019/06/22  20:46:00  BASE  3.58092  80   4.53936  94   -6.8  79    -9.9  0     0     993.0    NA       0.0000   9999     0     0     0    
2019/06/22  20:47:00  BASE  3.44568  78   4.53936  94   -6.9  79    -9.9  0     0     993.0    NA       0.0000   9999     0     0     0    
2019/06/22  20:48:00  BASE  3.30456  80   4.53936  94   -6.9  79    -9.9  0     0     993.0    NA       0.0000   9999     0     0     0    
2019/06/22  20:49:00  BASE  2.92236  84   4.53936  94   -6.9  80    -9.9  0     0     993.0    NA       0.0000   9999     0     0     0    
2019/06/22  20:50:00  BASE  2.793    76   4.53936  94   -6.9  80    -9.8  0     0     993.0    NA       0.0000   9999     0     0     0    
2019/06/22  20:51:00  BASE  2.54604  66   4.53936  94   -6.9  80    -9.8  0     0     993.0    NA       0.0000   9999     0     0     0    
2019/06/22  20:52:00  BASE  2.4402   71   4.53936  94   -7.0  80    -9.8  0     0     993.0    NA       0.0000   9999     0     0     0    
2019/06/22  20:53:00  BASE  2.499    69   4.53936  94   -7.0  81    -9.7  0     0     992.9    NA       0.0000   9999     0     0     0    
2019/06/22  20:54:01  BASE  2.54604  61   4.53936  94   -6.9  81    -9.6  0     0     993.0    NA       0.0000   9999     0     0     0    
2019/06/22  20:55:01  BASE  2.43432  54   3.96312  79   -6.9  82    -9.5  0     0     993.0    NA       0.0000   9999     4070  0     0    
2019/06/22  20:56:00  BASE  2.48136  52   3.96312  79   -6.8  82    -9.4  0     0     993.0    NA       0.0000   9999     4070  0     0    
2019/06/22  20:57:00  BASE  2.72244  48   3.83964  35   -6.7  82    -9.2  0     0     992.9    NA       0.0000   9999     0     0     0    
2019/06/22  20:58:00  BASE  2.94588  37   3.83964  35   -6.6  82    -9.1  0     0     992.9    NA       0.0000   9999     4000  0     0    
2019/06/22  20:59:00  BASE  3.16932  38   4.02192  35   -6.5  82    -9.0  0     0     992.9    NA       0.0000   9999     0     0     0    
2019/06/22  21:00:00  BASE  3.22812  37   4.02192  35   -6.4  82    -8.9  0     0     992.9    NA       0.0000   9999     0     0     0    
2019/06/22  21:01:00  BASE  3.62208  31   4.59816  27   -6.2  82    -8.8  0     0     992.9    NA       0.0000   9999     0     0     0    
2019/06/22  21:02:00  BASE  4.44528  31   5.41548  24   -6.2  82    -8.7  0     0     992.9    NA       0.0000   9999     0     0     0    
2019/06/22  21:03:00  BASE  4.92744  31   5.41548  24   -6.2  82    -8.7  0     0     992.9    NA       0.0000   9999     0     0     0    
2019/06/22  21:04:00  BASE  5.13912  28   5.68596  24   -6.1  82    -8.7  0     0     992.9    NA       0.0000   9999     0     0     0    
2019/06/22  21:05:01  BASE  5.25672  25   5.68596  24   -6.1  82    -8.7  0     0     992.9    NA       0.0000   9999     0     0     0    
2019/06/22  21:06:00  BASE  5.292    24   5.78004  23   -6.1  82    -8.6  0     0     992.9    NA       0.0000   9999     0     0     0    
2019/06/22  21:07:00  BASE  5.13324  23   5.78004  23   -6.1  83    -8.5  0     0     992.9    NA       0.0000   9999     0     0     0    
2019/06/22  21:08:00  BASE  4.92744  18   5.78004  23   -6.0  83    -8.5  0     0     992.9    NA       0.0000   9999     0     0     0    
2019/06/22  21:09:00  BASE  5.3214   15   6.41508  18   -5.9  83    -8.3  0     0     992.9    NA       0.0000   9999     0     0     0    
2019/06/22  21:10:00  BASE  5.4684   10   6.41508  18   -5.8  83    -8.2  0     0     992.9    NA       0.0000   9999     0     0     0    
2019/06/22  21:11:00  BASE  5.42136  6    6.41508  18   -5.6  83    -8.1  0     0     992.9    NA       0.0000   9999     0     0     0    
2019/06/22  21:12:00  BASE  5.44488  8    6.41508  18   -5.5  83    -8.0  0     0     992.9    NA       0.0000   9999     0     0     0    
2019/06/22  21:13:00  BASE  5.57424  13   6.59148  20   -5.4  83    -7.9  0     0     992.9    NA       0.0000   9999     0     0     0    
2019/06/22  21:14:00  BASE  5.53896  15   6.59148  20   -5.4  83    -7.8  0     0     992.9    NA       0.0000   9999     0     0     0    
2019/06/22  21:15:00  BASE  5.00976  15   6.59148  20   -5.4  83    -7.8  0     0     992.9    NA       0.0000   9999     0     0     0    
2019/06/22  21:16:00  BASE  4.87452  22   6.59148  20   -5.4  83    -7.8  0     0     992.9    NA       0.0000   9999     0     0     0    
2019/06/22  21:17:00  BASE  5.19204  26   6.59148  20   -5.4  83    -7.8  0     0     992.9    NA       0.0000   9999     0     0     0    
2019/06/22  21:18:00  BASE  5.12736  25   6.59148  20   -5.4  83    -7.9  0     0     992.9    NA       0.0000   9999     0     0     0    
2019/06/22  21:19:00  BASE  4.62168  28   6.59148  20   -5.4  83    -7.9  0     0     992.9    NA       0.0000   9999     0     0     0    
2019/06/22  21:20:00  BASE  4.4394   29   6.59148  20   -5.5  83    -8.0  0     0     992.9    NA       0.0000   9999     0     0     0    
2019/06/22  21:21:00  BASE  4.557    25   6.59148  20   -5.5  83    -8.0  0     0     992.9    NA       0.0000   9999     0     0     0    
2019/06/22  21:22:00  BASE  4.263    23   6.59148  20   -5.5  83    -8.0  0     0     992.9    NA       0.0000   9999     0     0     0    
2019/06/22  21:23:00  BASE  3.95136  26   6.2034   32   -5.5  83    -7.9  0     0     992.9    NA       0.0000   9999     0     0     0    
2019/06/22  21:24:00  BASE  3.95724  27   6.2034   32   -5.4  83    -7.9  0     0     992.9    NA       0.0000   9999     0     0     0    
2019/06/22  21:25:00  BASE  3.81024  29   6.2034   32   -5.4  83    -7.8  0     0     992.9    NA       0.0000   9999     0     0     0    
2019/06/22  21:26:00  BASE  4.18068  33   6.2034   32   -5.4  83    -7.8  0     0     992.9    NA       0.0000   9999     0     0     0    
2019/06/22  21:27:00  BASE  4.84512  34   5.35668  35   -5.4  83    -7.8  0     0     992.9    NA       0.0000   9999     0     0     0    
2019/06/22  21:28:00  BASE  4.98036  36   5.53308  38   -5.4  83    -7.9  0     0     992.8    NA       0.0000   9999     0     0     0    
2019/06/22  21:29:00  BASE  5.2038   37   6.13872  37   -5.5  83    -8.0  0     0     992.8    NA       0.0000   9999     0     0     0    
2019/06/22  21:30:00  BASE  5.59776  37   6.13872  34   -5.6  83    -8.0  0     0     992.8    NA       0.0000   9999     0     0     0    
2019/06/22  21:31:00  BASE  5.38608  38   6.13872  34   -5.7  83    -8.1  0     0     992.8    NA       0.0000   9999     0     0     0    
2019/06/22  21:32:00  BASE  5.27436  40   6.47388  37   -5.8  84    -8.1  0     0     992.8    NA       0.0000   9999     0     0     0    
2019/06/22  21:33:00  BASE  5.6154   39   6.47388  37   -5.9  84    -8.2  0     0     992.7    NA       0.0000   9999     0     0     0    
2019/06/22  21:34:00  BASE  5.78004  37   6.71496  38   -6.0  84    -8.2  0     0     992.7    NA       0.0000   9999     2950  0     0    
2019/06/22  21:35:00  BASE  5.78004  39   6.80316  36   -6.1  84    -8.3  0     0     992.7    NA       0.0000   9999     2950  0     0    
2019/06/22  21:36:00  BASE  6.06228  35   6.80316  36   -6.1  85    -8.3  0     0     992.7    NA       0.0000   9999     0     0     0    
2019/06/22  21:37:00  BASE  6.27984  35   6.95604  38   -6.2  85    -8.3  0     0     992.7    NA       0.0000   9999     2490  0     0    
2019/06/22  21:38:00  BASE  6.5856   38   7.62048  37   -6.2  85    -8.3  0     0     992.7    NA       0.0000   9999     2690  0     0    
2019/06/22  21:39:00  BASE  6.95604  37   7.62048  37   -6.2  85    -8.3  0     0     992.7    NA       0.0000   9999     0     0     0    
2019/06/22  21:40:00  BASE  6.72084  38   7.62048  37   -6.2  85    -8.3  0     0     992.7    NA       0.0000   9999     2950  0     0    
2019/06/22  21:41:00  BASE  6.56796  39   7.62048  37   -6.3  85    -8.4  0     0     992.6    NA       0.0000   9999     2920  0     0    
2019/06/22  21:42:00  BASE  6.5268   38   7.62048  37   -6.3  85    -8.4  0     0     992.7    NA       0.0000   9999     0     0     0    
2019/06/22  21:43:00  BASE  6.19164  39   7.62048  37   -6.3  85    -8.4  0     0     992.7    NA       0.0000   9999     0     0     0    
2019/06/22  21:44:00  BASE  6.3798   40   7.62048  37   -6.3  85    -8.4  0     0     992.7    NA       0.0000   9999     0     0     0    
2019/06/22  21:45:00  BASE  6.75024  40   7.62048  37   -6.3  85    -8.4  0     0     992.7    NA       0.0000   9999     0     0     0    
2019/06/22  21:46:00  BASE  6.65616  40   7.62048  37   -6.3  85    -8.4  0     0     992.7    NA       0.0000   9999     0     0     0    
2019/06/22  21:47:00  BASE  6.44448  41   7.62048  37   -6.2  85    -8.3  0     0     992.6    NA       0.0000   9999     0     0     0    
2019/06/22  21:48:00  BASE  5.98584  44   7.47348  40   -6.2  85    -8.3  0     0     992.7    NA       0.0000   9999     0     0     0    
2019/06/22  21:49:00  BASE  5.6154   45   7.47348  40   -6.2  85    -8.3  0     0     992.7    NA       0.0000   9999     0     0     0    
2019/06/22  21:50:00  BASE  5.4978   45   7.47348  40   -6.2  85    -8.3  0     0     992.7    NA       0.0000   9999     0     0     0    
2019/06/22  21:51:00  BASE  5.2332   45   7.47348  40   -6.3  85    -8.4  0     0     992.7    NA       0.0000   9999     0     0     0    
2019/06/22  21:52:00  BASE  4.78632  44   7.47348  40   -6.3  85    -8.4  0     0     992.6    NA       0.0000   9999     0     0     0    
2019/06/22  21:53:00  BASE  4.48644  42   7.47348  40   -6.3  85    -8.4  0     0     992.7    NA       0.0000   9999     0     0     0    
2019/06/22  21:54:00  BASE  4.24536  42   7.2324   35   -6.3  86    -8.3  0     0     992.6    NA       0.0000   9999     0     0     0    
2019/06/22  21:55:00  BASE  4.08072  41   7.13832  35   -6.3  86    -8.3  0     0     992.6    NA       0.0000   9999     0     0     0    
2019/06/22  21:56:00  BASE  3.97488  43   6.50328  45   -6.2  86    -8.1  0     0     992.6    NA       0.0000   9999     0     0     0    
2019/06/22  21:57:00  BASE  4.09248  49   6.3504   40   -6.1  86    -8.0  0     0     992.6    NA       0.0000   9999     0     0     0    
2019/06/22  21:58:00  BASE  4.28652  52   6.07992  42   -6.0  86    -7.9  0     0     992.6    NA       0.0000   9999     0     0     0    
2019/06/22  21:59:00  BASE  4.21596  52   5.86824  43   -5.9  86    -7.9  0     0     992.6    NA       0.0000   9999     0     0     0    
2019/06/22  22:00:00  BASE  3.72792  62   5.2626   43   -5.9  86    -8.0  0     0     992.6    NA       0.0000   9999     0     0     0    
2019/06/22  22:01:00  BASE  2.66364  89   4.93332  36   -6.0  85    -8.0  0     0     992.7    NA       0.0000   9999     0     0     0    
2019/06/22  22:02:00  BASE  1.93452  106  4.86864  41   -6.0  85    -8.1  0     0     992.7    NA       0.0000   9999     0     0     0    
2019/06/22  22:03:00  BASE  1.68756  100  4.80984  48   -6.1  85    -8.2  0     0     992.6    NA       0.0000   9999     0     0     0    
2019/06/22  22:04:00  BASE  1.9698   102  4.80984  48   -6.1  85    -8.2  0     0     992.6    NA       0.0000   9999     0     0     0    
2019/06/22  22:05:00  BASE  2.62248  115  4.80984  48   -6.1  85    -8.2  0     0     992.6    NA       0.0000   9999     0     0     0    
2019/06/22  22:06:00  BASE  2.45196  125  4.80984  48   -6.0  85    -8.1  0     0     992.6    NA       0.0000   9999     0     0     0    
2019/06/22  22:07:00  BASE  2.82828  120  4.80984  48   -6.1  85    -8.3  0     0     992.7    NA       0.0000   9999     0     0     0    
2019/06/22  22:08:00  BASE  4.1454   113  5.145    121  -6.2  84    -8.5  0     0     992.7    NA       0.0000   9999     0     0     0    
2019/06/22  22:09:00  BASE  4.57464  121  5.145    121  -6.2  84    -8.5  0     0     992.6    NA       0.0000   9999     0     0     0    
2019/06/22  22:10:00  BASE  4.1748   117  5.145    121  -6.3  84    -8.6  0     0     992.6    NA       0.0000   9999     0     0     0    
2019/06/22  22:11:00  BASE  3.9396   112  5.2038   113  -6.5  83    -8.9  0     0     992.6    NA       0.0000   9999     0     0     0    
2019/06/22  22:12:00  BASE  4.25124  107  5.59776  89   -6.6  83    -9.0  0     0     992.6    NA       0.0000   9999     0     0     0    
2019/06/22  22:13:00  BASE  4.68048  103  5.59776  89   -6.5  83    -8.8  0     0     992.6    NA       0.0000   9999     0     0     0    
2019/06/22  22:14:00  BASE  4.66284  105  5.59776  89   -6.4  83    -8.8  0     0     992.6    NA       0.0000   9999     0     0     0    
2019/06/22  22:15:00  BASE  3.80436  103  5.59776  89   -6.4  83    -8.7  0     0     992.6    NA       0.0000   9999     0     0     0    
2019/06/22  22:16:00  BASE  3.33396  102  5.59776  89   -6.2  83    -8.6  0     0     992.5    NA       0.0000   9999     0     0     0    
2019/06/22  22:17:00  BASE  3.28104  104  5.59776  89   -6.1  83    -8.5  0     0     992.5    NA       0.0000   9999     0     0     0    
2019/06/22  22:18:00  BASE  2.77536  103  5.59776  89   -6.0  83    -8.5  0     0     992.4    NA       0.0000   9999     2850  0     0    
2019/06/22  22:19:00  BASE  2.56956  112  5.59776  89   -6.0  82    -8.5  0     0     992.4    NA       0.0000   9999     2850  0     0    
2019/06/22  22:20:00  BASE  2.25792  126  5.59776  89   -6.0  82    -8.5  0     0     992.3    NA       0.0000   9999     2820  0     0    
2019/06/22  22:21:00  BASE  1.48176  122  5.59776  89   -5.8  82    -8.4  0     0     992.3    NA       0.0000   9999     3080  0     0    
2019/06/22  22:22:00  BASE  0.72324  103  5.292    105  -5.6  82    -8.2  0     0     992.3    NA       0.0000   9999     2560  0     0    
2019/06/22  22:23:00  BASE  0.94668  89   4.75104  98   -5.5  82    -8.1  0     0     992.3    NA       0.0000   9999     2690  0     0    
2019/06/22  22:24:00  BASE  1.68756  97   3.86904  97   -5.5  81    -8.2  0     0     992.4    NA       0.0000   9999     2690  0     0    
2019/06/22  22:25:00  BASE  2.15208  103  3.86904  97   -5.4  81    -8.2  0     0     992.4    NA       0.0000   9999     2530  0     0    
2019/06/22  22:26:00  BASE  2.16384  110  3.48096  110  -5.4  80    -8.3  0     0     992.4    NA       0.0000   9999     2620  0     0    
2019/06/22  22:27:00  BASE  2.4402   116  3.51036  93   -5.5  79    -8.5  0     0     992.4    NA       0.0000   9999     0     0     0    
2019/06/22  22:28:00  BASE  3.0576   106  3.69264  95   -5.8  79    -8.9  0     0     992.4    NA       0.0000   9999     0     0     0    
2019/06/22  22:29:00  BASE  3.1458   101  3.69264  95   -5.9  79    -9.0  0     0     992.4    NA       0.0000   9999     0     0     0    
2019/06/22  22:30:00  BASE  2.74596  104  3.69264  95   -6.0  79    -9.1  0     0     992.4    NA       0.0000   9999     0     0     0    
2019/06/22  22:31:00  BASE  2.205    103  3.69264  95   -6.2  78    -9.4  0     0     992.4    NA       0.0000   9999     0     0     0    
2019/06/22  22:32:00  BASE  2.11092  89   3.69264  95   -6.3  79    -9.4  0     0     992.4    NA       0.0000   9999     0     0     0    
2019/06/22  22:33:00  BASE  2.02272  65   3.69264  95   -6.2  79    -9.2  0     0     992.4    NA       0.0000   9999     0     0     0    
2019/06/22  22:34:00  BASE  1.6464   34   3.69264  95   -6.0  79    -8.9  0     0     992.3    NA       0.0000   9999     0     0     0    
2019/06/22  22:35:01  BASE  1.34064  24   3.69264  95   -5.8  80    -8.7  0     0     992.3    NA       0.0000   9999     0     0     0    
2019/06/22  22:36:00  BASE  1.48764  50   3.69264  95   -5.5  80    -8.5  0     0     992.4    NA       0.0000   9999     0     0     0    
2019/06/22  22:37:00  BASE  2.05212  84   3.69264  95   -5.4  79    -8.5  0     0     992.4    NA       0.0000   9999     0     0     0    
2019/06/22  22:38:00  BASE  2.1168   75   3.59856  91   -5.4  79    -8.5  0     0     992.4    NA       0.0000   9999     0     0     0    
2019/06/22  22:39:00  BASE  1.72872  56   3.59856  91   -5.4  79    -8.5  0     0     992.4    NA       0.0000   9999     0     0     0    
2019/06/22  22:40:00  BASE  1.22304  48   3.59856  91   -5.4  78    -8.6  0     0     992.4    NA       0.0000   9999     0     0     0    
2019/06/22  22:41:00  BASE  0.7644   34   3.59856  91   -5.5  78    -8.7  0     0     992.4    NA       0.0000   9999     3050  0     0    
2019/06/22  22:42:00  BASE  0.59388  20   3.59856  91   -5.4  78    -8.6  0     0     992.4    NA       0.0000   9999     3120  0     0    
2019/06/22  22:43:00  BASE  0.61152  4    3.59856  91   -5.4  78    -8.6  0     0     992.4    NA       0.0000   9999     3480  0     0    
2019/06/22  22:44:00  BASE  0.82908  357  3.59856  91   -5.4  78    -8.6  0     0     992.4    NA       0.0000   9999     3350  0     0    
2019/06/22  22:45:00  BASE  0.61152  3    3.59856  91   -5.4  78    -8.6  0     0     992.5    NA       0.0000   9999     3580  0     0    
2019/06/22  22:46:00  BASE  0.4998   31   3.59856  91   -5.4  78    -8.6  0     0     992.6    NA       0.0000   9999     3220  0     0    
2019/06/22  22:47:00  BASE  0.55272  51   2.69304  84   -5.3  78    -8.5  0     0     992.6    NA       0.0000   9999     3150  0     0    
2019/06/22  22:48:00  BASE  0.51744  14   2.24028  45   -5.3  78    -8.4  0     0     992.6    NA       0.0000   9999     3310  0     0    
2019/06/22  22:49:00  BASE  1.51116  345  3.29868  337  -5.2  78    -8.4  0     0     992.6    NA       0.0000   9999     3180  0     0    
2019/06/22  22:50:00  BASE  2.43432  346  3.41628  347  -5.3  78    -8.5  0     0     992.6    NA       0.0000   9999     3150  0     0    
2019/06/22  22:51:00  BASE  1.7934   321  3.41628  347  -5.2  78    -8.5  0     0     992.6    NA       0.0000   9999     3150  0     0    
2019/06/22  22:52:00  BASE  1.05252  316  3.41628  347  -5.2  77    -8.6  0     0     992.6    NA       0.0000   9999     3050  0     0    
2019/06/22  22:53:00  BASE  0.95256  314  3.41628  347  -5.2  77    -8.6  0     0     992.6    NA       0.0000   9999     3020  0     0    
2019/06/22  22:54:00  BASE  0.95844  310  3.41628  347  -5.2  77    -8.6  0     0     992.6    NA       0.0000   9999     3120  0     0    
2019/06/22  22:55:00  BASE  0.84672  346  3.41628  347  -5.2  77    -8.5  0     0     992.6    NA       0.0000   9999     3380  0     0    
2019/06/22  22:56:00  BASE  0.36456  33   3.41628  347  -5.2  77    -8.6  0     0     992.6    NA       0.0000   9999     3580  0     0    
2019/06/22  22:57:00  BASE  0.47628  74   3.41628  347  -5.2  77    -8.6  0     0     992.6    NA       0.0000   9999     3020  0     0    
2019/06/22  22:58:00  BASE  0.8232   100  3.41628  347  -5.2  77    -8.7  0     0     992.6    NA       0.0000   9999     3670  0     0    
2019/06/22  22:59:00  BASE  0.37632  116  3.41628  347  -5.3  77    -8.7  0     0     992.6    NA       0.0000   9999     3610  0     0    
2019/06/22  23:00:01  BASE  0        161  1.78752  293  -5.3  77    -8.7  0     0     992.6    NA       0.0000   9999     3540  0     0    
2019/06/22  23:01:00  BASE  0        223  1.24068  304  -5.3  77    -8.8  0     0     992.6    NA       0.0000   9999     3410  0     0    
2019/06/22  23:02:00  BASE  0        261  1.1466   78   -5.4  77    -8.8  0     0     992.6    NA       0.0000   9999     3310  0     0    
2019/06/22  23:03:00  BASE  0.3528   332  1.1466   78   -5.3  77    -8.7  0     0     992.7    NA       0.0000   9999     3120  0     0    
2019/06/22  23:04:00  BASE  1.40532  19   2.51076  12   -5.3  77    -8.8  0     0     992.7    NA       0.0000   9999     3280  0     0    
2019/06/22  23:05:00  BASE  2.1756   16   2.69304  18   -5.4  77    -8.8  0     0     992.7    NA       0.0000   9999     3180  0     0    
2019/06/22  23:06:00  BASE  2.058    12   2.69304  18   -5.4  77    -8.9  0     0     992.7    NA       0.0000   9999     3280  0     0    
2019/06/22  23:07:00  BASE  1.2936   5    2.69304  18   -5.4  77    -8.8  0     0     992.7    NA       0.0000   9999     3410  0     0    
2019/06/22  23:08:00  BASE  0.50568  6    2.69304  18   -5.4  77    -8.9  0     0     992.7    NA       0.0000   9999     3350  0     0    
2019/06/22  23:09:00  BASE  0.14112  357  2.69304  18   -5.4  77    -8.8  0     0     992.7    NA       0.0000   9999     3080  0     0    
2019/06/22  23:10:01  BASE  0        332  2.69304  18   -5.4  77    -8.8  0     0     992.7    NA       0.0000   9999     3050  0     0    
2019/06/22  23:11:00  BASE  0.28224  160  2.69304  18   -5.4  77    -8.7  0     0     992.8    NA       0.0000   9999     3310  0     0    
2019/06/22  23:12:00  BASE  0.4704   141  2.69304  18   -5.5  77    -8.9  0     0     992.8    NA       0.0000   9999     3350  0     0    
2019/06/22  23:13:00  BASE  0.18816  114  2.69304  18   -5.5  77    -8.9  0     0     992.8    NA       0.0000   9999     3120  0     0    
2019/06/22  23:14:00  BASE  0        65   2.69304  18   -5.6  77    -8.9  0     0     992.8    NA       0.0000   9999     3180  0     0    
2019/06/22  23:15:00  BASE  0.18228  340  2.1168   1    -5.6  78    -8.9  0     0     992.8    NA       0.0000   9999     3180  0     0    
2019/06/22  23:16:00  BASE  1.60524  336  3.48096  11   -5.7  78    -8.9  0     0     992.8    NA       0.0000   9999     3080  0     0    
2019/06/22  23:17:00  BASE  2.96352  6    4.47468  13   -5.8  78    -9.0  0     0     992.7    NA       0.0000   9999     3120  0     0    
2019/06/22  23:18:00  BASE  2.352    0    4.47468  13   -5.8  78    -9.0  0     0     992.8    NA       0.0000   9999     3220  0     0    
2019/06/22  23:19:00  BASE  1.79928  356  4.47468  13   -5.8  78    -9.1  0     0     992.8    NA       0.0000   9999     3180  0     0    
2019/06/22  23:20:00  BASE  1.9992   356  4.47468  13   -5.8  78    -9.0  0     0     992.8    NA       0.0000   9999     3350  0     0    
2019/06/22  23:21:00  BASE  2.04624  13   4.47468  13   -5.8  78    -9.0  0     0     992.8    NA       0.0000   9999     3770  0     0    
2019/06/22  23:22:00  BASE  1.7052   24   4.47468  13   -5.7  78    -8.9  0     0     992.8    NA       0.0000   9999     3120  0     0    
2019/06/22  23:23:00  BASE  0.88788  15   4.47468  13   -5.6  78    -8.9  0     0     992.8    NA       0.0000   9999     3610  0     0    
2019/06/22  23:24:00  BASE  0.5292   5    4.47468  13   -5.6  78    -8.8  0     0     992.8    NA       0.0000   9999     3610  0     0    
2019/06/22  23:25:00  BASE  0.67032  0    4.47468  13   -5.6  78    -8.8  0     0     992.8    NA       0.0000   9999     3870  0     0    
2019/06/22  23:26:00  BASE  0.77028  18   4.47468  13   -5.5  78    -8.7  0     0     992.8    NA       0.0000   9999     3840  0     0    
2019/06/22  23:27:00  BASE  1.176    39   2.32848  22   -5.5  78    -8.7  0     0     992.8    NA       0.0000   9999     3610  0     0    
2019/06/22  23:28:00  BASE  0.84084  40   2.32848  22   -5.5  78    -8.7  0     0     992.8    NA       0.0000   9999     3540  0     0    
2019/06/22  23:29:00  BASE  0.16464  59   2.32848  22   -5.5  78    -8.8  0     0     992.8    NA       0.0000   9999     3380  0     0    
2019/06/22  23:30:00  BASE  0.35868  84   2.32848  22   -5.6  78    -8.8  0     0     992.8    NA       0.0000   9999     3220  0     0    
2019/06/22  23:31:00  BASE  1.75224  77   4.53936  43   -5.6  78    -8.8  0     0     992.8    NA       0.0000   9999     3180  0     0    
2019/06/22  23:32:00  BASE  4.05132  54   5.80944  43   -5.7  78    -9.0  0     0     992.7    NA       0.0000   9999     3540  0     0    
2019/06/22  23:33:00  BASE  4.45704  44   5.80944  43   -5.9  78    -9.2  0     0     992.8    NA       0.0000   9999     3870  0     0    
2019/06/22  23:34:00  BASE  4.0278   45   5.80944  43   -6.0  78    -9.3  0     0     992.8    NA       0.0000   9999     3840  0     0    
2019/06/22  23:35:00  BASE  4.13952  44   5.80944  43   -6.2  78    -9.5  0     0     992.8    NA       0.0000   9999     3670  0     0    
2019/06/22  23:36:00  BASE  3.66912  46   5.80944  43   -6.3  78    -9.6  0     0     992.8    NA       0.0000   9999     3580  0     0    
2019/06/22  23:37:00  BASE  3.01644  38   5.80944  43   -6.4  78    -9.6  0     0     992.8    NA       0.0000   9999     3840  0     0    
2019/06/22  23:38:00  BASE  1.7934   24   5.80944  43   -6.3  78    -9.5  0     0     992.8    NA       0.0000   9999     3900  0     0    
2019/06/22  23:39:00  BASE  0.71736  33   5.80944  43   -6.3  78    -9.4  0     0     992.7    NA       0.0000   9999     3970  0     0    
2019/06/22  23:40:00  BASE  1.09956  40   5.80944  43   -6.2  79    -9.3  0     0     992.7    NA       0.0000   9999     3940  0     0    
2019/06/22  23:41:00  BASE  1.7052   48   5.80944  43   -6.2  79    -9.2  0     0     992.7    NA       0.0000   9999     3940  0     0    
2019/06/22  23:42:00  BASE  1.8228   67   5.02152  45   -6.1  79    -9.1  0     0     992.7    NA       0.0000   9999     3870  0     0    
2019/06/22  23:43:00  BASE  2.14032  70   4.80984  46   -6.2  80    -9.1  0     0     992.7    NA       0.0000   9999     3900  0     0    
2019/06/22  23:44:00  BASE  3.23988  62   5.292    43   -6.2  80    -9.0  0     0     992.7    NA       0.0000   9999     3810  0     0    
2019/06/22  23:45:00  BASE  4.63344  51   5.65656  37   -6.2  81    -9.0  0     0     992.7    NA       0.0000   9999     0     0     0    
2019/06/22  23:46:00  BASE  4.9392   49   6.2916   47   -6.2  81    -8.9  0     0     992.7    NA       0.0000   9999     0     0     0    
2019/06/22  23:47:00  BASE  5.07444  54   6.65616  48   -6.2  82    -8.8  0     0     992.7    NA       0.0000   9999     4230  0     0    
2019/06/22  23:48:00  BASE  5.36256  54   6.65616  48   -6.2  82    -8.8  0     0     992.7    NA       0.0000   9999     4070  0     0    
2019/06/22  23:49:00  BASE  5.57424  46   7.05012  45   -6.2  83    -8.6  0     0     992.7    NA       0.0000   9999     0     0     0    
2019/06/22  23:50:00  BASE  6.06816  43   7.35     38   -6.2  83    -8.5  0     0     992.6    NA       0.0000   9999     0     0     0    
2019/06/22  23:51:00  BASE  6.19164  43   7.35     38   -6.1  84    -8.4  0     0     992.6    NA       0.0000   9999     0     0     0    
2019/06/22  23:52:00  BASE  6.29748  41   7.74396  39   -6.0  84    -8.3  0     0     992.5    NA       0.0000   9999     0     0     0    
2019/06/22  23:53:00  BASE  6.59148  37   7.74396  39   -6.0  85    -8.2  0     0     992.5    NA       0.0000   9999     0     0     0    
2019/06/22  23:54:00  BASE  6.90312  36   7.86744  37   -5.9  85    -8.0  0     0     992.4    NA       0.0000   9999     0     0     0    
2019/06/22  23:55:00  BASE  7.2618   38   7.92624  36   -5.9  85    -7.9  0     0     992.4    NA       0.0000   9999     0     0     0    
2019/06/22  23:56:00  BASE  7.50288  37   8.379    29   -5.8  86    -7.8  0     0     992.4    NA       0.0000   9999     0     0     0    
2019/06/22  23:57:00  BASE  7.59108  35   8.379    29   -5.7  86    -7.7  0     0     992.4    NA       0.0000   9999     0     0     0    
2019/06/22  23:58:00  BASE  7.69692  36   8.80236  39   -5.6  86    -7.6  0     0     992.4    NA       0.0000   9999     0     0     0    
2019/06/22  23:59:00  BASE  7.7616   38   9.16692  36   -5.6  86    -7.5  0     0     992.3    NA       0.0000   9999     0     0     0